Wetterdaten: Montag, 29.02.2016
Datum Zeit Temp. A. Feuchte A. Luftdruck Regen Wind Richtung Richtung Sonnenschein ET UV Solar Taupunkt Windchill Windben Empfang
29.02.2016 00:00 1,8 C 92 % 1009,6 hPa 0,0 l/m 0,0 km/h (0 Bft) NO 34 0 min 0,000 mm 0,0 UV-I 0 W/m 0,6 C 1,8 C 0,0 km/h (0 Bft) 100,00 %
29.02.2016 00:02 1,5 C 92 % 1009,7 hPa 0,0 l/m 0,2 km/h (0 Bft) NO 34 0 min 0,000 mm 0,0 UV-I 0 W/m 0,3 C 1,5 C 1,6 km/h (1 Bft) 100,00 %
29.02.2016 00:03 1,4 C 92 % 1009,7 hPa 0,0 l/m 0,7 km/h (0 Bft) NO 34 0 min 0,000 mm 0,0 UV-I 0 W/m 0,2 C 1,4 C 1,6 km/h (1 Bft) 100,00 %
29.02.2016 00:04 1,4 C 94 % 1009,5 hPa 0,0 l/m 0,3 km/h (0 Bft) NO 34 0 min 0,000 mm 0,0 UV-I 0 W/m 0,5 C 1,4 C 1,6 km/h (1 Bft) 100,00 %
29.02.2016 00:05 1,4 C 94 % 1009,5 hPa 0,0 l/m 0,0 km/h (0 Bft) NO 34 0 min 0,000 mm 0,0 UV-I 0 W/m 0,5 C 1,4 C 0,0 km/h (0 Bft) 96,15 %
29.02.2016 00:06 1,4 C 94 % 1009,5 hPa 0,0 l/m 0,0 km/h (0 Bft) NO 34 0 min 0,000 mm 0,0 UV-I 0 W/m 0,5 C 1,4 C 0,0 km/h (0 Bft) 100,00 %
29.02.2016 00:07 1,4 C 94 % 1009,5 hPa 0,0 l/m 0,8 km/h (0 Bft) NO 34 0 min 0,000 mm 0,0 UV-I 0 W/m 0,5 C 1,4 C 3,2 km/h (1 Bft) 100,00 %
29.02.2016 00:08 1,3 C 94 % 1009,6 hPa 0,0 l/m 1,4 km/h (1 Bft) NO 34 0 min 0,000 mm 0,0 UV-I 0 W/m 0,4 C 1,3 C 3,2 km/h (1 Bft) 100,00 %
29.02.2016 00:09 1,3 C 94 % 1009,7 hPa 0,0 l/m 1,7 km/h (1 Bft) NO 34 0 min 0,000 mm 0,0 UV-I 0 W/m 0,4 C 1,3 C 3,2 km/h (1 Bft) 100,00 %
29.02.2016 00:10 1,3 C 94 % 1009,7 hPa 0,0 l/m 0,9 km/h (0 Bft) NO 34 0 min 0,000 mm 0,0 UV-I 0 W/m 0,4 C 1,3 C 1,6 km/h (1 Bft) 100,00 %
29.02.2016 00:11 1,2 C 94 % 1009,7 hPa 0,0 l/m 0,3 km/h (0 Bft) NO 34 0 min 0,000 mm 0,0 UV-I 0 W/m 0,3 C 1,2 C 1,6 km/h (1 Bft) 100,00 %
29.02.2016 00:12 1,2 C 94 % 1009,7 hPa 0,0 l/m 0,7 km/h (0 Bft) NO 34 0 min 0,000 mm 0,0 UV-I 0 W/m 0,3 C 1,2 C 1,6 km/h (1 Bft) 100,00 %
29.02.2016 00:13 1,2 C 94 % 1009,6 hPa 0,0 l/m 0,4 km/h (0 Bft) NO 34 0 min 0,000 mm 0,0 UV-I 0 W/m 0,3 C 1,2 C 1,6 km/h (1 Bft) 100,00 %
29.02.2016 00:14 1,1 C 94 % 1009,6 hPa 0,0 l/m 0,0 km/h (0 Bft) NO 34 0 min 0,000 mm 0,0 UV-I 0 W/m 0,2 C 1,1 C 0,0 km/h (0 Bft) 100,00 %
29.02.2016 00:15 1,1 C 94 % 1009,7 hPa 0,0 l/m 0,5 km/h (0 Bft) NO 34 0 min 0,000 mm 0,0 UV-I 0 W/m 0,2 C 1,1 C 1,6 km/h (1 Bft) 100,00 %
29.02.2016 00:16 1,1 C 94 % 1009,7 hPa 0,0 l/m 0,2 km/h (0 Bft) NO 34 0 min 0,000 mm 0,0 UV-I 0 W/m 0,2 C 1,1 C 1,6 km/h (1 Bft) 100,00 %
29.02.2016 00:17 1,1 C 94 % 1009,7 hPa 0,0 l/m 0,1 km/h (0 Bft) NO 34 0 min 0,000 mm 0,0 UV-I 0 W/m 0,2 C 1,1 C 1,6 km/h (1 Bft) 95,65 %
29.02.2016 00:18 1,2 C 94 % 1009,7 hPa 0,0 l/m 0,6 km/h (0 Bft) NO 34 0 min 0,000 mm 0,0 UV-I 0 W/m 0,3 C 1,2 C 3,2 km/h (1 Bft) 100,00 %
29.02.2016 00:19 1,2 C 94 % 1009,7 hPa 0,0 l/m 0,0 km/h (0 Bft) NO 34 0 min 0,000 mm 0,0 UV-I 0 W/m 0,3 C 1,2 C 0,0 km/h (0 Bft) 100,00 %
29.02.2016 00:20 1,2 C 94 % 1009,7 hPa 0,0 l/m 0,9 km/h (0 Bft) NO 34 0 min 0,000 mm 0,0 UV-I 0 W/m 0,3 C 1,2 C 3,2 km/h (1 Bft) 100,00 %
29.02.2016 00:21 1,2 C 94 % 1009,7 hPa 0,0 l/m 4,0 km/h (1 Bft) O-NO 65 0 min 0,000 mm 0,0 UV-I 0 W/m 0,3 C 1,2 C 6,4 km/h (2 Bft) 100,00 %
29.02.2016 00:22 1,1 C 94 % 1009,7 hPa 0,0 l/m 4,8 km/h (1 Bft) O-NO 65 0 min 0,000 mm 0,0 UV-I 0 W/m 0,2 C 1,1 C 6,4 km/h (2 Bft) 100,00 %
29.02.2016 00:23 1,1 C 94 % 1009,7 hPa 0,0 l/m 4,8 km/h (1 Bft) NO 55 0 min 0,000 mm 0,0 UV-I 0 W/m 0,2 C 1,1 C 6,4 km/h (2 Bft) 100,00 %
29.02.2016 00:24 1,2 C 95 % 1009,7 hPa 0,0 l/m 4,3 km/h (1 Bft) O-NO 67 0 min 0,000 mm 0,0 UV-I 0 W/m 0,5 C 1,2 C 6,4 km/h (2 Bft) 91,30 %
29.02.2016 00:25 1,3 C 95 % 1009,7 hPa 0,0 l/m 4,7 km/h (1 Bft) O-NO 60 0 min 0,000 mm 0,0 UV-I 0 W/m 0,6 C 1,3 C 4,8 km/h (1 Bft) 96,15 %
29.02.2016 00:26 1,5 C 95 % 1009,7 hPa 0,0 l/m 4,4 km/h (1 Bft) NO 52 0 min 0,000 mm 0,0 UV-I 0 W/m 0,8 C 1,5 C 6,4 km/h (2 Bft) 96,30 %
29.02.2016 00:27 1,7 C 96 % 1009,7 hPa 0,0 l/m 3,0 km/h (1 Bft) NO 52 0 min 0,000 mm 0,0 UV-I 0 W/m 1,1 C 1,7 C 4,8 km/h (1 Bft) 100,00 %
29.02.2016 00:28 2,0 C 96 % 1009,7 hPa 0,0 l/m 3,8 km/h (1 Bft) O-NO 64 0 min 0,000 mm 0,0 UV-I 0 W/m 1,4 C 2,0 C 6,4 km/h (2 Bft) 100,00 %
29.02.2016 00:29 2,2 C 96 % 1009,7 hPa 0,0 l/m 4,5 km/h (1 Bft) O-NO 63 0 min 0,000 mm 0,0 UV-I 0 W/m 1,6 C 2,2 C 6,4 km/h (2 Bft) 100,00 %
29.02.2016 00:30 2,2 C 96 % 1009,7 hPa 0,0 l/m 4,4 km/h (1 Bft) O-NO 65 0 min 0,000 mm 0,0 UV-I 0 W/m 1,6 C 2,2 C 6,4 km/h (2 Bft) 100,00 %
29.02.2016 00:31 2,3 C 96 % 1009,7 hPa 0,0 l/m 5,6 km/h (1 Bft) O-NO 67 0 min 0,000 mm 0,0 UV-I 0 W/m 1,7 C 2,3 C 9,7 km/h (2 Bft) 100,00 %
29.02.2016 00:32 2,4 C 96 % 1009,7 hPa 0,0 l/m 5,3 km/h (1 Bft) O 83 0 min 0,000 mm 0,0 UV-I 0 W/m 1,8 C 2,4 C 6,4 km/h (2 Bft) 100,00 %
29.02.2016 00:33 2,4 C 96 % 1009,7 hPa 0,0 l/m 5,2 km/h (1 Bft) O-NO 69 0 min 0,000 mm 0,0 UV-I 0 W/m 1,8 C 2,4 C 6,4 km/h (2 Bft) 100,00 %
29.02.2016 00:34 2,6 C 96 % 1009,7 hPa 0,0 l/m 5,2 km/h (1 Bft) O-NO 68 0 min 0,000 mm 0,0 UV-I 0 W/m 2,0 C 2,6 C 6,4 km/h (2 Bft) 100,00 %
29.02.2016 00:35 2,6 C 96 % 1009,7 hPa 0,0 l/m 3,4 km/h (1 Bft) NO 55 0 min 0,000 mm 0,0 UV-I 0 W/m 2,0 C 2,6 C 4,8 km/h (1 Bft) 95,83 %
29.02.2016 00:36 2,7 C 95 % 1009,7 hPa 0,0 l/m 4,0 km/h (1 Bft) O-NO 57 0 min 0,000 mm 0,0 UV-I 0 W/m 2,0 C 2,7 C 4,8 km/h (1 Bft) 100,00 %
29.02.2016 00:37 2,8 C 95 % 1009,7 hPa 0,0 l/m 3,8 km/h (1 Bft) O-NO 66 0 min 0,000 mm 0,0 UV-I 0 W/m 2,1 C 2,8 C 4,8 km/h (1 Bft) 96,30 %
29.02.2016 00:38 2,8 C 95 % 1009,7 hPa 0,0 l/m 3,2 km/h (1 Bft) O-NO 64 0 min 0,000 mm 0,0 UV-I 0 W/m 2,1 C 2,8 C 4,8 km/h (1 Bft) 95,65 %
29.02.2016 00:39 2,9 C 95 % 1009,7 hPa 0,0 l/m 3,4 km/h (1 Bft) O-NO 63 0 min 0,000 mm 0,0 UV-I 0 W/m 2,2 C 2,9 C 4,8 km/h (1 Bft) 100,00 %
29.02.2016 00:40 2,9 C 95 % 1009,7 hPa 0,0 l/m 2,8 km/h (1 Bft) O-NO 63 0 min 0,000 mm 0,0 UV-I 0 W/m 2,2 C 2,9 C 4,8 km/h (1 Bft) 95,65 %
29.02.2016 00:41 3,0 C 95 % 1009,6 hPa 0,0 l/m 3,7 km/h (1 Bft) NO 55 0 min 0,000 mm 0,0 UV-I 0 W/m 2,3 C 3,0 C 6,4 km/h (2 Bft) 100,00 %
29.02.2016 00:42 3,0 C 95 % 1009,7 hPa 0,0 l/m 3,3 km/h (1 Bft) NO 42 0 min 0,000 mm 0,0 UV-I 0 W/m 2,3 C 3,0 C 4,8 km/h (1 Bft) 95,83 %
29.02.2016 00:43 3,0 C 94 % 1009,6 hPa 0,0 l/m 4,6 km/h (1 Bft) NO 44 0 min 0,000 mm 0,0 UV-I 0 W/m 2,1 C 3,0 C 6,4 km/h (2 Bft) 100,00 %
29.02.2016 00:44 3,1 C 94 % 1009,6 hPa 0,0 l/m 3,6 km/h (1 Bft) NO 43 0 min 0,000 mm 0,0 UV-I 0 W/m 2,2 C 3,1 C 4,8 km/h (1 Bft) 92,31 %
29.02.2016 00:45 3,0 C 94 % 1009,5 hPa 0,0 l/m 4,8 km/h (1 Bft) NO 40 0 min 0,000 mm 0,0 UV-I 0 W/m 2,1 C 3,0 C 6,4 km/h (2 Bft) 96,30 %
29.02.2016 00:46 3,0 C 94 % 1009,5 hPa 0,0 l/m 4,7 km/h (1 Bft) NO 40 0 min 0,000 mm 0,0 UV-I 0 W/m 2,1 C 3,0 C 6,4 km/h (2 Bft) 100,00 %
29.02.2016 00:47 3,1 C 94 % 1009,5 hPa 0,0 l/m 4,8 km/h (1 Bft) NO 46 0 min 0,000 mm 0,0 UV-I 0 W/m 2,2 C 3,1 C 6,4 km/h (2 Bft) 100,00 %
29.02.2016 00:48 3,0 C 94 % 1009,5 hPa 0,0 l/m 4,4 km/h (1 Bft) NO 45 0 min 0,000 mm 0,0 UV-I 0 W/m 2,1 C 3,0 C 6,4 km/h (2 Bft) 95,83 %
29.02.2016 00:49 3,1 C 94 % 1009,5 hPa 0,0 l/m 3,3 km/h (1 Bft) NO 45 0 min 0,000 mm 0,0 UV-I 0 W/m 2,2 C 3,1 C 4,8 km/h (1 Bft) 96,15 %
29.02.2016 00:50 3,0 C 94 % 1009,6 hPa 0,0 l/m 2,6 km/h (1 Bft) NO 45 0 min 0,000 mm 0,0 UV-I 0 W/m 2,1 C 3,0 C 3,2 km/h (1 Bft) 100,00 %
29.02.2016 00:51 3,0 C 94 % 1009,6 hPa 0,0 l/m 3,3 km/h (1 Bft) NO 45 0 min 0,000 mm 0,0 UV-I 0 W/m 2,1 C 3,0 C 6,4 km/h (2 Bft) 95,65 %
29.02.2016 00:52 3,0 C 94 % 1009,6 hPa 0,0 l/m 4,2 km/h (1 Bft) O-NO 68 0 min 0,000 mm 0,0 UV-I 0 W/m 2,1 C 3,0 C 6,4 km/h (2 Bft) 100,00 %
29.02.2016 00:53 2,9 C 94 % 1009,6 hPa 0,0 l/m 4,4 km/h (1 Bft) N-NO 32 0 min 0,000 mm 0,0 UV-I 0 W/m 2,0 C 2,9 C 8,0 km/h (2 Bft) 92,86 %
29.02.2016 00:54 2,9 C 94 % 1009,6 hPa 0,0 l/m 4,4 km/h (1 Bft) N-NO 15 0 min 0,000 mm 0,0 UV-I 0 W/m 2,0 C 2,9 C 6,4 km/h (2 Bft) 100,00 %
29.02.2016 00:55 2,9 C 94 % 1009,6 hPa 0,0 l/m 4,8 km/h (1 Bft) O-NO 61 0 min 0,000 mm 0,0 UV-I 0 W/m 2,0 C 2,9 C 6,4 km/h (2 Bft) 96,15 %
29.02.2016 00:56 3,0 C 94 % 1009,5 hPa 0,0 l/m 5,2 km/h (1 Bft) N-NO 32 0 min 0,000 mm 0,0 UV-I 0 W/m 2,1 C 3,0 C 6,4 km/h (2 Bft) 96,30 %
29.02.2016 00:57 3,0 C 94 % 1009,5 hPa 0,0 l/m 5,8 km/h (2 Bft) N-NO 26 0 min 0,000 mm 0,0 UV-I 0 W/m 2,1 C 3,0 C 8,0 km/h (2 Bft) 100,00 %
29.02.2016 00:58 3,0 C 94 % 1009,5 hPa 0,0 l/m 6,8 km/h (2 Bft) N-NO 27 0 min 0,000 mm 0,0 UV-I 0 W/m 2,1 C 2,6 C 9,7 km/h (2 Bft) 96,30 %
29.02.2016 00:59 3,0 C 94 % 1009,4 hPa 0,0 l/m 5,9 km/h (2 Bft) N-NO 26 0 min 0,000 mm 0,0 UV-I 0 W/m 2,1 C 3,0 C 8,0 km/h (2 Bft) 100,00 %
29.02.2016 01:00 3,1 C 94 % 1009,4 hPa 0,0 l/m 8,4 km/h (2 Bft) O-NO 61 0 min 0,000 mm 0,0 UV-I 0 W/m 2,2 C 1,3 C 14,5 km/h (3 Bft) 95,83 %
29.02.2016 01:02 3,2 C 95 % 1009,4 hPa 0,0 l/m 4,4 km/h (1 Bft) NO 53 0 min 0,000 mm 0,0 UV-I 0 W/m 2,5 C 3,2 C 8,0 km/h (2 Bft) 94,00 %
29.02.2016 01:03 3,2 C 95 % 1009,5 hPa 0,0 l/m 5,1 km/h (1 Bft) O-NO 72 0 min 0,000 mm 0,0 UV-I 0 W/m 2,5 C 3,2 C 6,4 km/h (2 Bft) 95,65 %
29.02.2016 01:04 3,3 C 95 % 1009,5 hPa 0,0 l/m 5,1 km/h (1 Bft) O-NO 60 0 min 0,000 mm 0,0 UV-I 0 W/m 2,6 C 3,3 C 12,9 km/h (3 Bft) 100,00 %
29.02.2016 01:05 3,4 C 95 % 1009,5 hPa 0,0 l/m 5,3 km/h (1 Bft) O-NO 64 0 min 0,000 mm 0,0 UV-I 0 W/m 2,7 C 3,4 C 6,4 km/h (2 Bft) 95,65 %
29.02.2016 01:06 3,4 C 95 % 1009,5 hPa 0,0 l/m 5,3 km/h (1 Bft) O-NO 66 0 min 0,000 mm 0,0 UV-I 0 W/m 2,7 C 3,4 C 8,0 km/h (2 Bft) 100,00 %
29.02.2016 01:07 3,5 C 95 % 1009,5 hPa 0,0 l/m 5,2 km/h (1 Bft) O-NO 70 0 min 0,000 mm 0,0 UV-I 0 W/m 2,8 C 3,5 C 6,4 km/h (2 Bft) 93,33 %
29.02.2016 01:08 3,6 C 95 % 1009,5 hPa 0,0 l/m 5,4 km/h (1 Bft) O-NO 67 0 min 0,000 mm 0,0 UV-I 0 W/m 2,9 C 3,6 C 8,0 km/h (2 Bft) 100,00 %
29.02.2016 01:09 3,6 C 94 % 1009,5 hPa 0,0 l/m 5,8 km/h (2 Bft) O-NO 61 0 min 0,000 mm 0,0 UV-I 0 W/m 2,7 C 3,6 C 8,0 km/h (2 Bft) 96,30 %
29.02.2016 01:10 3,6 C 94 % 1009,5 hPa 0,0 l/m 5,2 km/h (1 Bft) NO 56 0 min 0,000 mm 0,0 UV-I 0 W/m 2,7 C 3,6 C 8,0 km/h (2 Bft) 98,20 %
29.02.2016 01:11 3,6 C 94 % 1009,5 hPa 0,0 l/m 7,9 km/h (2 Bft) NO 55 0 min 0,000 mm 0,0 UV-I 0 W/m 2,7 C 2,2 C 11,3 km/h (2 Bft) 97,56 %
29.02.2016 01:12 3,7 C 94 % 1009,5 hPa 0,0 l/m 5,6 km/h (1 Bft) O-NO 65 0 min 0,000 mm 0,0 UV-I 0 W/m 2,8 C 3,7 C 6,4 km/h (2 Bft) 96,15 %
29.02.2016 01:13 3,7 C 94 % 1009,5 hPa 0,0 l/m 5,6 km/h (1 Bft) O-NO 74 0 min 0,000 mm 0,0 UV-I 0 W/m 2,8 C 3,7 C 9,7 km/h (2 Bft) 100,00 %
29.02.2016 01:14 3,7 C 94 % 1009,5 hPa 0,0 l/m 7,0 km/h (2 Bft) O-NO 57 0 min 0,000 mm 0,0 UV-I 0 W/m 2,8 C 3,1 C 9,7 km/h (2 Bft) 94,12 %
29.02.2016 01:15 3,8 C 94 % 1009,4 hPa 0,0 l/m 7,2 km/h (2 Bft) O-NO 63 0 min 0,000 mm 0,0 UV-I 0 W/m 2,9 C 3,1 C 8,0 km/h (2 Bft) 100,00 %
29.02.2016 01:16 3,8 C 94 % 1009,5 hPa 0,0 l/m 7,3 km/h (2 Bft) O-NO 58 0 min 0,000 mm 0,0 UV-I 0 W/m 2,9 C 3,0 C 9,7 km/h (2 Bft) 95,65 %
29.02.2016 01:17 3,9 C 94 % 1009,5 hPa 0,0 l/m 8,1 km/h (2 Bft) O-NO 59 0 min 0,000 mm 0,0 UV-I 0 W/m 3,0 C 2,4 C 11,3 km/h (2 Bft) 100,00 %
29.02.2016 01:18 4,0 C 94 % 1009,5 hPa 0,0 l/m 9,1 km/h (2 Bft) O-NO 66 0 min 0,000 mm 0,0 UV-I 0 W/m 3,1 C 1,6 C 14,5 km/h (3 Bft) 100,00 %
29.02.2016 01:19 4,1 C 94 % 1009,5 hPa 0,0 l/m 7,0 km/h (2 Bft) NO 44 0 min 0,000 mm 0,0 UV-I 0 W/m 3,2 C 3,6 C 11,3 km/h (2 Bft) 100,00 %
29.02.2016 01:20 4,2 C 94 % 1009,5 hPa 0,0 l/m 9,3 km/h (2 Bft) NO 44 0 min 0,000 mm 0,0 UV-I 0 W/m 3,3 C 1,7 C 14,5 km/h (3 Bft) 100,00 %
29.02.2016 01:21 4,2 C 94 % 1009,5 hPa 0,0 l/m 7,3 km/h (2 Bft) NO 53 0 min 0,000 mm 0,0 UV-I 0 W/m 3,3 C 3,4 C 9,7 km/h (2 Bft) 100,00 %
29.02.2016 01:22 4,3 C 94 % 1009,5 hPa 0,0 l/m 8,0 km/h (2 Bft) NO 53 0 min 0,000 mm 0,0 UV-I 0 W/m 3,4 C 2,9 C 12,9 km/h (3 Bft) 100,00 %
29.02.2016 01:23 4,3 C 94 % 1009,4 hPa 0,0 l/m 9,3 km/h (2 Bft) O-NO 68 0 min 0,000 mm 0,0 UV-I 0 W/m 3,4 C 1,8 C 11,3 km/h (2 Bft) 96,15 %
29.02.2016 01:24 4,3 C 94 % 1009,4 hPa 0,0 l/m 8,9 km/h (2 Bft) NO 34 0 min 0,000 mm 0,0 UV-I 0 W/m 3,4 C 2,1 C 14,5 km/h (3 Bft) 100,00 %
29.02.2016 01:25 4,4 C 94 % 1009,4 hPa 0,0 l/m 9,1 km/h (2 Bft) O-NO 61 0 min 0,000 mm 0,0 UV-I 0 W/m 3,5 C 2,1 C 11,3 km/h (2 Bft) 95,83 %
29.02.2016 01:26 4,4 C 94 % 1009,4 hPa 0,0 l/m 11,0 km/h (2 Bft) NO 40 0 min 0,000 mm 0,0 UV-I 0 W/m 3,5 C 0,7 C 16,1 km/h (3 Bft) 96,15 %
29.02.2016 01:27 4,4 C 93 % 1009,4 hPa 0,0 l/m 7,5 km/h (2 Bft) NO 52 0 min 0,000 mm 0,0 UV-I 0 W/m 3,4 C 3,4 C 9,7 km/h (2 Bft) 91,67 %
29.02.2016 01:28 4,5 C 93 % 1009,4 hPa 0,0 l/m 6,1 km/h (2 Bft) O-NO 62 0 min 0,000 mm 0,0 UV-I 0 W/m 3,5 C 4,5 C 9,7 km/h (2 Bft) 100,00 %
29.02.2016 01:29 4,5 C 93 % 1009,4 hPa 0,0 l/m 8,1 km/h (2 Bft) N-NO 22 0 min 0,000 mm 0,0 UV-I 0 W/m 3,5 C 3,0 C 11,3 km/h (2 Bft) 100,00 %
29.02.2016 01:30 4,6 C 93 % 1009,4 hPa 0,0 l/m 6,4 km/h (2 Bft) NO 52 0 min 0,000 mm 0,0 UV-I 0 W/m 3,6 C 4,6 C 8,0 km/h (2 Bft) 100,00 %
29.02.2016 01:31 4,7 C 94 % 1009,4 hPa 0,0 l/m 6,8 km/h (2 Bft) O-NO 65 0 min 0,000 mm 0,0 UV-I 0 W/m 3,8 C 4,4 C 11,3 km/h (2 Bft) 100,00 %
29.02.2016 01:32 4,7 C 94 % 1009,4 hPa 0,0 l/m 11,5 km/h (2 Bft) O-NO 70 0 min 0,000 mm 0,0 UV-I 0 W/m 3,8 C 0,7 C 16,1 km/h (3 Bft) 100,00 %
29.02.2016 01:33 4,7 C 94 % 1009,4 hPa 0,0 l/m 15,3 km/h (3 Bft) O-NO 65 0 min 0,000 mm 0,0 UV-I 0 W/m 3,8 C -1,4 C 20,9 km/h (4 Bft) 100,00 %
29.02.2016 01:34 4,8 C 93 % 1009,4 hPa 0,0 l/m 12,5 km/h (3 Bft) NO 54 0 min 0,000 mm 0,0 UV-I 0 W/m 3,8 C 0,2 C 14,5 km/h (3 Bft) 100,00 %
29.02.2016 01:35 4,8 C 93 % 1009,4 hPa 0,0 l/m 11,7 km/h (2 Bft) NO 52 0 min 0,000 mm 0,0 UV-I 0 W/m 3,8 C 0,7 C 17,7 km/h (3 Bft) 96,55 %
29.02.2016 01:36 4,9 C 93 % 1009,4 hPa 0,0 l/m 15,9 km/h (3 Bft) NO 47 0 min 0,000 mm 0,0 UV-I 0 W/m 3,9 C -1,5 C 20,9 km/h (4 Bft) 100,00 %
29.02.2016 01:37 4,9 C 93 % 1009,4 hPa 0,0 l/m 13,1 km/h (3 Bft) O-NO 61 0 min 0,000 mm 0,0 UV-I 0 W/m 3,9 C -0,0 C 17,7 km/h (3 Bft) 100,00 %
29.02.2016 01:38 4,9 C 93 % 1009,4 hPa 0,0 l/m 17,9 km/h (3 Bft) O-NO 61 0 min 0,000 mm 0,0 UV-I 0 W/m 3,9 C -2,4 C 20,9 km/h (4 Bft) 100,00 %
29.02.2016 01:39 5,0 C 93 % 1009,4 hPa 0,0 l/m 14,8 km/h (3 Bft) O-NO 67 0 min 0,000 mm 0,0 UV-I 0 W/m 4,0 C -0,8 C 20,9 km/h (4 Bft) 100,00 %
29.02.2016 01:40 5,1 C 93 % 1009,4 hPa 0,0 l/m 13,2 km/h (3 Bft) NO 42 0 min 0,000 mm 0,0 UV-I 0 W/m 4,1 C 0,2 C 19,3 km/h (3 Bft) 98,32 %
29.02.2016 01:41 5,1 C 93 % 1009,4 hPa 0,0 l/m 15,5 km/h (3 Bft) NO 55 0 min 0,000 mm 0,0 UV-I 0 W/m 4,1 C -1,1 C 17,7 km/h (3 Bft) 95,12 %
29.02.2016 01:42 5,1 C 93 % 1009,4 hPa 0,0 l/m 14,2 km/h (3 Bft) O-NO 61 0 min 0,000 mm 0,0 UV-I 0 W/m 4,1 C -0,4 C 19,3 km/h (3 Bft) 96,30 %
29.02.2016 01:43 5,2 C 93 % 1009,5 hPa 0,0 l/m 14,8 km/h (3 Bft) O-NO 71 0 min 0,000 mm 0,0 UV-I 0 W/m 4,2 C -0,6 C 17,7 km/h (3 Bft) 100,00 %
29.02.2016 01:44 5,2 C 92 % 1009,5 hPa 0,0 l/m 16,2 km/h (3 Bft) NO 49 0 min 0,000 mm 0,0 UV-I 0 W/m 4,0 C -1,3 C 20,9 km/h (4 Bft) 100,00 %
29.02.2016 01:45 5,2 C 92 % 1009,5 hPa 0,0 l/m 14,1 km/h (3 Bft) NO 36 0 min 0,000 mm 0,0 UV-I 0 W/m 4,0 C -0,2 C 17,7 km/h (3 Bft) 95,65 %
29.02.2016 01:46 5,3 C 92 % 1009,5 hPa 0,0 l/m 14,2 km/h (3 Bft) NO 53 0 min 0,000 mm 0,0 UV-I 0 W/m 4,1 C -0,1 C 19,3 km/h (3 Bft) 100,00 %
29.02.2016 01:47 5,3 C 92 % 1009,5 hPa 0,0 l/m 14,5 km/h (3 Bft) O 84 0 min 0,000 mm 0,0 UV-I 0 W/m 4,1 C -0,3 C 20,9 km/h (4 Bft) 100,00 %
29.02.2016 01:48 5,3 C 92 % 1009,5 hPa 0,0 l/m 12,1 km/h (2 Bft) O-NO 61 0 min 0,000 mm 0,0 UV-I 0 W/m 4,1 C 1,0 C 17,7 km/h (3 Bft) 100,00 %
29.02.2016 01:49 5,3 C 92 % 1009,5 hPa 0,0 l/m 10,8 km/h (2 Bft) O 80 0 min 0,000 mm 0,0 UV-I 0 W/m 4,1 C 1,9 C 14,5 km/h (3 Bft) 100,00 %
29.02.2016 01:50 5,3 C 92 % 1009,5 hPa 0,0 l/m 11,2 km/h (2 Bft) NO 46 0 min 0,000 mm 0,0 UV-I 0 W/m 4,1 C 1,6 C 19,3 km/h (3 Bft) 100,00 %
29.02.2016 01:51 5,3 C 92 % 1009,5 hPa 0,0 l/m 13,3 km/h (3 Bft) O-NO 60 0 min 0,000 mm 0,0 UV-I 0 W/m 4,1 C 0,3 C 19,3 km/h (3 Bft) 100,00 %
29.02.2016 01:52 5,4 C 92 % 1009,5 hPa 0,0 l/m 14,6 km/h (3 Bft) NO 42 0 min 0,000 mm 0,0 UV-I 0 W/m 4,2 C -0,2 C 19,3 km/h (3 Bft) 100,00 %
29.02.2016 01:53 5,4 C 92 % 1009,5 hPa 0,0 l/m 14,7 km/h (3 Bft) NO 40 0 min 0,000 mm 0,0 UV-I 0 W/m 4,2 C -0,3 C 19,3 km/h (3 Bft) 100,00 %
29.02.2016 01:54 5,4 C 92 % 1009,4 hPa 0,0 l/m 16,3 km/h (3 Bft) O-NO 57 0 min 0,000 mm 0,0 UV-I 0 W/m 4,2 C -1,1 C 19,3 km/h (3 Bft) 100,00 %
29.02.2016 01:55 5,4 C 92 % 1009,4 hPa 0,0 l/m 15,4 km/h (3 Bft) NO 51 0 min 0,000 mm 0,0 UV-I 0 W/m 4,2 C -0,6 C 19,3 km/h (3 Bft) 100,00 %
29.02.2016 01:56 5,4 C 92 % 1009,4 hPa 0,0 l/m 14,0 km/h (3 Bft) O-NO 69 0 min 0,000 mm 0,0 UV-I 0 W/m 4,2 C 0,1 C 16,1 km/h (3 Bft) 100,00 %
29.02.2016 01:57 5,5 C 92 % 1009,4 hPa 0,0 l/m 14,9 km/h (3 Bft) O-NO 59 0 min 0,000 mm 0,0 UV-I 0 W/m 4,3 C -0,3 C 19,3 km/h (3 Bft) 100,00 %
29.02.2016 01:58 5,5 C 92 % 1009,4 hPa 0,0 l/m 15,1 km/h (3 Bft) NO 51 0 min 0,000 mm 0,0 UV-I 0 W/m 4,3 C -0,4 C 17,7 km/h (3 Bft) 100,00 %
29.02.2016 01:59 5,5 C 92 % 1009,4 hPa 0,0 l/m 16,0 km/h (3 Bft) O-NO 57 0 min 0,000 mm 0,0 UV-I 0 W/m 4,3 C -0,8 C 19,3 km/h (3 Bft) 100,00 %
29.02.2016 02:00 5,6 C 92 % 1009,4 hPa 0,0 l/m 17,0 km/h (3 Bft) O-NO 57 0 min 0,000 mm 0,0 UV-I 0 W/m 4,4 C -1,1 C 20,9 km/h (4 Bft) 100,00 %
29.02.2016 02:01 5,6 C 92 % 1009,4 hPa 0,0 l/m 17,7 km/h (3 Bft) NO 44 0 min 0,000 mm 0,0 UV-I 0 W/m 4,4 C -1,5 C 19,3 km/h (3 Bft) 96,88 %
29.02.2016 02:02 5,6 C 92 % 1009,3 hPa 0,0 l/m 17,2 km/h (3 Bft) NO 54 0 min 0,000 mm 0,0 UV-I 0 W/m 4,4 C -1,2 C 20,9 km/h (4 Bft) 100,00 %
29.02.2016 02:03 5,6 C 92 % 1009,3 hPa 0,0 l/m 15,1 km/h (3 Bft) O-NO 57 0 min 0,000 mm 0,0 UV-I 0 W/m 4,4 C -0,2 C 19,3 km/h (3 Bft) 100,00 %
29.02.2016 02:04 5,6 C 91 % 1009,3 hPa 0,0 l/m 17,8 km/h (3 Bft) O-NO 61 0 min 0,000 mm 0,0 UV-I 0 W/m 4,2 C -1,5 C 24,1 km/h (4 Bft) 100,00 %
29.02.2016 02:05 5,6 C 91 % 1009,3 hPa 0,0 l/m 18,0 km/h (3 Bft) O-NO 59 0 min 0,000 mm 0,0 UV-I 0 W/m 4,2 C -1,6 C 22,5 km/h (4 Bft) 100,00 %
29.02.2016 02:06 5,6 C 91 % 1009,3 hPa 0,0 l/m 17,9 km/h (3 Bft) NO 50 0 min 0,000 mm 0,0 UV-I 0 W/m 4,2 C -1,5 C 24,1 km/h (4 Bft) 100,00 %
29.02.2016 02:07 5,6 C 91 % 1009,3 hPa 0,0 l/m 19,8 km/h (3 Bft) NO 52 0 min 0,000 mm 0,0 UV-I 0 W/m 4,2 C -2,3 C 22,5 km/h (4 Bft) 100,00 %
29.02.2016 02:08 5,7 C 91 % 1009,3 hPa 0,0 l/m 20,0 km/h (4 Bft) NO 55 0 min 0,000 mm 0,0 UV-I 0 W/m 4,3 C -2,3 C 27,4 km/h (4 Bft) 100,00 %
29.02.2016 02:09 5,7 C 91 % 1009,2 hPa 0,0 l/m 15,9 km/h (3 Bft) NO 36 0 min 0,000 mm 0,0 UV-I 0 W/m 4,3 C -0,5 C 20,9 km/h (4 Bft) 92,86 %
29.02.2016 02:10 5,7 C 91 % 1009,2 hPa 0,0 l/m 19,7 km/h (3 Bft) N-NO 17 0 min 0,000 mm 0,0 UV-I 0 W/m 4,3 C -2,2 C 22,5 km/h (4 Bft) 100,00 %
29.02.2016 02:11 5,8 C 91 % 1009,1 hPa 0,0 l/m 20,8 km/h (4 Bft) N-NO 31 0 min 0,000 mm 0,0 UV-I 0 W/m 4,4 C -2,4 C 25,7 km/h (4 Bft) 98,52 %
29.02.2016 02:12 5,8 C 91 % 1009,2 hPa 0,0 l/m 18,0 km/h (3 Bft) N-NO 28 0 min 0,000 mm 0,0 UV-I 0 W/m 4,4 C -1,3 C 24,1 km/h (4 Bft) 100,00 %
29.02.2016 02:13 5,8 C 91 % 1009,1 hPa 0,0 l/m 15,5 km/h (3 Bft) NO 45 0 min 0,000 mm 0,0 UV-I 0 W/m 4,4 C -0,2 C 22,5 km/h (4 Bft) 96,15 %
29.02.2016 02:14 5,8 C 91 % 1009,1 hPa 0,0 l/m 11,6 km/h (2 Bft) N-NO 23 0 min 0,000 mm 0,0 UV-I 0 W/m 4,4 C 1,9 C 16,1 km/h (3 Bft) 100,00 %
29.02.2016 02:15 5,8 C 91 % 1009,1 hPa 0,0 l/m 8,0 km/h (2 Bft) N-NO 32 0 min 0,000 mm 0,0 UV-I 0 W/m 4,4 C 4,4 C 12,9 km/h (3 Bft) 100,00 %
29.02.2016 02:16 5,8 C 91 % 1009,1 hPa 0,0 l/m 11,1 km/h (2 Bft) NO 35 0 min 0,000 mm 0,0 UV-I 0 W/m 4,4 C 2,2 C 24,1 km/h (4 Bft) 100,00 %
29.02.2016 02:17 5,8 C 91 % 1009,1 hPa 0,0 l/m 12,2 km/h (2 Bft) N-NO 17 0 min 0,000 mm 0,0 UV-I 0 W/m 4,4 C 1,6 C 17,7 km/h (3 Bft) 100,00 %
29.02.2016 02:18 5,8 C 91 % 1009,0 hPa 0,0 l/m 13,8 km/h (3 Bft) N-NO 13 0 min 0,000 mm 0,0 UV-I 0 W/m 4,4 C 0,7 C 16,1 km/h (3 Bft) 95,83 %
29.02.2016 02:19 5,8 C 91 % 1009,0 hPa 0,0 l/m 16,6 km/h (3 Bft) N-NO 26 0 min 0,000 mm 0,0 UV-I 0 W/m 4,4 C -0,7 C 22,5 km/h (4 Bft) 95,65 %
29.02.2016 02:20 5,8 C 91 % 1009,0 hPa 0,0 l/m 13,5 km/h (3 Bft) N-NO 21 0 min 0,000 mm 0,0 UV-I 0 W/m 4,4 C 0,8 C 17,7 km/h (3 Bft) 100,00 %
29.02.2016 02:21 5,8 C 91 % 1008,9 hPa 0,0 l/m 13,9 km/h (3 Bft) N-NO 13 0 min 0,000 mm 0,0 UV-I 0 W/m 4,4 C 0,6 C 19,3 km/h (3 Bft) 100,00 %
29.02.2016 02:22 5,8 C 91 % 1008,9 hPa 0,0 l/m 13,4 km/h (3 Bft) N-NW 332 0 min 0,000 mm 0,0 UV-I 0 W/m 4,4 C 0,9 C 17,7 km/h (3 Bft) 100,00 %
29.02.2016 02:23 5,8 C 91 % 1008,8 hPa 0,0 l/m 16,1 km/h (3 Bft) NO 54 0 min 0,000 mm 0,0 UV-I 0 W/m 4,4 C -0,5 C 22,5 km/h (4 Bft) 96,15 %
29.02.2016 02:24 5,8 C 91 % 1008,8 hPa 0,0 l/m 11,9 km/h (2 Bft) N-NO 29 0 min 0,000 mm 0,0 UV-I 0 W/m 4,4 C 1,7 C 17,7 km/h (3 Bft) 100,00 %
29.02.2016 02:25 5,8 C 91 % 1008,9 hPa 0,0 l/m 13,5 km/h (3 Bft) N-NO 28 0 min 0,000 mm 0,0 UV-I 0 W/m 4,4 C 0,8 C 16,1 km/h (3 Bft) 96,55 %
29.02.2016 02:26 5,8 C 91 % 1008,8 hPa 0,0 l/m 11,8 km/h (2 Bft) NO 40 0 min 0,000 mm 0,0 UV-I 0 W/m 4,4 C 1,8 C 22,5 km/h (4 Bft) 100,00 %
29.02.2016 02:27 5,8 C 91 % 1008,8 hPa 0,0 l/m 18,3 km/h (3 Bft) NO 42 0 min 0,000 mm 0,0 UV-I 0 W/m 4,4 C -1,5 C 22,5 km/h (4 Bft) 100,00 %
29.02.2016 02:28 5,8 C 91 % 1008,8 hPa 0,0 l/m 13,4 km/h (3 Bft) N 11 0 min 0,000 mm 0,0 UV-I 0 W/m 4,4 C 0,9 C 20,9 km/h (4 Bft) 100,00 %
29.02.2016 02:29 5,7 C 91 % 1008,7 hPa 0,0 l/m 9,4 km/h (2 Bft) NO 45 0 min 0,000 mm 0,0 UV-I 0 W/m 4,3 C 3,3 C 16,1 km/h (3 Bft) 100,00 %
29.02.2016 02:30 5,7 C 91 % 1008,7 hPa 0,0 l/m 12,7 km/h (3 Bft) NO 40 0 min 0,000 mm 0,0 UV-I 0 W/m 4,3 C 1,2 C 19,3 km/h (3 Bft) 95,65 %
29.02.2016 02:31 5,7 C 91 % 1008,7 hPa 0,0 l/m 17,1 km/h (3 Bft) NO 47 0 min 0,000 mm 0,0 UV-I 0 W/m 4,3 C -1,1 C 20,9 km/h (4 Bft) 100,00 %
29.02.2016 02:32 5,7 C 91 % 1008,8 hPa 0,0 l/m 8,0 km/h (2 Bft) O-NO 78 0 min 0,000 mm 0,0 UV-I 0 W/m 4,3 C 4,3 C 12,9 km/h (3 Bft) 100,00 %
29.02.2016 02:33 5,7 C 91 % 1008,8 hPa 0,0 l/m 10,7 km/h (2 Bft) NO 34 0 min 0,000 mm 0,0 UV-I 0 W/m 4,3 C 2,4 C 20,9 km/h (4 Bft) 100,00 %
29.02.2016 02:34 5,8 C 91 % 1008,9 hPa 0,0 l/m 13,6 km/h (3 Bft) O-NO 57 0 min 0,000 mm 0,0 UV-I 0 W/m 4,4 C 0,8 C 17,7 km/h (3 Bft) 100,00 %
29.02.2016 02:35 5,8 C 91 % 1008,9 hPa 0,0 l/m 7,6 km/h (2 Bft) O-NO 61 0 min 0,000 mm 0,0 UV-I 0 W/m 4,4 C 4,8 C 11,3 km/h (2 Bft) 100,00 %
29.02.2016 02:36 5,8 C 91 % 1008,9 hPa 0,0 l/m 19,9 km/h (4 Bft) O-NO 65 0 min 0,000 mm 0,0 UV-I 0 W/m 4,4 C -2,1 C 27,4 km/h (4 Bft) 96,15 %
29.02.2016 02:37 5,8 C 91 % 1008,9 hPa 0,0 l/m 13,3 km/h (3 Bft) NO 42 0 min 0,000 mm 0,0 UV-I 0 W/m 4,4 C 0,9 C 19,3 km/h (3 Bft) 96,67 %
29.02.2016 02:38 5,8 C 91 % 1008,9 hPa 0,0 l/m 7,3 km/h (2 Bft) O-NO 66 0 min 0,000 mm 0,0 UV-I 0 W/m 4,4 C 5,0 C 11,3 km/h (2 Bft) 100,00 %
29.02.2016 02:39 5,8 C 91 % 1008,8 hPa 0,0 l/m 16,4 km/h (3 Bft) O-NO 73 0 min 0,000 mm 0,0 UV-I 0 W/m 4,4 C -0,6 C 25,7 km/h (4 Bft) 100,00 %
29.02.2016 02:40 5,9 C 91 % 1008,8 hPa 0,0 l/m 12,2 km/h (2 Bft) O-NO 65 0 min 0,000 mm 0,0 UV-I 0 W/m 4,5 C 1,7 C 22,5 km/h (4 Bft) 97,73 %
29.02.2016 02:41 5,9 C 91 % 1008,8 hPa 0,0 l/m 9,8 km/h (2 Bft) NO 55 0 min 0,000 mm 0,0 UV-I 0 W/m 4,5 C 3,2 C 16,1 km/h (3 Bft) 91,67 %
29.02.2016 02:42 5,9 C 91 % 1008,9 hPa 0,0 l/m 8,9 km/h (2 Bft) N-NO 29 0 min 0,000 mm 0,0 UV-I 0 W/m 4,5 C 3,9 C 12,9 km/h (3 Bft) 96,55 %
29.02.2016 02:43 5,9 C 91 % 1008,8 hPa 0,0 l/m 13,9 km/h (3 Bft) O-NO 61 0 min 0,000 mm 0,0 UV-I 0 W/m 4,5 C 0,7 C 19,3 km/h (3 Bft) 100,00 %
29.02.2016 02:44 5,9 C 91 % 1008,9 hPa 0,0 l/m 19,4 km/h (3 Bft) O-NO 77 0 min 0,000 mm 0,0 UV-I 0 W/m 4,5 C -1,8 C 29,0 km/h (5 Bft) 100,00 %
29.02.2016 02:45 5,9 C 91 % 1008,8 hPa 0,0 l/m 18,4 km/h (3 Bft) NO 51 0 min 0,000 mm 0,0 UV-I 0 W/m 4,5 C -1,4 C 24,1 km/h (4 Bft) 95,65 %
29.02.2016 02:46 5,9 C 91 % 1008,8 hPa 0,0 l/m 16,7 km/h (3 Bft) NO 49 0 min 0,000 mm 0,0 UV-I 0 W/m 4,5 C -0,6 C 20,9 km/h (4 Bft) 100,00 %
29.02.2016 02:47 5,9 C 91 % 1008,7 hPa 0,0 l/m 17,8 km/h (3 Bft) NO 38 0 min 0,000 mm 0,0 UV-I 0 W/m 4,5 C -1,1 C 25,7 km/h (4 Bft) 96,15 %
29.02.2016 02:48 6,0 C 91 % 1008,7 hPa 0,0 l/m 20,3 km/h (4 Bft) NO 50 0 min 0,000 mm 0,0 UV-I 0 W/m 4,6 C -2,0 C 27,4 km/h (4 Bft) 95,83 %
29.02.2016 02:49 6,0 C 91 % 1008,7 hPa 0,0 l/m 18,0 km/h (3 Bft) O-NO 66 0 min 0,000 mm 0,0 UV-I 0 W/m 4,6 C -1,1 C 25,7 km/h (4 Bft) 88,46 %
29.02.2016 02:50 6,0 C 91 % 1008,7 hPa 0,0 l/m 20,8 km/h (4 Bft) NO 38 0 min 0,000 mm 0,0 UV-I 0 W/m 4,6 C -2,2 C 27,4 km/h (4 Bft) 100,00 %
29.02.2016 02:51 6,0 C 91 % 1008,7 hPa 0,0 l/m 20,9 km/h (4 Bft) NO 48 0 min 0,000 mm 0,0 UV-I 0 W/m 4,6 C -2,2 C 27,4 km/h (4 Bft) 82,61 %
29.02.2016 02:52 6,1 C 91 % 1008,7 hPa 0,0 l/m 19,6 km/h (3 Bft) O 88 0 min 0,000 mm 0,0 UV-I 0 W/m 4,7 C -1,6 C 25,7 km/h (4 Bft) 100,00 %
29.02.2016 02:53 6,1 C 91 % 1008,7 hPa 0,0 l/m 17,4 km/h (3 Bft) NO 38 0 min 0,000 mm 0,0 UV-I 0 W/m 4,7 C -0,7 C 25,7 km/h (4 Bft) 95,65 %
29.02.2016 02:54 6,1 C 91 % 1008,6 hPa 0,0 l/m 13,9 km/h (3 Bft) NO 45 0 min 0,000 mm 0,0 UV-I 0 W/m 4,7 C 1,0 C 20,9 km/h (4 Bft) 100,00 %
29.02.2016 02:55 6,1 C 91 % 1008,6 hPa 0,0 l/m 20,8 km/h (4 Bft) O-NO 65 0 min 0,000 mm 0,0 UV-I 0 W/m 4,7 C -2,0 C 25,7 km/h (4 Bft) 92,86 %
29.02.2016 02:56 6,1 C 91 % 1008,6 hPa 0,0 l/m 24,1 km/h (4 Bft) NO 51 0 min 0,000 mm 0,0 UV-I 0 W/m 4,7 C -3,2 C 30,6 km/h (5 Bft) 100,00 %
29.02.2016 02:57 6,1 C 91 % 1008,6 hPa 0,0 l/m 18,7 km/h (3 Bft) O-NO 62 0 min 0,000 mm 0,0 UV-I 0 W/m 4,7 C -1,2 C 25,7 km/h (4 Bft) 96,15 %
29.02.2016 02:58 6,1 C 91 % 1008,5 hPa 0,0 l/m 14,0 km/h (3 Bft) O-NO 78 0 min 0,000 mm 0,0 UV-I 0 W/m 4,7 C 0,9 C 17,7 km/h (3 Bft) 95,83 %
29.02.2016 02:59 6,1 C 91 % 1008,5 hPa 0,0 l/m 17,9 km/h (3 Bft) O-NO 61 0 min 0,000 mm 0,0 UV-I 0 W/m 4,7 C -0,9 C 22,5 km/h (4 Bft) 100,00 %
29.02.2016 03:00 6,1 C 90 % 1008,5 hPa 0,0 l/m 23,5 km/h (4 Bft) O-NO 63 0 min 0,025 mm 0,0 UV-I 0 W/m 4,6 C -3,0 C 35,4 km/h (5 Bft) 95,83 %
29.02.2016 03:02 6,1 C 91 % 1008,5 hPa 0,0 l/m 18,1 km/h (3 Bft) O-NO 57 0 min 0,000 mm 0,0 UV-I 0 W/m 4,7 C -1,0 C 24,1 km/h (4 Bft) 97,56 %
29.02.2016 03:03 6,1 C 90 % 1008,5 hPa 0,0 l/m 18,3 km/h (3 Bft) O-NO 77 0 min 0,000 mm 0,0 UV-I 0 W/m 4,6 C -1,1 C 27,4 km/h (4 Bft) 96,55 %
29.02.2016 03:04 6,1 C 90 % 1008,4 hPa 0,0 l/m 24,6 km/h (4 Bft) O-NO 74 0 min 0,000 mm 0,0 UV-I 0 W/m 4,6 C -3,3 C 30,6 km/h (5 Bft) 100,00 %
29.02.2016 03:05 6,1 C 91 % 1008,4 hPa 0,0 l/m 22,2 km/h (4 Bft) O-NO 69 0 min 0,000 mm 0,0 UV-I 0 W/m 4,7 C -2,5 C 32,2 km/h (5 Bft) 100,00 %
29.02.2016 03:06 6,1 C 91 % 1008,4 hPa 0,0 l/m 15,3 km/h (3 Bft) O 86 0 min 0,000 mm 0,0 UV-I 0 W/m 4,7 C 0,3 C 20,9 km/h (4 Bft) 96,88 %
29.02.2016 03:07 6,1 C 91 % 1008,4 hPa 0,0 l/m 17,8 km/h (3 Bft) O-NO 65 0 min 0,000 mm 0,0 UV-I 0 W/m 4,7 C -0,9 C 29,0 km/h (5 Bft) 100,00 %
29.02.2016 03:08 6,2 C 90 % 1008,4 hPa 0,0 l/m 21,0 km/h (4 Bft) NO 47 0 min 0,000 mm 0,0 UV-I 0 W/m 4,7 C -2,0 C 32,2 km/h (5 Bft) 96,88 %
29.02.2016 03:09 6,2 C 90 % 1008,4 hPa 0,0 l/m 25,9 km/h (4 Bft) O 80 0 min 0,000 mm 0,0 UV-I 0 W/m 4,7 C -3,6 C 35,4 km/h (5 Bft) 96,30 %
29.02.2016 03:10 6,2 C 90 % 1008,4 hPa 0,0 l/m 26,3 km/h (4 Bft) NO 41 0 min 0,000 mm 0,0 UV-I 0 W/m 4,7 C -3,7 C 33,8 km/h (5 Bft) 100,00 %
29.02.2016 03:11 6,2 C 90 % 1008,4 hPa 0,0 l/m 27,1 km/h (4 Bft) O-NO 57 0 min 0,000 mm 0,0 UV-I 0 W/m 4,7 C -3,9 C 35,4 km/h (5 Bft) 93,33 %
29.02.2016 03:12 6,2 C 91 % 1008,5 hPa 0,0 l/m 28,1 km/h (4 Bft) O-NO 63 0 min 0,000 mm 0,0 UV-I 0 W/m 4,8 C -4,2 C 35,4 km/h (5 Bft) 100,00 %
29.02.2016 03:13 6,2 C 90 % 1008,4 hPa 0,0 l/m 26,2 km/h (4 Bft) O-NO 76 0 min 0,000 mm 0,0 UV-I 0 W/m 4,7 C -3,7 C 32,2 km/h (5 Bft) 96,30 %
29.02.2016 03:14 6,2 C 90 % 1008,4 hPa 0,0 l/m 21,5 km/h (4 Bft) NO 48 0 min 0,000 mm 0,0 UV-I 0 W/m 4,7 C -2,2 C 27,4 km/h (4 Bft) 96,15 %
29.02.2016 03:15 6,2 C 90 % 1008,4 hPa 0,0 l/m 26,1 km/h (4 Bft) O-NO 63 0 min 0,000 mm 0,0 UV-I 0 W/m 4,7 C -3,6 C 32,2 km/h (5 Bft) 100,00 %
29.02.2016 03:16 6,2 C 91 % 1008,4 hPa 0,0 l/m 21,5 km/h (4 Bft) O-NO 66 0 min 0,000 mm 0,0 UV-I 0 W/m 4,8 C -2,2 C 30,6 km/h (5 Bft) 96,15 %
29.02.2016 03:17 6,2 C 90 % 1008,4 hPa 0,0 l/m 17,9 km/h (3 Bft) O-NO 65 0 min 0,000 mm 0,0 UV-I 0 W/m 4,7 C -0,8 C 24,1 km/h (4 Bft) 98,23 %
29.02.2016 03:18 6,2 C 90 % 1008,4 hPa 0,0 l/m 22,8 km/h (4 Bft) O-NO 67 0 min 0,000 mm 0,0 UV-I 0 W/m 4,7 C -2,6 C 30,6 km/h (5 Bft) 97,56 %
29.02.2016 03:19 6,2 C 91 % 1008,4 hPa 0,0 l/m 26,9 km/h (4 Bft) N-NO 31 0 min 0,000 mm 0,0 UV-I 0 W/m 4,8 C -3,9 C 37,0 km/h (5 Bft) 100,00 %
29.02.2016 03:20 6,2 C 91 % 1008,3 hPa 0,0 l/m 24,9 km/h (4 Bft) O-NO 68 0 min 0,000 mm 0,0 UV-I 0 W/m 4,8 C -3,3 C 33,8 km/h (5 Bft) 98,24 %
29.02.2016 03:21 6,2 C 90 % 1008,3 hPa 0,0 l/m 26,6 km/h (4 Bft) NO 55 0 min 0,000 mm 0,0 UV-I 0 W/m 4,7 C -3,8 C 38,6 km/h (5 Bft) 97,73 %
29.02.2016 03:22 6,2 C 90 % 1008,3 hPa 0,0 l/m 19,2 km/h (3 Bft) NO 53 0 min 0,000 mm 0,0 UV-I 0 W/m 4,7 C -1,3 C 27,4 km/h (4 Bft) 92,31 %
29.02.2016 03:23 6,2 C 90 % 1008,3 hPa 0,0 l/m 22,5 km/h (4 Bft) O-NO 63 0 min 0,000 mm 0,0 UV-I 0 W/m 4,7 C -2,5 C 29,0 km/h (5 Bft) 100,00 %
29.02.2016 03:24 6,3 C 90 % 1008,3 hPa 0,0 l/m 19,5 km/h (3 Bft) O 84 0 min 0,000 mm 0,0 UV-I 0 W/m 4,8 C -1,3 C 25,7 km/h (4 Bft) 100,00 %
29.02.2016 03:25 6,3 C 90 % 1008,3 hPa 0,0 l/m 23,8 km/h (4 Bft) O-NO 71 0 min 0,000 mm 0,0 UV-I 0 W/m 4,8 C -2,8 C 30,6 km/h (5 Bft) 96,15 %
29.02.2016 03:26 6,3 C 90 % 1008,3 hPa 0,0 l/m 17,9 km/h (3 Bft) O-NO 74 0 min 0,000 mm 0,0 UV-I 0 W/m 4,8 C -0,7 C 24,1 km/h (4 Bft) 100,00 %
29.02.2016 03:27 6,3 C 90 % 1008,3 hPa 0,0 l/m 20,3 km/h (4 Bft) NO 49 0 min 0,000 mm 0,0 UV-I 0 W/m 4,8 C -1,6 C 27,4 km/h (4 Bft) 100,00 %
29.02.2016 03:28 6,3 C 90 % 1008,3 hPa 0,0 l/m 16,9 km/h (3 Bft) O 93 0 min 0,000 mm 0,0 UV-I 0 W/m 4,8 C -0,2 C 25,7 km/h (4 Bft) 100,00 %
29.02.2016 03:29 6,2 C 90 % 1008,3 hPa 0,0 l/m 20,6 km/h (4 Bft) NO 51 0 min 0,000 mm 0,0 UV-I 0 W/m 4,7 C -1,8 C 29,0 km/h (5 Bft) 90,91 %
29.02.2016 03:30 6,2 C 90 % 1008,2 hPa 0,0 l/m 17,3 km/h (3 Bft) O 80 0 min 0,000 mm 0,0 UV-I 0 W/m 4,7 C -0,5 C 20,9 km/h (4 Bft) 100,00 %
29.02.2016 03:31 6,2 C 90 % 1008,2 hPa 0,0 l/m 17,6 km/h (3 Bft) NO 51 0 min 0,000 mm 0,0 UV-I 0 W/m 4,7 C -0,7 C 22,5 km/h (4 Bft) 100,00 %
29.02.2016 03:32 6,2 C 90 % 1008,2 hPa 0,0 l/m 25,2 km/h (4 Bft) O-NO 57 0 min 0,000 mm 0,0 UV-I 0 W/m 4,7 C -3,4 C 37,0 km/h (5 Bft) 100,00 %
29.02.2016 03:33 6,2 C 90 % 1008,1 hPa 0,0 l/m 25,3 km/h (4 Bft) O-NO 61 0 min 0,000 mm 0,0 UV-I 0 W/m 4,7 C -3,4 C 35,4 km/h (5 Bft) 100,00 %
29.02.2016 03:34 6,3 C 90 % 1008,1 hPa 0,0 l/m 22,7 km/h (4 Bft) O-NO 63 0 min 0,000 mm 0,0 UV-I 0 W/m 4,8 C -2,5 C 29,0 km/h (5 Bft) 100,00 %
29.02.2016 03:35 6,3 C 90 % 1008,1 hPa 0,0 l/m 24,6 km/h (4 Bft) N-NO 26 0 min 0,000 mm 0,0 UV-I 0 W/m 4,8 C -3,1 C 33,8 km/h (5 Bft) 100,00 %
29.02.2016 03:36 6,3 C 90 % 1008,2 hPa 0,0 l/m 26,2 km/h (4 Bft) O-NO 65 0 min 0,000 mm 0,0 UV-I 0 W/m 4,8 C -3,5 C 33,8 km/h (5 Bft) 100,00 %
29.02.2016 03:37 6,3 C 90 % 1008,1 hPa 0,0 l/m 23,8 km/h (4 Bft) O-NO 68 0 min 0,000 mm 0,0 UV-I 0 W/m 4,8 C -2,8 C 45,1 km/h (6 Bft) 100,00 %
29.02.2016 03:38 6,3 C 90 % 1008,0 hPa 0,0 l/m 29,0 km/h (5 Bft) O-NO 78 0 min 0,000 mm 0,0 UV-I 0 W/m 4,8 C -4,3 C 40,2 km/h (6 Bft) 100,00 %
29.02.2016 03:39 6,3 C 90 % 1008,1 hPa 0,0 l/m 29,3 km/h (5 Bft) NO 54 0 min 0,000 mm 0,0 UV-I 0 W/m 4,8 C -4,4 C 40,2 km/h (6 Bft) 96,88 %
29.02.2016 03:40 6,3 C 90 % 1008,0 hPa 0,0 l/m 31,9 km/h (5 Bft) O-NO 66 0 min 0,000 mm 0,0 UV-I 0 W/m 4,8 C -5,0 C 49,9 km/h (6 Bft) 100,00 %
29.02.2016 03:41 6,3 C 90 % 1008,0 hPa 0,0 l/m 31,5 km/h (5 Bft) O-NO 78 0 min 0,000 mm 0,0 UV-I 0 W/m 4,8 C -4,9 C 38,6 km/h (5 Bft) 100,00 %
29.02.2016 03:42 6,3 C 90 % 1008,1 hPa 0,0 l/m 35,8 km/h (5 Bft) O-NO 69 0 min 0,000 mm 0,0 UV-I 0 W/m 4,8 C -5,8 C 49,9 km/h (6 Bft) 100,00 %
29.02.2016 03:43 6,3 C 90 % 1008,0 hPa 0,0 l/m 26,4 km/h (4 Bft) O 90 0 min 0,000 mm 0,0 UV-I 0 W/m 4,8 C -3,6 C 33,8 km/h (5 Bft) 100,00 %
29.02.2016 03:44 6,3 C 90 % 1008,0 hPa 0,0 l/m 23,1 km/h (4 Bft) O 86 0 min 0,000 mm 0,0 UV-I 0 W/m 4,8 C -2,6 C 30,6 km/h (5 Bft) 98,31 %
29.02.2016 03:45 6,3 C 90 % 1008,1 hPa 0,0 l/m 26,5 km/h (4 Bft) O-NO 65 0 min 0,000 mm 0,0 UV-I 0 W/m 4,8 C -3,6 C 32,2 km/h (5 Bft) 100,00 %
29.02.2016 03:46 6,3 C 90 % 1008,1 hPa 0,0 l/m 25,3 km/h (4 Bft) O-NO 78 0 min 0,000 mm 0,0 UV-I 0 W/m 4,8 C -3,3 C 37,0 km/h (5 Bft) 92,86 %
29.02.2016 03:47 6,3 C 90 % 1008,1 hPa 0,0 l/m 27,1 km/h (4 Bft) O 91 0 min 0,000 mm 0,0 UV-I 0 W/m 4,8 C -3,8 C 37,0 km/h (5 Bft) 100,00 %
29.02.2016 03:48 6,3 C 90 % 1008,1 hPa 0,0 l/m 29,0 km/h (5 Bft) O 94 0 min 0,000 mm 0,0 UV-I 0 W/m 4,8 C -4,3 C 38,6 km/h (5 Bft) 93,10 %
29.02.2016 03:49 6,3 C 90 % 1008,1 hPa 0,0 l/m 34,2 km/h (5 Bft) O-NO 74 0 min 0,000 mm 0,0 UV-I 0 W/m 4,8 C -5,5 C 41,8 km/h (6 Bft) 93,33 %
29.02.2016 03:50 6,3 C 90 % 1008,1 hPa 0,0 l/m 29,0 km/h (5 Bft) O-NO 70 0 min 0,000 mm 0,0 UV-I 0 W/m 4,8 C -4,3 C 35,4 km/h (5 Bft) 96,15 %
29.02.2016 03:51 6,3 C 90 % 1008,1 hPa 0,0 l/m 24,9 km/h (4 Bft) O-NO 62 0 min 0,000 mm 0,0 UV-I 0 W/m 4,8 C -3,2 C 32,2 km/h (5 Bft) 100,00 %
29.02.2016 03:52 6,3 C 90 % 1008,1 hPa 0,0 l/m 24,5 km/h (4 Bft) O-NO 67 0 min 0,000 mm 0,0 UV-I 0 W/m 4,8 C -3,0 C 29,0 km/h (5 Bft) 100,00 %
29.02.2016 03:53 6,3 C 90 % 1008,1 hPa 0,0 l/m 27,3 km/h (4 Bft) O-NO 74 0 min 0,000 mm 0,0 UV-I 0 W/m 4,8 C -3,8 C 38,6 km/h (5 Bft) 100,00 %
29.02.2016 03:54 6,3 C 90 % 1008,1 hPa 0,0 l/m 27,3 km/h (4 Bft) O-NO 63 0 min 0,000 mm 0,0 UV-I 0 W/m 4,8 C -3,8 C 35,4 km/h (5 Bft) 100,00 %
29.02.2016 03:55 6,3 C 90 % 1008,1 hPa 0,0 l/m 30,7 km/h (5 Bft) O 88 0 min 0,000 mm 0,0 UV-I 0 W/m 4,8 C -4,7 C 43,5 km/h (6 Bft) 100,00 %
29.02.2016 03:56 6,3 C 90 % 1008,1 hPa 0,0 l/m 30,3 km/h (5 Bft) O-NO 58 0 min 0,000 mm 0,0 UV-I 0 W/m 4,8 C -4,6 C 46,7 km/h (6 Bft) 92,31 %
29.02.2016 03:57 6,3 C 90 % 1008,0 hPa 0,0 l/m 25,7 km/h (4 Bft) O 93 0 min 0,000 mm 0,0 UV-I 0 W/m 4,8 C -3,4 C 32,2 km/h (5 Bft) 100,00 %
29.02.2016 03:58 6,3 C 90 % 1008,1 hPa 0,0 l/m 25,0 km/h (4 Bft) O 97 0 min 0,000 mm 0,0 UV-I 0 W/m 4,8 C -3,2 C 29,0 km/h (5 Bft) 96,55 %
29.02.2016 03:59 6,3 C 90 % 1008,1 hPa 0,0 l/m 25,3 km/h (4 Bft) NO 51 0 min 0,000 mm 0,0 UV-I 0 W/m 4,8 C -3,3 C 32,2 km/h (5 Bft) 100,00 %
29.02.2016 04:00 6,3 C 90 % 1008,1 hPa 0,0 l/m 32,1 km/h (5 Bft) O-NO 64 0 min 0,000 mm 0,0 UV-I 0 W/m 4,8 C -5,0 C 38,6 km/h (5 Bft) 100,00 %
29.02.2016 04:01 6,3 C 90 % 1008,1 hPa 0,0 l/m 25,2 km/h (4 Bft) NO 43 0 min 0,026 mm 0,0 UV-I 0 W/m 4,8 C -3,2 C 40,2 km/h (6 Bft) 100,00 %
29.02.2016 04:02 6,3 C 90 % 1008,1 hPa 0,0 l/m 31,8 km/h (5 Bft) O-NO 61 0 min 0,000 mm 0,0 UV-I 0 W/m 4,8 C -5,0 C 40,2 km/h (6 Bft) 95,83 %
29.02.2016 04:03 6,3 C 90 % 1008,1 hPa 0,0 l/m 26,1 km/h (4 Bft) O-NO 78 0 min 0,000 mm 0,0 UV-I 0 W/m 4,8 C -3,5 C 32,2 km/h (5 Bft) 100,00 %
29.02.2016 04:04 6,3 C 90 % 1008,1 hPa 0,0 l/m 30,2 km/h (5 Bft) O-NO 66 0 min 0,000 mm 0,0 UV-I 0 W/m 4,8 C -4,6 C 40,2 km/h (6 Bft) 100,00 %
29.02.2016 04:05 6,3 C 90 % 1008,1 hPa 0,0 l/m 31,8 km/h (5 Bft) NO 52 0 min 0,000 mm 0,0 UV-I 0 W/m 4,8 C -5,0 C 40,2 km/h (6 Bft) 100,00 %
29.02.2016 04:06 6,3 C 90 % 1008,1 hPa 0,0 l/m 31,9 km/h (5 Bft) O-NO 66 0 min 0,000 mm 0,0 UV-I 0 W/m 4,8 C -5,0 C 43,5 km/h (6 Bft) 100,00 %
29.02.2016 04:07 6,3 C 90 % 1008,1 hPa 0,0 l/m 31,0 km/h (5 Bft) O 86 0 min 0,000 mm 0,0 UV-I 0 W/m 4,8 C -4,8 C 40,2 km/h (6 Bft) 100,00 %
29.02.2016 04:08 6,3 C 90 % 1008,1 hPa 0,0 l/m 27,1 km/h (4 Bft) O-NO 70 0 min 0,000 mm 0,0 UV-I 0 W/m 4,8 C -3,8 C 35,4 km/h (5 Bft) 100,00 %
29.02.2016 04:09 6,3 C 90 % 1008,1 hPa 0,0 l/m 31,3 km/h (5 Bft) O 82 0 min 0,000 mm 0,0 UV-I 0 W/m 4,8 C -4,9 C 38,6 km/h (5 Bft) 100,00 %
29.02.2016 04:10 6,3 C 90 % 1008,1 hPa 0,0 l/m 28,3 km/h (4 Bft) NO 54 0 min 0,000 mm 0,0 UV-I 0 W/m 4,8 C -4,1 C 40,2 km/h (6 Bft) 100,00 %
29.02.2016 04:11 6,3 C 90 % 1008,2 hPa 0,0 l/m 28,4 km/h (4 Bft) O 83 0 min 0,000 mm 0,0 UV-I 0 W/m 4,8 C -4,1 C 41,8 km/h (6 Bft) 100,00 %
29.02.2016 04:12 6,3 C 90 % 1008,2 hPa 0,0 l/m 27,1 km/h (4 Bft) O 90 0 min 0,000 mm 0,0 UV-I 0 W/m 4,8 C -3,8 C 38,6 km/h (5 Bft) 100,00 %
29.02.2016 04:13 6,3 C 90 % 1008,2 hPa 0,0 l/m 29,0 km/h (5 Bft) O-NO 75 0 min 0,000 mm 0,0 UV-I 0 W/m 4,8 C -4,3 C 40,2 km/h (6 Bft) 100,00 %
29.02.2016 04:14 6,3 C 91 % 1008,2 hPa 0,0 l/m 34,2 km/h (5 Bft) O-NO 67 0 min 0,000 mm 0,0 UV-I 0 W/m 4,9 C -5,5 C 45,1 km/h (6 Bft) 100,00 %
29.02.2016 04:15 6,3 C 91 % 1008,2 hPa 0,0 l/m 26,5 km/h (4 Bft) NO 47 0 min 0,000 mm 0,0 UV-I 0 W/m 4,9 C -3,6 C 32,2 km/h (5 Bft) 100,00 %
29.02.2016 04:16 6,3 C 91 % 1008,2 hPa 0,0 l/m 26,1 km/h (4 Bft) O-NO 63 0 min 0,000 mm 0,0 UV-I 0 W/m 4,9 C -3,5 C 37,0 km/h (5 Bft) 96,30 %
29.02.2016 04:17 6,3 C 91 % 1008,1 hPa 0,0 l/m 29,0 km/h (5 Bft) NO 55 0 min 0,000 mm 0,0 UV-I 0 W/m 4,9 C -4,3 C 35,4 km/h (5 Bft) 100,00 %
29.02.2016 04:18 6,3 C 91 % 1008,1 hPa 0,0 l/m 25,5 km/h (4 Bft) O-NO 63 0 min 0,000 mm 0,0 UV-I 0 W/m 4,9 C -3,3 C 32,2 km/h (5 Bft) 100,00 %
29.02.2016 04:19 6,3 C 91 % 1008,1 hPa 0,0 l/m 30,2 km/h (5 Bft) O-NO 76 0 min 0,000 mm 0,0 UV-I 0 W/m 4,9 C -4,6 C 38,6 km/h (5 Bft) 99,51 %
29.02.2016 04:20 6,2 C 91 % 1008,1 hPa 0,0 l/m 30,3 km/h (5 Bft) N-NO 32 0 min 0,000 mm 0,0 UV-I 0 W/m 4,8 C -4,8 C 37,0 km/h (5 Bft) 100,00 %
29.02.2016 04:21 6,3 C 91 % 1008,1 hPa 0,0 l/m 27,0 km/h (4 Bft) O-NO 67 0 min 0,000 mm 0,0 UV-I 0 W/m 4,9 C -3,8 C 37,0 km/h (5 Bft) 100,00 %
29.02.2016 04:22 6,2 C 91 % 1008,1 hPa 0,0 l/m 25,5 km/h (4 Bft) O-NO 70 0 min 0,000 mm 0,0 UV-I 0 W/m 4,8 C -3,5 C 33,8 km/h (5 Bft) 100,00 %
29.02.2016 04:23 6,3 C 91 % 1008,2 hPa 0,0 l/m 24,6 km/h (4 Bft) O-NO 62 0 min 0,000 mm 0,0 UV-I 0 W/m 4,9 C -3,1 C 30,6 km/h (5 Bft) 100,00 %
29.02.2016 04:24 6,2 C 91 % 1008,2 hPa 0,0 l/m 32,3 km/h (5 Bft) O-NO 57 0 min 0,000 mm 0,0 UV-I 0 W/m 4,8 C -5,2 C 43,5 km/h (6 Bft) 96,55 %
29.02.2016 04:25 6,2 C 91 % 1008,2 hPa 0,0 l/m 32,2 km/h (5 Bft) NO 52 0 min 0,000 mm 0,0 UV-I 0 W/m 4,8 C -5,2 C 48,3 km/h (6 Bft) 100,00 %
29.02.2016 04:26 6,2 C 91 % 1008,1 hPa 0,0 l/m 29,5 km/h (5 Bft) O-NO 74 0 min 0,000 mm 0,0 UV-I 0 W/m 4,8 C -4,6 C 38,6 km/h (5 Bft) 100,00 %
29.02.2016 04:27 6,2 C 91 % 1008,1 hPa 0,0 l/m 26,9 km/h (4 Bft) O-NO 69 0 min 0,000 mm 0,0 UV-I 0 W/m 4,8 C -3,9 C 32,2 km/h (5 Bft) 100,00 %
29.02.2016 04:28 6,2 C 91 % 1008,1 hPa 0,0 l/m 25,1 km/h (4 Bft) O-NO 74 0 min 0,000 mm 0,0 UV-I 0 W/m 4,8 C -3,3 C 33,8 km/h (5 Bft) 100,00 %
29.02.2016 04:29 6,2 C 91 % 1008,1 hPa 0,0 l/m 26,1 km/h (4 Bft) O 80 0 min 0,000 mm 0,0 UV-I 0 W/m 4,8 C -3,6 C 32,2 km/h (5 Bft) 100,00 %
29.02.2016 04:30 6,2 C 91 % 1008,2 hPa 0,0 l/m 34,9 km/h (5 Bft) O-NO 59 0 min 0,000 mm 0,0 UV-I 0 W/m 4,8 C -5,8 C 46,7 km/h (6 Bft) 100,00 %
29.02.2016 04:31 6,2 C 91 % 1008,1 hPa 0,0 l/m 29,8 km/h (5 Bft) O-SO 115 0 min 0,000 mm 0,0 UV-I 0 W/m 4,8 C -4,6 C 35,4 km/h (5 Bft) 100,00 %
29.02.2016 04:32 6,2 C 91 % 1008,0 hPa 0,0 l/m 30,9 km/h (5 Bft) O-NO 68 0 min 0,000 mm 0,0 UV-I 0 W/m 4,8 C -4,9 C 43,5 km/h (6 Bft) 100,00 %
29.02.2016 04:33 6,2 C 91 % 1008,1 hPa 0,0 l/m 29,3 km/h (5 Bft) O-NO 76 0 min 0,000 mm 0,0 UV-I 0 W/m 4,8 C -4,5 C 35,4 km/h (5 Bft) 100,00 %
29.02.2016 04:34 6,2 C 91 % 1008,1 hPa 0,0 l/m 29,6 km/h (5 Bft) O-NO 74 0 min 0,000 mm 0,0 UV-I 0 W/m 4,8 C -4,6 C 37,0 km/h (5 Bft) 99,60 %
29.02.2016 04:35 6,2 C 91 % 1008,2 hPa 0,0 l/m 29,0 km/h (5 Bft) O-NO 69 0 min 0,000 mm 0,0 UV-I 0 W/m 4,8 C -4,4 C 43,5 km/h (6 Bft) 100,00 %
29.02.2016 04:36 6,2 C 91 % 1008,2 hPa 0,0 l/m 34,8 km/h (5 Bft) O-NO 67 0 min 0,000 mm 0,0 UV-I 0 W/m 4,8 C -5,8 C 45,1 km/h (6 Bft) 100,00 %
29.02.2016 04:37 6,2 C 91 % 1008,2 hPa 0,0 l/m 29,3 km/h (5 Bft) O-NO 57 0 min 0,000 mm 0,0 UV-I 0 W/m 4,8 C -4,5 C 37,0 km/h (5 Bft) 100,00 %
29.02.2016 04:38 6,2 C 91 % 1008,2 hPa 0,0 l/m 24,2 km/h (4 Bft) NO 51 0 min 0,000 mm 0,0 UV-I 0 W/m 4,8 C -3,1 C 29,0 km/h (5 Bft) 96,55 %
29.02.2016 04:39 6,2 C 91 % 1008,2 hPa 0,0 l/m 29,5 km/h (5 Bft) O-NO 69 0 min 0,000 mm 0,0 UV-I 0 W/m 4,8 C -4,6 C 43,5 km/h (6 Bft) 100,00 %
29.02.2016 04:40 6,2 C 91 % 1008,2 hPa 0,0 l/m 24,9 km/h (4 Bft) O-NO 78 0 min 0,000 mm 0,0 UV-I 0 W/m 4,8 C -3,3 C 33,8 km/h (5 Bft) 100,00 %
29.02.2016 04:41 6,2 C 91 % 1008,2 hPa 0,0 l/m 24,8 km/h (4 Bft) O-NO 72 0 min 0,000 mm 0,0 UV-I 0 W/m 4,8 C -3,3 C 30,6 km/h (5 Bft) 100,00 %
29.02.2016 04:42 6,2 C 91 % 1008,1 hPa 0,0 l/m 31,0 km/h (5 Bft) O-NO 77 0 min 0,000 mm 0,0 UV-I 0 W/m 4,8 C -4,9 C 40,2 km/h (6 Bft) 100,00 %
29.02.2016 04:43 6,2 C 91 % 1008,1 hPa 0,0 l/m 30,4 km/h (5 Bft) O-NO 63 0 min 0,000 mm 0,0 UV-I 0 W/m 4,8 C -4,8 C 45,1 km/h (6 Bft) 100,00 %
29.02.2016 04:44 6,2 C 91 % 1008,2 hPa 0,0 l/m 27,1 km/h (4 Bft) O 91 0 min 0,000 mm 0,0 UV-I 0 W/m 4,8 C -3,9 C 40,2 km/h (6 Bft) 100,00 %
29.02.2016 04:45 6,2 C 91 % 1008,2 hPa 0,0 l/m 25,7 km/h (4 Bft) O-NO 61 0 min 0,000 mm 0,0 UV-I 0 W/m 4,8 C -3,5 C 32,2 km/h (5 Bft) 100,00 %
29.02.2016 04:46 6,2 C 91 % 1008,2 hPa 0,0 l/m 30,4 km/h (5 Bft) O-NO 66 0 min 0,000 mm 0,0 UV-I 0 W/m 4,8 C -4,8 C 37,0 km/h (5 Bft) 100,00 %
29.02.2016 04:47 6,2 C 91 % 1008,2 hPa 0,0 l/m 29,4 km/h (5 Bft) NO 47 0 min 0,000 mm 0,0 UV-I 0 W/m 4,8 C -4,5 C 33,8 km/h (5 Bft) 100,00 %
29.02.2016 04:48 6,2 C 91 % 1008,2 hPa 0,0 l/m 33,2 km/h (5 Bft) O-NO 66 0 min 0,000 mm 0,0 UV-I 0 W/m 4,8 C -5,4 C 49,9 km/h (6 Bft) 100,00 %
29.02.2016 04:49 6,2 C 91 % 1008,1 hPa 0,0 l/m 33,3 km/h (5 Bft) O-NO 58 0 min 0,000 mm 0,0 UV-I 0 W/m 4,8 C -5,5 C 43,5 km/h (6 Bft) 100,00 %
29.02.2016 04:50 6,2 C 91 % 1008,2 hPa 0,0 l/m 25,7 km/h (4 Bft) O-NO 61 0 min 0,000 mm 0,0 UV-I 0 W/m 4,8 C -3,5 C 33,8 km/h (5 Bft) 100,00 %
29.02.2016 04:51 6,2 C 91 % 1008,2 hPa 0,0 l/m 23,1 km/h (4 Bft) O-NO 62 0 min 0,000 mm 0,0 UV-I 0 W/m 4,8 C -2,7 C 29,0 km/h (5 Bft) 100,00 %
29.02.2016 04:52 6,2 C 91 % 1008,2 hPa 0,0 l/m 34,2 km/h (5 Bft) O-NO 60 0 min 0,000 mm 0,0 UV-I 0 W/m 4,8 C -5,6 C 43,5 km/h (6 Bft) 100,00 %
29.02.2016 04:53 6,2 C 91 % 1008,2 hPa 0,0 l/m 32,8 km/h (5 Bft) O-NO 62 0 min 0,000 mm 0,0 UV-I 0 W/m 4,8 C -5,3 C 41,8 km/h (6 Bft) 95,65 %
29.02.2016 04:54 6,2 C 91 % 1008,2 hPa 0,0 l/m 24,1 km/h (4 Bft) O-NO 65 0 min 0,000 mm 0,0 UV-I 0 W/m 4,8 C -3,0 C 35,4 km/h (5 Bft) 100,00 %
29.02.2016 04:55 6,2 C 91 % 1008,1 hPa 0,0 l/m 33,0 km/h (5 Bft) O-NO 64 0 min 0,000 mm 0,0 UV-I 0 W/m 4,8 C -5,4 C 43,5 km/h (6 Bft) 92,86 %
29.02.2016 04:56 6,2 C 91 % 1008,1 hPa 0,0 l/m 34,3 km/h (5 Bft) O-NO 73 0 min 0,000 mm 0,0 UV-I 0 W/m 4,8 C -5,7 C 43,5 km/h (6 Bft) 100,00 %
29.02.2016 04:57 6,2 C 91 % 1008,2 hPa 0,0 l/m 29,9 km/h (5 Bft) O 87 0 min 0,000 mm 0,0 UV-I 0 W/m 4,8 C -4,7 C 43,5 km/h (6 Bft) 96,15 %
29.02.2016 04:58 6,2 C 91 % 1008,1 hPa 0,0 l/m 35,7 km/h (5 Bft) O-NO 63 0 min 0,000 mm 0,0 UV-I 0 W/m 4,8 C -6,0 C 48,3 km/h (6 Bft) 95,83 %
29.02.2016 04:59 6,2 C 91 % 1008,2 hPa 0,0 l/m 31,3 km/h (5 Bft) O-NO 63 0 min 0,000 mm 0,0 UV-I 0 W/m 4,8 C -5,0 C 40,2 km/h (6 Bft) 100,00 %
29.02.2016 05:00 6,3 C 91 % 1008,1 hPa 0,0 l/m 30,6 km/h (5 Bft) O-NO 65 0 min 0,025 mm 0,0 UV-I 0 W/m 4,9 C -4,7 C 40,2 km/h (6 Bft) 94,44 %
29.02.2016 05:01 6,3 C 91 % 1008,2 hPa 0,0 l/m 29,1 km/h (5 Bft) NO 41 0 min 0,000 mm 0,0 UV-I 0 W/m 4,9 C -4,3 C 33,8 km/h (5 Bft) 100,00 %
29.02.2016 05:02 6,3 C 91 % 1008,1 hPa 0,0 l/m 31,0 km/h (5 Bft) NO 53 0 min 0,000 mm 0,0 UV-I 0 W/m 4,9 C -4,8 C 38,6 km/h (5 Bft) 96,30 %
29.02.2016 05:03 6,3 C 91 % 1008,1 hPa 0,0 l/m 31,6 km/h (5 Bft) O-NO 72 0 min 0,000 mm 0,0 UV-I 0 W/m 4,9 C -4,9 C 41,8 km/h (6 Bft) 100,00 %
29.02.2016 05:04 6,3 C 91 % 1008,2 hPa 0,0 l/m 35,3 km/h (5 Bft) O-NO 59 0 min 0,000 mm 0,0 UV-I 0 W/m 4,9 C -5,7 C 43,5 km/h (6 Bft) 95,65 %
29.02.2016 05:05 6,3 C 91 % 1008,1 hPa 0,0 l/m 33,9 km/h (5 Bft) NO 49 0 min 0,000 mm 0,0 UV-I 0 W/m 4,9 C -5,4 C 48,3 km/h (6 Bft) 96,30 %
29.02.2016 05:06 6,3 C 91 % 1008,1 hPa 0,0 l/m 34,5 km/h (5 Bft) O-NO 61 0 min 0,000 mm 0,0 UV-I 0 W/m 4,9 C -5,6 C 43,5 km/h (6 Bft) 95,65 %
29.02.2016 05:07 6,3 C 91 % 1008,1 hPa 0,0 l/m 30,2 km/h (5 Bft) O-NO 64 0 min 0,000 mm 0,0 UV-I 0 W/m 4,9 C -4,6 C 41,8 km/h (6 Bft) 96,67 %
29.02.2016 05:08 6,3 C 91 % 1008,2 hPa 0,0 l/m 31,4 km/h (5 Bft) O-NO 76 0 min 0,000 mm 0,0 UV-I 0 W/m 4,9 C -4,9 C 43,5 km/h (6 Bft) 100,00 %
29.02.2016 05:09 6,3 C 91 % 1008,1 hPa 0,0 l/m 27,8 km/h (4 Bft) O-NO 78 0 min 0,000 mm 0,0 UV-I 0 W/m 4,9 C -4,0 C 37,0 km/h (5 Bft) 96,30 %
29.02.2016 05:10 6,3 C 91 % 1008,2 hPa 0,0 l/m 25,6 km/h (4 Bft) O 86 0 min 0,000 mm 0,0 UV-I 0 W/m 4,9 C -3,4 C 33,8 km/h (5 Bft) 100,00 %
29.02.2016 05:11 6,3 C 91 % 1008,2 hPa 0,0 l/m 25,0 km/h (4 Bft) O-NO 63 0 min 0,000 mm 0,0 UV-I 0 W/m 4,9 C -3,2 C 33,8 km/h (5 Bft) 95,83 %
29.02.2016 05:12 6,2 C 91 % 1008,2 hPa 0,0 l/m 28,1 km/h (4 Bft) O-NO 64 0 min 0,000 mm 0,0 UV-I 0 W/m 4,8 C -4,2 C 33,8 km/h (5 Bft) 100,00 %
29.02.2016 05:13 6,3 C 91 % 1008,2 hPa 0,0 l/m 28,0 km/h (4 Bft) O-NO 59 0 min 0,000 mm 0,0 UV-I 0 W/m 4,9 C -4,0 C 35,4 km/h (5 Bft) 95,83 %
29.02.2016 05:14 6,3 C 91 % 1008,2 hPa 0,0 l/m 26,6 km/h (4 Bft) O-NO 59 0 min 0,000 mm 0,0 UV-I 0 W/m 4,9 C -3,6 C 32,2 km/h (5 Bft) 96,55 %
29.02.2016 05:15 6,3 C 91 % 1008,1 hPa 0,0 l/m 24,2 km/h (4 Bft) O-NO 67 0 min 0,000 mm 0,0 UV-I 0 W/m 4,9 C -2,9 C 32,2 km/h (5 Bft) 100,00 %
29.02.2016 05:16 6,3 C 91 % 1008,2 hPa 0,0 l/m 26,8 km/h (4 Bft) NO 52 0 min 0,000 mm 0,0 UV-I 0 W/m 4,9 C -3,7 C 32,2 km/h (5 Bft) 95,65 %
29.02.2016 05:17 6,2 C 91 % 1008,1 hPa 0,0 l/m 28,6 km/h (4 Bft) NO 53 0 min 0,000 mm 0,0 UV-I 0 W/m 4,8 C -4,3 C 41,8 km/h (6 Bft) 98,93 %
29.02.2016 05:18 6,2 C 91 % 1008,2 hPa 0,0 l/m 30,5 km/h (5 Bft) O-NO 64 0 min 0,000 mm 0,0 UV-I 0 W/m 4,8 C -4,8 C 40,2 km/h (6 Bft) 97,73 %
29.02.2016 05:19 6,2 C 91 % 1008,1 hPa 0,0 l/m 29,3 km/h (5 Bft) NO 47 0 min 0,000 mm 0,0 UV-I 0 W/m 4,8 C -4,5 C 35,4 km/h (5 Bft) 100,00 %
29.02.2016 05:20 6,3 C 91 % 1008,1 hPa 0,0 l/m 29,0 km/h (5 Bft) O-NO 65 0 min 0,000 mm 0,0 UV-I 0 W/m 4,9 C -4,3 C 40,2 km/h (6 Bft) 93,33 %
29.02.2016 05:21 6,3 C 91 % 1008,1 hPa 0,0 l/m 25,2 km/h (4 Bft) NO 47 0 min 0,000 mm 0,0 UV-I 0 W/m 4,9 C -3,2 C 38,6 km/h (5 Bft) 100,00 %
29.02.2016 05:22 6,3 C 91 % 1008,2 hPa 0,0 l/m 29,6 km/h (5 Bft) NO 49 0 min 0,000 mm 0,0 UV-I 0 W/m 4,9 C -4,4 C 35,4 km/h (5 Bft) 96,15 %
29.02.2016 05:23 6,3 C 91 % 1008,2 hPa 0,0 l/m 28,0 km/h (4 Bft) NO 56 0 min 0,000 mm 0,0 UV-I 0 W/m 4,9 C -4,0 C 40,2 km/h (6 Bft) 100,00 %
29.02.2016 05:24 6,3 C 91 % 1008,1 hPa 0,0 l/m 30,0 km/h (5 Bft) O-NO 63 0 min 0,000 mm 0,0 UV-I 0 W/m 4,9 C -4,5 C 37,0 km/h (5 Bft) 92,59 %
29.02.2016 05:25 6,3 C 91 % 1008,2 hPa 0,0 l/m 21,9 km/h (4 Bft) O-NO 65 0 min 0,000 mm 0,0 UV-I 0 W/m 4,9 C -2,2 C 25,7 km/h (4 Bft) 96,55 %
29.02.2016 05:26 6,3 C 91 % 1008,2 hPa 0,0 l/m 26,5 km/h (4 Bft) NO 54 0 min 0,000 mm 0,0 UV-I 0 W/m 4,9 C -3,6 C 30,6 km/h (5 Bft) 100,00 %
29.02.2016 05:27 6,3 C 91 % 1008,1 hPa 0,0 l/m 27,5 km/h (4 Bft) O 86 0 min 0,000 mm 0,0 UV-I 0 W/m 4,9 C -3,9 C 33,8 km/h (5 Bft) 96,15 %
29.02.2016 05:28 6,2 C 92 % 1008,1 hPa 0,0 l/m 25,3 km/h (4 Bft) NO 51 0 min 0,000 mm 0,0 UV-I 0 W/m 5,0 C -3,4 C 37,0 km/h (5 Bft) 96,30 %
29.02.2016 05:29 6,3 C 92 % 1008,2 hPa 0,0 l/m 24,0 km/h (4 Bft) O 81 0 min 0,000 mm 0,0 UV-I 0 W/m 5,1 C -2,9 C 30,6 km/h (5 Bft) 100,00 %
29.02.2016 05:30 6,3 C 92 % 1008,2 hPa 0,0 l/m 20,2 km/h (4 Bft) O-NO 58 0 min 0,000 mm 0,0 UV-I 0 W/m 5,1 C -1,6 C 29,0 km/h (5 Bft) 100,00 %
29.02.2016 05:31 6,3 C 92 % 1008,2 hPa 0,0 l/m 27,4 km/h (4 Bft) O-NO 72 0 min 0,000 mm 0,0 UV-I 0 W/m 5,1 C -3,9 C 38,6 km/h (5 Bft) 100,00 %
29.02.2016 05:32 6,2 C 92 % 1008,2 hPa 0,0 l/m 30,4 km/h (5 Bft) NO 50 0 min 0,000 mm 0,0 UV-I 0 W/m 5,0 C -4,8 C 43,5 km/h (6 Bft) 100,00 %
29.02.2016 05:33 6,3 C 92 % 1008,1 hPa 0,0 l/m 33,2 km/h (5 Bft) NO 51 0 min 0,000 mm 0,0 UV-I 0 W/m 5,1 C -5,3 C 41,8 km/h (6 Bft) 100,00 %
29.02.2016 05:34 6,3 C 92 % 1008,1 hPa 0,0 l/m 29,5 km/h (5 Bft) N-NO 29 0 min 0,000 mm 0,0 UV-I 0 W/m 5,1 C -4,4 C 38,6 km/h (5 Bft) 96,30 %
29.02.2016 05:35 6,3 C 92 % 1008,1 hPa 0,0 l/m 34,0 km/h (5 Bft) O-NO 57 0 min 0,000 mm 0,0 UV-I 0 W/m 5,1 C -5,5 C 40,2 km/h (6 Bft) 100,00 %
29.02.2016 05:36 6,3 C 92 % 1008,1 hPa 0,0 l/m 29,2 km/h (5 Bft) NO 52 0 min 0,000 mm 0,0 UV-I 0 W/m 5,1 C -4,3 C 37,0 km/h (5 Bft) 96,30 %
29.02.2016 05:37 6,3 C 92 % 1008,2 hPa 0,0 l/m 23,6 km/h (4 Bft) NO 53 0 min 0,000 mm 0,0 UV-I 0 W/m 5,1 C -2,7 C 30,6 km/h (5 Bft) 100,00 %
29.02.2016 05:38 6,3 C 92 % 1008,1 hPa 0,0 l/m 35,6 km/h (5 Bft) O-NO 67 0 min 0,000 mm 0,0 UV-I 0 W/m 5,1 C -5,8 C 51,5 km/h (7 Bft) 100,00 %
29.02.2016 05:39 6,3 C 92 % 1008,1 hPa 0,0 l/m 31,2 km/h (5 Bft) O 88 0 min 0,000 mm 0,0 UV-I 0 W/m 5,1 C -4,8 C 41,8 km/h (6 Bft) 96,15 %
29.02.2016 05:40 6,3 C 92 % 1008,1 hPa 0,0 l/m 28,8 km/h (4 Bft) O-NO 70 0 min 0,000 mm 0,0 UV-I 0 W/m 5,1 C -4,2 C 38,6 km/h (5 Bft) 95,83 %
29.02.2016 05:41 6,3 C 92 % 1008,1 hPa 0,0 l/m 31,3 km/h (5 Bft) NO 51 0 min 0,000 mm 0,0 UV-I 0 W/m 5,1 C -4,9 C 38,6 km/h (5 Bft) 100,00 %
29.02.2016 05:42 6,3 C 92 % 1008,0 hPa 0,0 l/m 27,9 km/h (4 Bft) O-NO 61 0 min 0,000 mm 0,0 UV-I 0 W/m 5,1 C -4,0 C 38,6 km/h (5 Bft) 100,00 %
29.02.2016 05:43 6,3 C 92 % 1008,0 hPa 0,0 l/m 31,3 km/h (5 Bft) O 82 0 min 0,000 mm 0,0 UV-I 0 W/m 5,1 C -4,9 C 41,8 km/h (6 Bft) 100,00 %
29.02.2016 05:44 6,3 C 92 % 1008,1 hPa 0,0 l/m 30,3 km/h (5 Bft) NO 36 0 min 0,000 mm 0,0 UV-I 0 W/m 5,1 C -4,6 C 38,6 km/h (5 Bft) 100,00 %
29.02.2016 05:45 6,3 C 92 % 1008,0 hPa 0,0 l/m 32,3 km/h (5 Bft) NO 55 0 min 0,000 mm 0,0 UV-I 0 W/m 5,1 C -5,1 C 38,6 km/h (5 Bft) 100,00 %
29.02.2016 05:46 6,3 C 92 % 1008,0 hPa 0,0 l/m 27,3 km/h (4 Bft) O-NO 57 0 min 0,000 mm 0,0 UV-I 0 W/m 5,1 C -3,8 C 35,4 km/h (5 Bft) 100,00 %
29.02.2016 05:47 6,3 C 92 % 1008,0 hPa 0,0 l/m 26,1 km/h (4 Bft) NO 49 0 min 0,000 mm 0,0 UV-I 0 W/m 5,1 C -3,5 C 32,2 km/h (5 Bft) 98,75 %
29.02.2016 05:48 6,3 C 92 % 1008,0 hPa 0,0 l/m 30,2 km/h (5 Bft) O-NO 57 0 min 0,000 mm 0,0 UV-I 0 W/m 5,1 C -4,6 C 43,5 km/h (6 Bft) 100,00 %
29.02.2016 05:49 6,3 C 92 % 1008,0 hPa 0,0 l/m 27,2 km/h (4 Bft) O-NO 57 0 min 0,000 mm 0,0 UV-I 0 W/m 5,1 C -3,8 C 35,4 km/h (5 Bft) 96,30 %
29.02.2016 05:50 6,3 C 92 % 1008,0 hPa 0,0 l/m 31,9 km/h (5 Bft) O-NO 57 0 min 0,000 mm 0,0 UV-I 0 W/m 5,1 C -5,0 C 40,2 km/h (6 Bft) 100,00 %
29.02.2016 05:51 6,3 C 92 % 1008,0 hPa 0,0 l/m 33,1 km/h (5 Bft) O-NO 74 0 min 0,000 mm 0,0 UV-I 0 W/m 5,1 C -5,3 C 40,2 km/h (6 Bft) 96,30 %
29.02.2016 05:52 6,3 C 92 % 1008,0 hPa 0,0 l/m 29,6 km/h (5 Bft) O-NO 64 0 min 0,000 mm 0,0 UV-I 0 W/m 5,1 C -4,4 C 40,2 km/h (6 Bft) 100,00 %
29.02.2016 05:53 6,3 C 92 % 1008,1 hPa 0,0 l/m 28,1 km/h (4 Bft) O-NO 70 0 min 0,000 mm 0,0 UV-I 0 W/m 5,1 C -4,1 C 37,0 km/h (5 Bft) 100,00 %
29.02.2016 05:54 6,3 C 92 % 1008,0 hPa 0,0 l/m 27,4 km/h (4 Bft) NO 49 0 min 0,000 mm 0,0 UV-I 0 W/m 5,1 C -3,9 C 37,0 km/h (5 Bft) 95,65 %
29.02.2016 05:55 6,2 C 92 % 1008,1 hPa 0,0 l/m 28,9 km/h (5 Bft) O-NO 63 0 min 0,000 mm 0,0 UV-I 0 W/m 5,0 C -4,4 C 35,4 km/h (5 Bft) 100,00 %
29.02.2016 05:56 6,3 C 92 % 1008,1 hPa 0,0 l/m 28,0 km/h (4 Bft) O 91 0 min 0,000 mm 0,0 UV-I 0 W/m 5,1 C -4,0 C 45,1 km/h (6 Bft) 95,65 %
29.02.2016 05:57 6,3 C 92 % 1008,1 hPa 0,0 l/m 32,7 km/h (5 Bft) O-NO 63 0 min 0,000 mm 0,0 UV-I 0 W/m 5,1 C -5,2 C 49,9 km/h (6 Bft) 100,00 %
29.02.2016 05:58 6,3 C 92 % 1008,1 hPa 0,0 l/m 28,0 km/h (4 Bft) N-NO 32 0 min 0,000 mm 0,0 UV-I 0 W/m 5,1 C -4,0 C 38,6 km/h (5 Bft) 100,00 %
29.02.2016 05:59 6,3 C 92 % 1008,1 hPa 0,0 l/m 38,0 km/h (5 Bft) O 87 0 min 0,000 mm 0,0 UV-I 0 W/m 5,1 C -6,2 C 51,5 km/h (7 Bft) 100,00 %
29.02.2016 06:00 6,3 C 92 % 1008,1 hPa 0,0 l/m 30,2 km/h (5 Bft) O-NO 57 0 min 0,026 mm 0,0 UV-I 0 W/m 5,1 C -4,6 C 40,2 km/h (6 Bft) 100,00 %
29.02.2016 06:01 6,3 C 92 % 1008,1 hPa 0,0 l/m 34,5 km/h (5 Bft) O-NO 67 0 min 0,000 mm 0,0 UV-I 0 W/m 5,1 C -5,6 C 48,3 km/h (6 Bft) 100,00 %
29.02.2016 06:02 6,3 C 92 % 1008,0 hPa 0,0 l/m 30,8 km/h (5 Bft) O-NO 76 0 min 0,000 mm 0,0 UV-I 0 W/m 5,1 C -4,7 C 41,8 km/h (6 Bft) 100,00 %
29.02.2016 06:03 6,3 C 92 % 1008,0 hPa 0,0 l/m 28,8 km/h (4 Bft) O-NO 59 0 min 0,000 mm 0,0 UV-I 0 W/m 5,1 C -4,2 C 45,1 km/h (6 Bft) 96,30 %
29.02.2016 06:04 6,3 C 92 % 1008,1 hPa 0,0 l/m 35,2 km/h (5 Bft) NO 53 0 min 0,000 mm 0,0 UV-I 0 W/m 5,1 C -5,7 C 45,1 km/h (6 Bft) 100,00 %
29.02.2016 06:05 6,3 C 92 % 1008,1 hPa 0,0 l/m 31,8 km/h (5 Bft) O-NO 69 0 min 0,000 mm 0,0 UV-I 0 W/m 5,1 C -5,0 C 40,2 km/h (6 Bft) 100,00 %
29.02.2016 06:06 6,3 C 92 % 1008,1 hPa 0,0 l/m 26,9 km/h (4 Bft) O 88 0 min 0,000 mm 0,0 UV-I 0 W/m 5,1 C -3,7 C 35,4 km/h (5 Bft) 100,00 %
29.02.2016 06:07 6,3 C 91 % 1008,1 hPa 0,0 l/m 31,7 km/h (5 Bft) O-NO 77 0 min 0,000 mm 0,0 UV-I 0 W/m 4,9 C -5,0 C 43,5 km/h (6 Bft) 100,00 %
29.02.2016 06:08 6,3 C 91 % 1008,0 hPa 0,0 l/m 31,3 km/h (5 Bft) O-NO 59 0 min 0,000 mm 0,0 UV-I 0 W/m 4,9 C -4,9 C 45,1 km/h (6 Bft) 100,00 %
29.02.2016 06:09 6,3 C 91 % 1008,1 hPa 0,0 l/m 33,2 km/h (5 Bft) O-NO 73 0 min 0,000 mm 0,0 UV-I 0 W/m 4,9 C -5,3 C 43,5 km/h (6 Bft) 96,15 %
29.02.2016 06:10 6,3 C 92 % 1008,1 hPa 0,0 l/m 33,3 km/h (5 Bft) NO 51 0 min 0,000 mm 0,0 UV-I 0 W/m 5,1 C -5,3 C 41,8 km/h (6 Bft) 100,00 %
29.02.2016 06:11 6,3 C 91 % 1008,1 hPa 0,0 l/m 35,1 km/h (5 Bft) O-NO 76 0 min 0,000 mm 0,0 UV-I 0 W/m 4,9 C -5,7 C 45,1 km/h (6 Bft) 97,37 %
29.02.2016 06:12 6,3 C 91 % 1008,0 hPa 0,0 l/m 36,9 km/h (5 Bft) O-NO 67 0 min 0,000 mm 0,0 UV-I 0 W/m 4,9 C -6,0 C 45,1 km/h (6 Bft) 100,00 %
29.02.2016 06:13 6,3 C 91 % 1008,0 hPa 0,0 l/m 33,0 km/h (5 Bft) NO 44 0 min 0,000 mm 0,0 UV-I 0 W/m 4,9 C -5,2 C 45,1 km/h (6 Bft) 100,00 %
29.02.2016 06:14 6,3 C 91 % 1008,0 hPa 0,0 l/m 23,1 km/h (4 Bft) NO 34 0 min 0,000 mm 0,0 UV-I 0 W/m 4,9 C -2,6 C 35,4 km/h (5 Bft) 100,00 %
29.02.2016 06:15 6,3 C 91 % 1008,0 hPa 0,0 l/m 27,7 km/h (4 Bft) O-NO 70 0 min 0,000 mm 0,0 UV-I 0 W/m 4,9 C -4,0 C 38,6 km/h (5 Bft) 100,00 %
29.02.2016 06:16 6,3 C 91 % 1008,0 hPa 0,0 l/m 27,8 km/h (4 Bft) O-NO 58 0 min 0,000 mm 0,0 UV-I 0 W/m 4,9 C -4,0 C 35,4 km/h (5 Bft) 100,00 %
29.02.2016 06:17 6,3 C 92 % 1008,0 hPa 0,0 l/m 28,0 km/h (4 Bft) O-NO 67 0 min 0,000 mm 0,0 UV-I 0 W/m 5,1 C -4,0 C 35,4 km/h (5 Bft) 100,00 %
29.02.2016 06:18 6,3 C 92 % 1008,0 hPa 0,0 l/m 28,0 km/h (4 Bft) O-NO 61 0 min 0,000 mm 0,0 UV-I 0 W/m 5,1 C -4,0 C 37,0 km/h (5 Bft) 100,00 %
29.02.2016 06:19 6,3 C 92 % 1008,0 hPa 0,0 l/m 33,7 km/h (5 Bft) O-NO 76 0 min 0,000 mm 0,0 UV-I 0 W/m 5,1 C -5,4 C 46,7 km/h (6 Bft) 97,56 %
29.02.2016 06:20 6,3 C 92 % 1008,0 hPa 0,0 l/m 33,4 km/h (5 Bft) O-NO 67 0 min 0,000 mm 0,0 UV-I 0 W/m 5,1 C -5,3 C 46,7 km/h (6 Bft) 100,00 %
29.02.2016 06:21 6,3 C 92 % 1008,0 hPa 0,0 l/m 28,3 km/h (4 Bft) O-NO 69 0 min 0,000 mm 0,0 UV-I 0 W/m 5,1 C -4,1 C 35,4 km/h (5 Bft) 98,81 %
29.02.2016 06:22 6,3 C 92 % 1008,0 hPa 0,0 l/m 36,5 km/h (5 Bft) O-NO 70 0 min 0,000 mm 0,0 UV-I 0 W/m 5,1 C -6,0 C 56,3 km/h (7 Bft) 100,00 %
29.02.2016 06:23 6,3 C 92 % 1008,0 hPa 0,0 l/m 34,7 km/h (5 Bft) O 90 0 min 0,000 mm 0,0 UV-I 0 W/m 5,1 C -5,6 C 43,5 km/h (6 Bft) 100,00 %
29.02.2016 06:24 6,3 C 92 % 1008,0 hPa 0,0 l/m 31,3 km/h (5 Bft) O 82 0 min 0,000 mm 0,0 UV-I 0 W/m 5,1 C -4,9 C 38,6 km/h (5 Bft) 100,00 %
29.02.2016 06:25 6,3 C 92 % 1008,0 hPa 0,0 l/m 34,5 km/h (5 Bft) O 82 0 min 0,000 mm 0,0 UV-I 0 W/m 5,1 C -5,6 C 45,1 km/h (6 Bft) 100,00 %
29.02.2016 06:26 6,3 C 92 % 1008,0 hPa 0,0 l/m 32,7 km/h (5 Bft) O 99 0 min 0,000 mm 0,0 UV-I 0 W/m 5,1 C -5,2 C 48,3 km/h (6 Bft) 100,00 %
29.02.2016 06:27 6,3 C 92 % 1008,0 hPa 0,0 l/m 22,2 km/h (4 Bft) O-NO 66 0 min 0,000 mm 0,0 UV-I 0 W/m 5,1 C -2,3 C 37,0 km/h (5 Bft) 100,00 %
29.02.2016 06:28 6,3 C 92 % 1008,0 hPa 0,0 l/m 25,2 km/h (4 Bft) O-NO 72 0 min 0,000 mm 0,0 UV-I 0 W/m 5,1 C -3,2 C 33,8 km/h (5 Bft) 100,00 %
29.02.2016 06:29 6,3 C 92 % 1008,0 hPa 0,0 l/m 27,8 km/h (4 Bft) NO 42 0 min 0,000 mm 0,0 UV-I 0 W/m 5,1 C -4,0 C 37,0 km/h (5 Bft) 100,00 %
29.02.2016 06:30 6,2 C 92 % 1007,9 hPa 0,0 l/m 26,7 km/h (4 Bft) NO 55 0 min 0,000 mm 0,0 UV-I 0 W/m 5,0 C -3,8 C 35,4 km/h (5 Bft) 100,00 %
29.02.2016 06:31 6,3 C 92 % 1008,0 hPa 0,0 l/m 27,7 km/h (4 Bft) O-NO 65 0 min 0,000 mm 0,0 UV-I 0 W/m 5,1 C -4,0 C 32,2 km/h (5 Bft) 100,00 %
29.02.2016 06:32 6,2 C 92 % 1008,0 hPa 0,0 l/m 25,6 km/h (4 Bft) O-NO 64 0 min 0,000 mm 0,0 UV-I 0 W/m 5,0 C -3,5 C 32,2 km/h (5 Bft) 100,00 %
29.02.2016 06:33 6,2 C 92 % 1008,0 hPa 0,0 l/m 24,6 km/h (4 Bft) NO 55 0 min 0,000 mm 0,0 UV-I 0 W/m 5,0 C -3,2 C 30,6 km/h (5 Bft) 96,30 %
29.02.2016 06:34 6,2 C 92 % 1008,0 hPa 0,0 l/m 24,1 km/h (4 Bft) O-NO 67 0 min 0,000 mm 0,0 UV-I 0 W/m 5,0 C -3,0 C 32,2 km/h (5 Bft) 100,00 %
29.02.2016 06:35 6,2 C 92 % 1008,0 hPa 0,0 l/m 31,6 km/h (5 Bft) NO 53 0 min 0,000 mm 0,0 UV-I 0 W/m 5,0 C -5,1 C 40,2 km/h (6 Bft) 100,00 %
29.02.2016 06:36 6,2 C 92 % 1008,0 hPa 0,0 l/m 24,2 km/h (4 Bft) O-NO 71 0 min 0,000 mm 0,0 UV-I 0 W/m 5,0 C -3,1 C 32,2 km/h (5 Bft) 100,00 %
29.02.2016 06:37 6,2 C 92 % 1008,0 hPa 0,0 l/m 29,5 km/h (5 Bft) O-NO 75 0 min 0,000 mm 0,0 UV-I 0 W/m 5,0 C -4,6 C 35,4 km/h (5 Bft) 100,00 %
29.02.2016 06:38 6,2 C 92 % 1008,1 hPa 0,0 l/m 21,9 km/h (4 Bft) O-NO 61 0 min 0,000 mm 0,0 UV-I 0 W/m 5,0 C -2,3 C 27,4 km/h (4 Bft) 100,00 %
29.02.2016 06:39 6,2 C 92 % 1008,1 hPa 0,0 l/m 28,8 km/h (4 Bft) O-NO 58 0 min 0,000 mm 0,0 UV-I 0 W/m 5,0 C -4,4 C 38,6 km/h (5 Bft) 96,67 %
29.02.2016 06:40 6,2 C 92 % 1008,1 hPa 0,0 l/m 28,6 km/h (4 Bft) O-NO 67 0 min 0,000 mm 0,0 UV-I 0 W/m 5,0 C -4,3 C 45,1 km/h (6 Bft) 100,00 %
29.02.2016 06:41 6,2 C 92 % 1008,1 hPa 0,0 l/m 34,4 km/h (5 Bft) O-NO 67 0 min 0,000 mm 0,0 UV-I 0 W/m 5,0 C -5,7 C 43,5 km/h (6 Bft) 95,83 %
29.02.2016 06:42 6,2 C 92 % 1008,1 hPa 0,0 l/m 24,1 km/h (4 Bft) O-NO 68 0 min 0,000 mm 0,0 UV-I 0 W/m 5,0 C -3,0 C 27,4 km/h (4 Bft) 100,00 %
29.02.2016 06:43 6,2 C 92 % 1008,2 hPa 0,0 l/m 23,4 km/h (4 Bft) O-NO 73 0 min 0,000 mm 0,0 UV-I 0 W/m 5,0 C -2,8 C 32,2 km/h (5 Bft) 95,83 %
29.02.2016 06:44 6,2 C 92 % 1008,1 hPa 0,0 l/m 27,3 km/h (4 Bft) O-NO 65 0 min 0,000 mm 0,0 UV-I 0 W/m 5,0 C -4,0 C 46,7 km/h (6 Bft) 100,00 %
29.02.2016 06:45 6,2 C 92 % 1008,1 hPa 0,0 l/m 32,8 km/h (5 Bft) O-NO 69 0 min 0,000 mm 0,0 UV-I 0 W/m 5,0 C -5,3 C 40,2 km/h (6 Bft) 100,00 %
29.02.2016 06:46 6,2 C 92 % 1008,2 hPa 0,0 l/m 29,4 km/h (5 Bft) O-NO 77 0 min 0,000 mm 0,0 UV-I 0 W/m 5,0 C -4,5 C 41,8 km/h (6 Bft) 100,00 %
29.02.2016 06:47 6,2 C 92 % 1008,1 hPa 0,0 l/m 26,3 km/h (4 Bft) O-NO 69 0 min 0,000 mm 0,0 UV-I 0 W/m 5,0 C -3,7 C 32,2 km/h (5 Bft) 100,00 %
29.02.2016 06:48 6,2 C 92 % 1008,1 hPa 0,0 l/m 23,3 km/h (4 Bft) NO 55 0 min 0,000 mm 0,0 UV-I 0 W/m 5,0 C -2,8 C 37,0 km/h (5 Bft) 100,00 %
29.02.2016 06:49 6,2 C 92 % 1008,0 hPa 0,0 l/m 36,2 km/h (5 Bft) NO 56 0 min 0,000 mm 0,0 UV-I 0 W/m 5,0 C -6,1 C 49,9 km/h (6 Bft) 100,00 %
29.02.2016 06:50 6,2 C 92 % 1008,1 hPa 0,0 l/m 30,7 km/h (5 Bft) O-NO 69 0 min 0,000 mm 0,0 UV-I 0 W/m 5,0 C -4,9 C 45,1 km/h (6 Bft) 100,00 %
29.02.2016 06:51 6,2 C 92 % 1008,1 hPa 0,0 l/m 36,0 km/h (5 Bft) O-NO 65 0 min 0,000 mm 0,0 UV-I 0 W/m 5,0 C -6,0 C 48,3 km/h (6 Bft) 100,00 %
29.02.2016 06:52 6,2 C 92 % 1008,1 hPa 0,0 l/m 31,3 km/h (5 Bft) O-NO 76 0 min 0,000 mm 0,0 UV-I 0 W/m 5,0 C -5,0 C 41,8 km/h (6 Bft) 100,00 %
29.02.2016 06:53 6,2 C 92 % 1008,1 hPa 0,0 l/m 38,2 km/h (5 Bft) O-NO 64 0 min 0,000 mm 0,0 UV-I 0 W/m 5,0 C -6,4 C 48,3 km/h (6 Bft) 100,00 %
29.02.2016 06:54 6,2 C 92 % 1008,1 hPa 0,0 l/m 33,6 km/h (5 Bft) O-NO 63 0 min 0,000 mm 0,0 UV-I 0 W/m 5,0 C -5,5 C 48,3 km/h (6 Bft) 96,30 %
29.02.2016 06:55 6,2 C 92 % 1008,1 hPa 0,0 l/m 28,6 km/h (4 Bft) NO 56 0 min 0,000 mm 0,0 UV-I 0 W/m 5,0 C -4,3 C 38,6 km/h (5 Bft) 100,00 %
29.02.2016 06:56 6,2 C 92 % 1008,1 hPa 0,0 l/m 26,4 km/h (4 Bft) O 81 0 min 0,000 mm 0,0 UV-I 0 W/m 5,0 C -3,7 C 38,6 km/h (5 Bft) 100,00 %
29.02.2016 06:57 6,2 C 92 % 1008,1 hPa 0,0 l/m 31,2 km/h (5 Bft) O-NO 60 0 min 0,000 mm 0,0 UV-I 0 W/m 5,0 C -5,0 C 43,5 km/h (6 Bft) 95,65 %
29.02.2016 06:58 6,2 C 92 % 1008,0 hPa 0,0 l/m 28,8 km/h (4 Bft) NO 45 0 min 0,000 mm 0,0 UV-I 0 W/m 5,0 C -4,4 C 37,0 km/h (5 Bft) 96,30 %
29.02.2016 06:59 6,2 C 92 % 1008,0 hPa 0,0 l/m 23,6 km/h (4 Bft) O-NO 62 0 min 0,000 mm 0,0 UV-I 0 W/m 5,0 C -2,9 C 27,4 km/h (4 Bft) 100,00 %
29.02.2016 07:00 6,2 C 92 % 1008,0 hPa 0,0 l/m 27,9 km/h (4 Bft) NO 56 0 min 0,000 mm 0,0 UV-I 0 W/m 5,0 C -4,1 C 40,2 km/h (6 Bft) 96,15 %
29.02.2016 07:02 6,2 C 92 % 1008,0 hPa 0,0 l/m 27,4 km/h (4 Bft) O-NO 73 0 min 0,025 mm 0,0 UV-I 0 W/m 5,0 C -4,0 C 40,2 km/h (6 Bft) 97,56 %
29.02.2016 07:03 6,2 C 92 % 1008,0 hPa 0,0 l/m 22,3 km/h (4 Bft) O 80 0 min 0,000 mm 0,0 UV-I 0 W/m 5,0 C -2,4 C 30,6 km/h (5 Bft) 100,00 %
29.02.2016 07:04 6,2 C 92 % 1008,0 hPa 0,0 l/m 24,3 km/h (4 Bft) O 83 0 min 0,000 mm 0,0 UV-I 2 W/m 5,0 C -3,1 C 32,2 km/h (5 Bft) 95,65 %
29.02.2016 07:05 6,2 C 92 % 1008,0 hPa 0,0 l/m 28,6 km/h (4 Bft) NO 38 0 min 0,000 mm 0,0 UV-I 5 W/m 5,0 C -4,3 C 43,5 km/h (6 Bft) 95,83 %
29.02.2016 07:06 6,2 C 92 % 1007,9 hPa 0,0 l/m 35,3 km/h (5 Bft) NO 51 0 min 0,000 mm 0,0 UV-I 5 W/m 5,0 C -5,9 C 45,1 km/h (6 Bft) 95,65 %
29.02.2016 07:07 6,2 C 92 % 1008,0 hPa 0,0 l/m 30,1 km/h (5 Bft) NO 55 0 min 0,000 mm 0,0 UV-I 5 W/m 5,0 C -4,7 C 38,6 km/h (5 Bft) 96,30 %
29.02.2016 07:08 6,2 C 92 % 1008,0 hPa 0,0 l/m 29,0 km/h (5 Bft) O-NO 74 0 min 0,000 mm 0,0 UV-I 5 W/m 5,0 C -4,4 C 41,8 km/h (6 Bft) 92,86 %
29.02.2016 07:09 6,2 C 92 % 1008,0 hPa 0,0 l/m 23,7 km/h (4 Bft) O-NO 59 0 min 0,000 mm 0,0 UV-I 5 W/m 5,0 C -2,9 C 29,0 km/h (5 Bft) 100,00 %
29.02.2016 07:10 6,2 C 92 % 1008,0 hPa 0,0 l/m 31,3 km/h (5 Bft) O-NO 76 0 min 0,000 mm 0,0 UV-I 5 W/m 5,0 C -5,0 C 45,1 km/h (6 Bft) 95,65 %
29.02.2016 07:11 6,2 C 92 % 1008,0 hPa 0,0 l/m 26,9 km/h (4 Bft) O-NO 63 0 min 0,000 mm 0,0 UV-I 5 W/m 5,0 C -3,9 C 33,8 km/h (5 Bft) 95,83 %
29.02.2016 07:12 6,2 C 92 % 1007,9 hPa 0,0 l/m 27,9 km/h (4 Bft) NO 49 0 min 0,000 mm 0,0 UV-I 5 W/m 5,0 C -4,1 C 33,8 km/h (5 Bft) 95,65 %
29.02.2016 07:13 6,2 C 92 % 1008,0 hPa 0,0 l/m 20,6 km/h (4 Bft) O 79 0 min 0,000 mm 0,0 UV-I 5 W/m 5,0 C -1,8 C 37,0 km/h (5 Bft) 96,30 %
29.02.2016 07:14 6,2 C 92 % 1008,0 hPa 0,0 l/m 27,3 km/h (4 Bft) O-NO 64 0 min 0,000 mm 0,0 UV-I 5 W/m 5,0 C -4,0 C 35,4 km/h (5 Bft) 100,00 %
29.02.2016 07:15 6,2 C 92 % 1008,0 hPa 0,0 l/m 25,7 km/h (4 Bft) O-NO 62 0 min 0,000 mm 0,0 UV-I 5 W/m 5,0 C -3,5 C 33,8 km/h (5 Bft) 91,67 %
29.02.2016 07:16 6,2 C 92 % 1008,0 hPa 0,0 l/m 31,0 km/h (5 Bft) NO 51 0 min 0,000 mm 0,0 UV-I 6 W/m 5,0 C -4,9 C 53,1 km/h (7 Bft) 100,00 %
29.02.2016 07:17 6,2 C 92 % 1007,9 hPa 0,0 l/m 30,0 km/h (5 Bft) O-NO 73 0 min 0,000 mm 0,0 UV-I 7 W/m 5,0 C -4,7 C 38,6 km/h (5 Bft) 91,67 %
29.02.2016 07:18 6,2 C 92 % 1007,9 hPa 0,0 l/m 33,5 km/h (5 Bft) O-NO 77 0 min 0,000 mm 0,0 UV-I 7 W/m 5,0 C -5,5 C 48,3 km/h (6 Bft) 97,56 %
29.02.2016 07:19 6,2 C 92 % 1008,0 hPa 0,0 l/m 24,9 km/h (4 Bft) O-NO 69 0 min 0,000 mm 0,0 UV-I 7 W/m 5,0 C -3,3 C 35,4 km/h (5 Bft) 100,00 %
29.02.2016 07:20 6,2 C 92 % 1007,9 hPa 0,0 l/m 24,6 km/h (4 Bft) O-NO 67 0 min 0,000 mm 0,0 UV-I 9 W/m 5,0 C -3,2 C 35,4 km/h (5 Bft) 91,67 %
29.02.2016 07:21 6,2 C 92 % 1007,9 hPa 0,0 l/m 32,8 km/h (5 Bft) O-NO 65 0 min 0,000 mm 0,0 UV-I 9 W/m 5,0 C -5,3 C 40,2 km/h (6 Bft) 100,00 %
29.02.2016 07:22 6,2 C 92 % 1007,9 hPa 0,0 l/m 28,7 km/h (4 Bft) O-NO 70 0 min 0,000 mm 0,0 UV-I 9 W/m 5,0 C -4,4 C 37,0 km/h (5 Bft) 96,30 %
29.02.2016 07:23 6,2 C 92 % 1007,9 hPa 0,0 l/m 23,2 km/h (4 Bft) NO 49 0 min 0,000 mm 0,0 UV-I 9 W/m 5,0 C -2,7 C 33,8 km/h (5 Bft) 100,00 %
29.02.2016 07:24 6,2 C 92 % 1007,9 hPa 0,0 l/m 20,8 km/h (4 Bft) O-NO 58 0 min 0,000 mm 0,0 UV-I 9 W/m 5,0 C -1,9 C 30,6 km/h (5 Bft) 100,00 %
29.02.2016 07:25 6,2 C 92 % 1007,9 hPa 0,0 l/m 28,2 km/h (4 Bft) O-NO 57 0 min 0,000 mm 0,0 UV-I 11 W/m 5,0 C -4,2 C 33,8 km/h (5 Bft) 100,00 %
29.02.2016 07:26 6,2 C 92 % 1007,8 hPa 0,0 l/m 29,4 km/h (5 Bft) N-NO 32 0 min 0,000 mm 0,0 UV-I 11 W/m 5,0 C -4,5 C 41,8 km/h (6 Bft) 96,30 %
29.02.2016 07:27 6,2 C 92 % 1007,8 hPa 0,0 l/m 30,7 km/h (5 Bft) O-NO 71 0 min 0,000 mm 0,0 UV-I 11 W/m 5,0 C -4,9 C 41,8 km/h (6 Bft) 96,55 %
29.02.2016 07:28 6,2 C 92 % 1007,8 hPa 0,0 l/m 29,2 km/h (5 Bft) O-NO 76 0 min 0,000 mm 0,0 UV-I 12 W/m 5,0 C -4,5 C 40,2 km/h (6 Bft) 100,00 %
29.02.2016 07:29 6,2 C 92 % 1007,9 hPa 0,0 l/m 29,4 km/h (5 Bft) NO 40 0 min 0,000 mm 0,0 UV-I 12 W/m 5,0 C -4,5 C 35,4 km/h (5 Bft) 95,65 %
29.02.2016 07:30 6,2 C 92 % 1007,9 hPa 0,0 l/m 33,2 km/h (5 Bft) O-NO 69 0 min 0,000 mm 0,0 UV-I 14 W/m 5,0 C -5,4 C 48,3 km/h (6 Bft) 100,00 %
29.02.2016 07:31 6,2 C 92 % 1007,8 hPa 0,0 l/m 34,0 km/h (5 Bft) NO 51 0 min 0,000 mm 0,0 UV-I 14 W/m 5,0 C -5,6 C 49,9 km/h (6 Bft) 92,31 %
29.02.2016 07:32 6,2 C 92 % 1007,8 hPa 0,0 l/m 32,6 km/h (5 Bft) O-NO 65 0 min 0,000 mm 0,0 UV-I 17 W/m 5,0 C -5,3 C 45,1 km/h (6 Bft) 96,30 %
29.02.2016 07:33 6,2 C 92 % 1007,8 hPa 0,0 l/m 33,5 km/h (5 Bft) NO 44 0 min 0,000 mm 0,0 UV-I 17 W/m 5,0 C -5,5 C 41,8 km/h (6 Bft) 100,00 %
29.02.2016 07:34 6,2 C 92 % 1007,8 hPa 0,0 l/m 34,1 km/h (5 Bft) O-NO 77 0 min 0,000 mm 0,0 UV-I 16 W/m 5,0 C -5,6 C 41,8 km/h (6 Bft) 100,00 %
29.02.2016 07:35 6,2 C 92 % 1007,8 hPa 0,0 l/m 29,4 km/h (5 Bft) O-NO 60 0 min 0,000 mm 0,0 UV-I 16 W/m 5,0 C -4,5 C 43,5 km/h (6 Bft) 96,15 %
29.02.2016 07:36 6,2 C 92 % 1007,8 hPa 0,0 l/m 32,0 km/h (5 Bft) NO 53 0 min 0,000 mm 0,0 UV-I 18 W/m 5,0 C -5,2 C 40,2 km/h (6 Bft) 100,00 %
29.02.2016 07:37 6,2 C 92 % 1007,8 hPa 0,0 l/m 26,5 km/h (4 Bft) NO 49 0 min 0,000 mm 0,0 UV-I 16 W/m 5,0 C -3,8 C 35,4 km/h (5 Bft) 100,00 %
29.02.2016 07:38 6,2 C 92 % 1007,9 hPa 0,0 l/m 27,2 km/h (4 Bft) O-NO 57 0 min 0,000 mm 0,0 UV-I 19 W/m 5,0 C -4,0 C 37,0 km/h (5 Bft) 100,00 %
29.02.2016 07:39 6,2 C 92 % 1008,0 hPa 0,0 l/m 31,7 km/h (5 Bft) O-NO 66 0 min 0,000 mm 0,0 UV-I 19 W/m 5,0 C -5,1 C 41,8 km/h (6 Bft) 98,65 %
29.02.2016 07:40 6,2 C 92 % 1007,9 hPa 0,0 l/m 32,3 km/h (5 Bft) NO 49 0 min 0,000 mm 0,0 UV-I 19 W/m 5,0 C -5,2 C 45,1 km/h (6 Bft) 97,73 %
29.02.2016 07:41 6,2 C 92 % 1007,9 hPa 0,0 l/m 30,9 km/h (5 Bft) NO 49 0 min 0,000 mm 0,0 UV-I 18 W/m 5,0 C -4,9 C 43,5 km/h (6 Bft) 100,00 %
29.02.2016 07:42 6,2 C 92 % 1007,9 hPa 0,0 l/m 31,7 km/h (5 Bft) O 82 0 min 0,000 mm 0,0 UV-I 18 W/m 5,0 C -5,1 C 43,5 km/h (6 Bft) 100,00 %
29.02.2016 07:43 6,2 C 91 % 1008,0 hPa 0,0 l/m 32,5 km/h (5 Bft) O-NO 66 0 min 0,000 mm 0,0 UV-I 16 W/m 4,8 C -5,3 C 41,8 km/h (6 Bft) 100,00 %
29.02.2016 07:44 6,2 C 91 % 1007,9 hPa 0,0 l/m 28,7 km/h (4 Bft) NO 50 0 min 0,000 mm 0,0 UV-I 18 W/m 4,8 C -4,4 C 40,2 km/h (6 Bft) 100,00 %
29.02.2016 07:45 6,2 C 91 % 1007,9 hPa 0,0 l/m 32,5 km/h (5 Bft) NO 55 0 min 0,000 mm 0,0 UV-I 18 W/m 4,8 C -5,3 C 38,6 km/h (5 Bft) 95,83 %
29.02.2016 07:46 6,2 C 91 % 1007,9 hPa 0,0 l/m 27,2 km/h (4 Bft) O 84 0 min 0,000 mm 0,0 UV-I 19 W/m 4,8 C -4,0 C 32,2 km/h (5 Bft) 100,00 %
29.02.2016 07:47 6,2 C 91 % 1007,9 hPa 0,0 l/m 36,9 km/h (5 Bft) O-NO 67 0 min 0,000 mm 0,0 UV-I 20 W/m 4,8 C -6,2 C 43,5 km/h (6 Bft) 100,00 %
29.02.2016 07:48 6,2 C 91 % 1007,9 hPa 0,0 l/m 35,2 km/h (5 Bft) O-NO 74 0 min 0,000 mm 0,0 UV-I 23 W/m 4,8 C -5,9 C 46,7 km/h (6 Bft) 100,00 %
29.02.2016 07:49 6,3 C 91 % 1007,9 hPa 0,0 l/m 30,0 km/h (5 Bft) O-NO 67 0 min 0,000 mm 0,0 UV-I 24 W/m 4,9 C -4,5 C 40,2 km/h (6 Bft) 100,00 %
29.02.2016 07:50 6,2 C 91 % 1007,9 hPa 0,0 l/m 30,7 km/h (5 Bft) NO 46 0 min 0,000 mm 0,0 UV-I 26 W/m 4,8 C -4,9 C 38,6 km/h (5 Bft) 90,91 %
29.02.2016 07:51 6,2 C 91 % 1007,9 hPa 0,0 l/m 30,9 km/h (5 Bft) NO 38 0 min 0,000 mm 0,0 UV-I 26 W/m 4,8 C -4,9 C 41,8 km/h (6 Bft) 100,00 %
29.02.2016 07:52 6,2 C 91 % 1007,9 hPa 0,0 l/m 31,3 km/h (5 Bft) O-NO 57 0 min 0,000 mm 0,0 UV-I 27 W/m 4,8 C -5,0 C 45,1 km/h (6 Bft) 100,00 %
29.02.2016 07:53 6,2 C 91 % 1007,8 hPa 0,0 l/m 32,3 km/h (5 Bft) O-NO 59 0 min 0,000 mm 0,0 UV-I 29 W/m 4,8 C -5,2 C 40,2 km/h (6 Bft) 100,00 %
29.02.2016 07:54 6,2 C 91 % 1007,8 hPa 0,0 l/m 28,6 km/h (4 Bft) O-NO 60 0 min 0,000 mm 0,0 UV-I 33 W/m 4,8 C -4,3 C 38,6 km/h (5 Bft) 100,00 %
29.02.2016 07:55 6,2 C 91 % 1007,8 hPa 0,0 l/m 30,0 km/h (5 Bft) NO 55 0 min 0,000 mm 0,0 UV-I 33 W/m 4,8 C -4,7 C 49,9 km/h (6 Bft) 100,00 %
29.02.2016 07:56 6,2 C 91 % 1007,8 hPa 0,0 l/m 31,1 km/h (5 Bft) O-NO 68 0 min 0,000 mm 0,0 UV-I 33 W/m 4,8 C -5,0 C 40,2 km/h (6 Bft) 100,00 %
29.02.2016 07:57 6,2 C 91 % 1007,9 hPa 0,0 l/m 27,2 km/h (4 Bft) NO 56 0 min 0,000 mm 0,0 UV-I 34 W/m 4,8 C -4,0 C 35,4 km/h (5 Bft) 100,00 %
29.02.2016 07:58 6,2 C 91 % 1007,9 hPa 0,0 l/m 35,6 km/h (5 Bft) NO 55 0 min 0,000 mm 0,0 UV-I 33 W/m 4,8 C -5,9 C 48,3 km/h (6 Bft) 100,00 %
29.02.2016 07:59 6,2 C 91 % 1007,9 hPa 0,0 l/m 40,3 km/h (6 Bft) NO 55 0 min 0,000 mm 0,0 UV-I 33 W/m 4,8 C -6,8 C 49,9 km/h (6 Bft) 100,00 %
29.02.2016 08:00 6,2 C 91 % 1007,9 hPa 0,0 l/m 32,9 km/h (5 Bft) NO 53 0 min 0,025 mm 0,0 UV-I 35 W/m 4,8 C -5,4 C 49,9 km/h (6 Bft) 100,00 %
29.02.2016 08:02 6,2 C 91 % 1007,9 hPa 0,0 l/m 31,3 km/h (5 Bft) NO 55 0 min 0,000 mm 0,0 UV-I 32 W/m 4,8 C -5,0 C 46,7 km/h (6 Bft) 97,78 %
29.02.2016 08:03 6,2 C 91 % 1008,0 hPa 0,0 l/m 36,0 km/h (5 Bft) O-NO 62 0 min 0,000 mm 0,0 UV-I 34 W/m 4,8 C -6,0 C 53,1 km/h (7 Bft) 100,00 %
29.02.2016 08:04 6,2 C 91 % 1008,0 hPa 0,0 l/m 42,8 km/h (6 Bft) O-NO 57 0 min 0,000 mm 0,0 UV-I 33 W/m 4,8 C -7,2 C 51,5 km/h (7 Bft) 100,00 %
29.02.2016 08:05 6,2 C 91 % 1007,9 hPa 0,0 l/m 43,6 km/h (6 Bft) O 79 0 min 0,000 mm 0,0 UV-I 33 W/m 4,8 C -7,3 C 56,3 km/h (7 Bft) 100,00 %
29.02.2016 08:06 6,2 C 91 % 1008,0 hPa 0,0 l/m 30,7 km/h (5 Bft) O-NO 58 0 min 0,000 mm 0,0 UV-I 33 W/m 4,8 C -4,9 C 37,0 km/h (5 Bft) 100,00 %
29.02.2016 08:07 6,2 C 91 % 1008,0 hPa 0,0 l/m 29,0 km/h (5 Bft) O 93 0 min 0,000 mm 0,0 UV-I 28 W/m 4,8 C -4,4 C 35,4 km/h (5 Bft) 100,00 %
29.02.2016 08:08 6,2 C 91 % 1008,0 hPa 0,0 l/m 30,2 km/h (5 Bft) O 83 0 min 0,000 mm 0,0 UV-I 28 W/m 4,8 C -4,7 C 40,2 km/h (6 Bft) 100,00 %
29.02.2016 08:09 6,2 C 91 % 1008,0 hPa 0,0 l/m 22,4 km/h (4 Bft) NO 53 0 min 0,000 mm 0,0 UV-I 28 W/m 4,8 C -2,5 C 27,4 km/h (4 Bft) 100,00 %
29.02.2016 08:10 6,2 C 91 % 1008,1 hPa 0,0 l/m 30,6 km/h (5 Bft) O-NO 68 0 min 0,000 mm 0,0 UV-I 28 W/m 4,8 C -4,8 C 41,8 km/h (6 Bft) 100,00 %
29.02.2016 08:11 6,2 C 91 % 1008,1 hPa 0,0 l/m 29,0 km/h (5 Bft) O-NO 76 0 min 0,000 mm 0,0 UV-I 26 W/m 4,8 C -4,4 C 38,6 km/h (5 Bft) 100,00 %
29.02.2016 08:12 6,2 C 91 % 1008,1 hPa 0,0 l/m 30,1 km/h (5 Bft) O-NO 67 0 min 0,000 mm 0,0 UV-I 25 W/m 4,8 C -4,7 C 43,5 km/h (6 Bft) 100,00 %
29.02.2016 08:13 6,2 C 91 % 1008,1 hPa 0,0 l/m 37,4 km/h (5 Bft) NO 47 0 min 0,000 mm 0,0 UV-I 25 W/m 4,8 C -6,3 C 51,5 km/h (7 Bft) 100,00 %
29.02.2016 08:14 6,2 C 91 % 1008,1 hPa 0,0 l/m 30,2 km/h (5 Bft) NO 44 0 min 0,000 mm 0,0 UV-I 24 W/m 4,8 C -4,7 C 38,6 km/h (5 Bft) 100,00 %
29.02.2016 08:15 6,2 C 91 % 1008,1 hPa 0,0 l/m 26,2 km/h (4 Bft) O-NO 59 0 min 0,000 mm 0,0 UV-I 23 W/m 4,8 C -3,7 C 33,8 km/h (5 Bft) 100,00 %
29.02.2016 08:16 6,2 C 91 % 1008,1 hPa 0,0 l/m 27,0 km/h (4 Bft) NO 51 0 min 0,000 mm 0,0 UV-I 23 W/m 4,8 C -3,9 C 32,2 km/h (5 Bft) 100,00 %
29.02.2016 08:17 6,2 C 91 % 1008,0 hPa 0,0 l/m 27,8 km/h (4 Bft) O-NO 57 0 min 0,000 mm 0,0 UV-I 21 W/m 4,8 C -4,1 C 35,4 km/h (5 Bft) 100,00 %
29.02.2016 08:18 6,2 C 91 % 1008,0 hPa 0,0 l/m 28,6 km/h (4 Bft) NO 54 0 min 0,000 mm 0,0 UV-I 23 W/m 4,8 C -4,3 C 33,8 km/h (5 Bft) 100,00 %
29.02.2016 08:19 6,2 C 91 % 1008,0 hPa 0,0 l/m 31,5 km/h (5 Bft) O 82 0 min 0,000 mm 0,0 UV-I 24 W/m 4,8 C -5,0 C 40,2 km/h (6 Bft) 100,00 %
29.02.2016 08:20 6,2 C 91 % 1008,0 hPa 0,0 l/m 24,6 km/h (4 Bft) NO 46 0 min 0,000 mm 0,0 UV-I 25 W/m 4,8 C -3,2 C 30,6 km/h (5 Bft) 100,00 %
29.02.2016 08:21 6,2 C 91 % 1008,0 hPa 0,0 l/m 28,3 km/h (4 Bft) O-NO 57 0 min 0,000 mm 0,0 UV-I 23 W/m 4,8 C -4,3 C 38,6 km/h (5 Bft) 93,10 %
29.02.2016 08:22 6,2 C 91 % 1008,0 hPa 0,0 l/m 17,6 km/h (3 Bft) NO 56 0 min 0,000 mm 0,0 UV-I 22 W/m 4,8 C -0,7 C 27,4 km/h (4 Bft) 100,00 %
29.02.2016 08:23 6,2 C 91 % 1008,1 hPa 0,0 l/m 28,3 km/h (4 Bft) O-NO 58 0 min 0,000 mm 0,0 UV-I 21 W/m 4,8 C -4,3 C 37,0 km/h (5 Bft) 100,00 %
29.02.2016 08:24 6,2 C 91 % 1008,0 hPa 0,0 l/m 21,1 km/h (4 Bft) NO 40 0 min 0,000 mm 0,0 UV-I 21 W/m 4,8 C -2,0 C 25,7 km/h (4 Bft) 100,00 %
29.02.2016 08:25 6,2 C 91 % 1008,0 hPa 0,0 l/m 28,7 km/h (4 Bft) O-NO 64 0 min 0,000 mm 0,0 UV-I 23 W/m 4,8 C -4,4 C 38,6 km/h (5 Bft) 100,00 %
29.02.2016 08:26 6,2 C 91 % 1008,0 hPa 0,0 l/m 30,8 km/h (5 Bft) O 80 0 min 0,000 mm 0,0 UV-I 23 W/m 4,8 C -4,9 C 37,0 km/h (5 Bft) 100,00 %
29.02.2016 08:27 6,2 C 91 % 1008,0 hPa 0,0 l/m 32,8 km/h (5 Bft) O-NO 59 0 min 0,000 mm 0,0 UV-I 24 W/m 4,8 C -5,3 C 41,8 km/h (6 Bft) 100,00 %
29.02.2016 08:28 6,2 C 91 % 1008,0 hPa 0,0 l/m 28,9 km/h (5 Bft) NO 55 0 min 0,000 mm 0,0 UV-I 26 W/m 4,8 C -4,4 C 37,0 km/h (5 Bft) 96,15 %
29.02.2016 08:29 6,2 C 91 % 1008,0 hPa 0,0 l/m 21,5 km/h (4 Bft) O-NO 70 0 min 0,000 mm 0,0 UV-I 26 W/m 4,8 C -2,2 C 25,7 km/h (4 Bft) 100,00 %
29.02.2016 08:30 6,2 C 91 % 1008,0 hPa 0,0 l/m 28,8 km/h (4 Bft) NO 51 0 min 0,000 mm 0,0 UV-I 25 W/m 4,8 C -4,4 C 41,8 km/h (6 Bft) 100,00 %
29.02.2016 08:31 6,2 C 91 % 1008,0 hPa 0,0 l/m 23,3 km/h (4 Bft) NO 50 0 min 0,000 mm 0,0 UV-I 24 W/m 4,8 C -2,8 C 27,4 km/h (4 Bft) 100,00 %
29.02.2016 08:32 6,2 C 91 % 1008,1 hPa 0,0 l/m 22,4 km/h (4 Bft) NO 35 0 min 0,000 mm 0,0 UV-I 24 W/m 4,8 C -2,5 C 32,2 km/h (5 Bft) 100,00 %
29.02.2016 08:33 6,2 C 91 % 1008,1 hPa 0,0 l/m 27,4 km/h (4 Bft) O-NO 74 0 min 0,000 mm 0,0 UV-I 25 W/m 4,8 C -4,0 C 35,4 km/h (5 Bft) 100,00 %
29.02.2016 08:34 6,2 C 91 % 1008,1 hPa 0,0 l/m 31,9 km/h (5 Bft) O-NO 65 0 min 0,000 mm 0,0 UV-I 23 W/m 4,8 C -5,1 C 43,5 km/h (6 Bft) 100,00 %
29.02.2016 08:35 6,2 C 91 % 1008,1 hPa 0,0 l/m 31,7 km/h (5 Bft) O-NO 58 0 min 0,000 mm 0,0 UV-I 23 W/m 4,8 C -5,1 C 41,8 km/h (6 Bft) 100,00 %
29.02.2016 08:36 6,2 C 91 % 1008,1 hPa 0,0 l/m 26,6 km/h (4 Bft) O-NO 74 0 min 0,000 mm 0,0 UV-I 21 W/m 4,8 C -3,8 C 32,2 km/h (5 Bft) 100,00 %
29.02.2016 08:37 6,2 C 91 % 1008,1 hPa 0,0 l/m 29,2 km/h (5 Bft) O-NO 65 0 min 0,000 mm 0,0 UV-I 20 W/m 4,8 C -4,5 C 45,1 km/h (6 Bft) 100,00 %
29.02.2016 08:38 6,2 C 91 % 1008,1 hPa 0,0 l/m 29,5 km/h (5 Bft) O-NO 67 0 min 0,000 mm 0,0 UV-I 20 W/m 4,8 C -4,6 C 35,4 km/h (5 Bft) 100,00 %
29.02.2016 08:39 6,2 C 91 % 1008,1 hPa 0,0 l/m 25,8 km/h (4 Bft) NO 55 0 min 0,000 mm 0,0 UV-I 19 W/m 4,8 C -3,6 C 35,4 km/h (5 Bft) 96,15 %
29.02.2016 08:40 6,2 C 91 % 1008,1 hPa 0,0 l/m 27,8 km/h (4 Bft) O-NO 63 0 min 0,000 mm 0,0 UV-I 19 W/m 4,8 C -4,1 C 37,0 km/h (5 Bft) 100,00 %
29.02.2016 08:41 6,2 C 91 % 1008,1 hPa 0,0 l/m 19,0 km/h (3 Bft) O-NO 75 0 min 0,000 mm 0,0 UV-I 21 W/m 4,8 C -1,2 C 29,0 km/h (5 Bft) 95,65 %
29.02.2016 08:42 6,2 C 91 % 1008,1 hPa 0,0 l/m 22,4 km/h (4 Bft) O-NO 67 0 min 0,000 mm 0,0 UV-I 21 W/m 4,8 C -2,5 C 27,4 km/h (4 Bft) 100,00 %
29.02.2016 08:43 6,2 C 91 % 1008,1 hPa 0,0 l/m 30,0 km/h (5 Bft) O-NO 68 0 min 0,000 mm 0,0 UV-I 21 W/m 4,8 C -4,7 C 38,6 km/h (5 Bft) 92,86 %
29.02.2016 08:44 6,2 C 91 % 1008,1 hPa 0,0 l/m 29,6 km/h (5 Bft) O-NO 69 0 min 0,000 mm 0,0 UV-I 22 W/m 4,8 C -4,6 C 38,6 km/h (5 Bft) 100,00 %
29.02.2016 08:45 6,2 C 91 % 1008,1 hPa 0,0 l/m 29,0 km/h (5 Bft) NO 52 0 min 0,000 mm 0,0 UV-I 24 W/m 4,8 C -4,4 C 38,6 km/h (5 Bft) 100,00 %
29.02.2016 08:46 6,2 C 91 % 1008,1 hPa 0,0 l/m 31,0 km/h (5 Bft) O-NO 73 0 min 0,000 mm 0,0 UV-I 25 W/m 4,8 C -4,9 C 38,6 km/h (5 Bft) 93,33 %
29.02.2016 08:47 6,2 C 91 % 1008,1 hPa 0,0 l/m 24,1 km/h (4 Bft) O 89 0 min 0,000 mm 0,0 UV-I 26 W/m 4,8 C -3,0 C 35,4 km/h (5 Bft) 100,00 %
29.02.2016 08:48 6,2 C 91 % 1008,1 hPa 0,0 l/m 21,4 km/h (4 Bft) O-NO 59 0 min 0,000 mm 0,0 UV-I 25 W/m 4,8 C -2,1 C 32,2 km/h (5 Bft) 100,00 %
29.02.2016 08:49 6,2 C 91 % 1008,1 hPa 0,0 l/m 24,7 km/h (4 Bft) NO 55 0 min 0,000 mm 0,0 UV-I 25 W/m 4,8 C -3,2 C 29,0 km/h (5 Bft) 93,33 %
29.02.2016 08:50 6,2 C 91 % 1008,1 hPa 0,0 l/m 23,9 km/h (4 Bft) O 80 0 min 0,000 mm 0,0 UV-I 26 W/m 4,8 C -3,0 C 30,6 km/h (5 Bft) 100,00 %
29.02.2016 08:51 6,2 C 91 % 1008,1 hPa 0,0 l/m 27,0 km/h (4 Bft) NO 49 0 min 0,000 mm 0,0 UV-I 28 W/m 4,8 C -3,9 C 40,2 km/h (6 Bft) 100,00 %
29.02.2016 08:52 6,2 C 91 % 1008,1 hPa 0,0 l/m 33,3 km/h (5 Bft) N-NO 29 0 min 0,000 mm 0,0 UV-I 30 W/m 4,8 C -5,5 C 45,1 km/h (6 Bft) 100,00 %
29.02.2016 08:53 6,2 C 91 % 1008,1 hPa 0,0 l/m 35,6 km/h (5 Bft) O-NO 77 0 min 0,000 mm 0,0 UV-I 30 W/m 4,8 C -5,9 C 49,9 km/h (6 Bft) 100,00 %
29.02.2016 08:54 6,2 C 91 % 1008,1 hPa 0,0 l/m 31,9 km/h (5 Bft) O-NO 67 0 min 0,000 mm 0,0 UV-I 30 W/m 4,8 C -5,1 C 45,1 km/h (6 Bft) 100,00 %
29.02.2016 08:55 6,2 C 91 % 1008,1 hPa 0,0 l/m 31,6 km/h (5 Bft) O 80 0 min 0,000 mm 0,0 UV-I 29 W/m 4,8 C -5,1 C 46,7 km/h (6 Bft) 95,65 %
29.02.2016 08:56 6,2 C 91 % 1008,1 hPa 0,0 l/m 22,5 km/h (4 Bft) O-NO 75 0 min 0,000 mm 0,0 UV-I 28 W/m 4,8 C -2,5 C 33,8 km/h (5 Bft) 100,00 %
29.02.2016 08:57 6,2 C 91 % 1008,1 hPa 0,0 l/m 28,7 km/h (4 Bft) O-NO 77 0 min 0,000 mm 0,0 UV-I 28 W/m 4,8 C -4,4 C 41,8 km/h (6 Bft) 97,44 %
29.02.2016 08:58 6,2 C 91 % 1008,1 hPa 0,0 l/m 30,4 km/h (5 Bft) O-NO 75 0 min 0,000 mm 0,0 UV-I 30 W/m 4,8 C -4,8 C 43,5 km/h (6 Bft) 100,00 %
29.02.2016 08:59 6,2 C 91 % 1008,2 hPa 0,0 l/m 23,5 km/h (4 Bft) O-SO 110 0 min 0,000 mm 0,0 UV-I 28 W/m 4,8 C -2,8 C 32,2 km/h (5 Bft) 96,30 %
29.02.2016 09:00 6,2 C 91 % 1008,2 hPa 0,0 l/m 27,5 km/h (4 Bft) O 87 0 min 0,026 mm 0,0 UV-I 30 W/m 4,8 C -4,0 C 32,2 km/h (5 Bft) 96,15 %
29.02.2016 09:02 6,2 C 91 % 1008,2 hPa 0,0 l/m 28,1 km/h (4 Bft) O-NO 76 0 min 0,000 mm 0,0 UV-I 27 W/m 4,8 C -4,2 C 46,7 km/h (6 Bft) 97,56 %
29.02.2016 09:03 6,2 C 91 % 1008,2 hPa 0,0 l/m 25,8 km/h (4 Bft) NO 52 0 min 0,000 mm 0,0 UV-I 26 W/m 4,8 C -3,6 C 32,2 km/h (5 Bft) 100,00 %
29.02.2016 09:04 6,2 C 91 % 1008,2 hPa 0,0 l/m 25,0 km/h (4 Bft) O-NO 65 0 min 0,000 mm 0,0 UV-I 28 W/m 4,8 C -3,3 C 35,4 km/h (5 Bft) 96,15 %
29.02.2016 09:05 6,2 C 91 % 1008,1 hPa 0,0 l/m 27,0 km/h (4 Bft) NO 42 0 min 0,000 mm 0,0 UV-I 26 W/m 4,8 C -3,9 C 33,8 km/h (5 Bft) 100,00 %
29.02.2016 09:06 6,2 C 91 % 1008,1 hPa 0,0 l/m 24,6 km/h (4 Bft) O-NO 67 0 min 0,000 mm 0,0 UV-I 26 W/m 4,8 C -3,2 C 30,6 km/h (5 Bft) 92,86 %
29.02.2016 09:07 6,2 C 91 % 1008,1 hPa 0,0 l/m 24,3 km/h (4 Bft) NO 49 0 min 0,000 mm 0,0 UV-I 26 W/m 4,8 C -3,1 C 29,0 km/h (5 Bft) 100,00 %
29.02.2016 09:08 6,2 C 91 % 1008,1 hPa 0,0 l/m 22,8 km/h (4 Bft) NO 55 0 min 0,000 mm 0,0 UV-I 28 W/m 4,8 C -2,6 C 29,0 km/h (5 Bft) 96,15 %
29.02.2016 09:09 6,2 C 91 % 1008,1 hPa 0,0 l/m 26,9 km/h (4 Bft) NO 37 0 min 0,000 mm 0,0 UV-I 27 W/m 4,8 C -3,9 C 37,0 km/h (5 Bft) 92,59 %
29.02.2016 09:10 6,2 C 91 % 1008,1 hPa 0,0 l/m 27,1 km/h (4 Bft) O-NO 71 0 min 0,000 mm 0,0 UV-I 28 W/m 4,8 C -3,9 C 37,0 km/h (5 Bft) 100,00 %
29.02.2016 09:11 6,2 C 91 % 1008,1 hPa 0,0 l/m 36,5 km/h (5 Bft) O-NO 59 0 min 0,000 mm 0,0 UV-I 30 W/m 4,8 C -6,1 C 43,5 km/h (6 Bft) 96,30 %
29.02.2016 09:12 6,2 C 91 % 1008,1 hPa 0,0 l/m 24,7 km/h (4 Bft) NO 53 0 min 0,000 mm 0,0 UV-I 27 W/m 4,8 C -3,2 C 30,6 km/h (5 Bft) 100,00 %
29.02.2016 09:13 6,2 C 91 % 1008,1 hPa 0,0 l/m 23,5 km/h (4 Bft) O-NO 74 0 min 0,000 mm 0,0 UV-I 30 W/m 4,8 C -2,8 C 32,2 km/h (5 Bft) 96,67 %
29.02.2016 09:14 6,2 C 91 % 1008,1 hPa 0,0 l/m 25,9 km/h (4 Bft) O-NO 59 0 min 0,000 mm 0,0 UV-I 29 W/m 4,8 C -3,6 C 37,0 km/h (5 Bft) 100,00 %
29.02.2016 09:15 6,2 C 91 % 1008,1 hPa 0,0 l/m 30,2 km/h (5 Bft) O 101 0 min 0,000 mm 0,0 UV-I 27 W/m 4,8 C -4,7 C 37,0 km/h (5 Bft) 96,15 %
29.02.2016 09:16 6,2 C 91 % 1008,1 hPa 0,0 l/m 28,8 km/h (4 Bft) O-NO 76 0 min 0,000 mm 0,0 UV-I 26 W/m 4,8 C -4,4 C 38,6 km/h (5 Bft) 100,00 %
29.02.2016 09:17 6,2 C 91 % 1008,1 hPa 0,0 l/m 26,2 km/h (4 Bft) O-NO 69 0 min 0,000 mm 0,0 UV-I 26 W/m 4,8 C -3,7 C 37,0 km/h (5 Bft) 96,30 %
29.02.2016 09:18 6,2 C 91 % 1008,1 hPa 0,0 l/m 29,1 km/h (5 Bft) O-NO 70 0 min 0,000 mm 0,0 UV-I 26 W/m 4,8 C -4,5 C 41,8 km/h (6 Bft) 100,00 %
29.02.2016 09:19 6,2 C 91 % 1008,1 hPa 0,0 l/m 27,2 km/h (4 Bft) O-NO 73 0 min 0,000 mm 0,0 UV-I 26 W/m 4,8 C -4,0 C 35,4 km/h (5 Bft) 96,15 %
29.02.2016 09:20 6,2 C 91 % 1008,1 hPa 0,0 l/m 26,2 km/h (4 Bft) O-NO 64 0 min 0,000 mm 0,0 UV-I 25 W/m 4,8 C -3,7 C 35,4 km/h (5 Bft) 96,67 %
29.02.2016 09:21 6,1 C 91 % 1008,1 hPa 0,0 l/m 22,6 km/h (4 Bft) O 98 0 min 0,000 mm 0,0 UV-I 25 W/m 4,7 C -2,7 C 29,0 km/h (5 Bft) 100,00 %
29.02.2016 09:22 6,1 C 91 % 1008,1 hPa 0,0 l/m 22,9 km/h (4 Bft) O-NO 65 0 min 0,000 mm 0,0 UV-I 25 W/m 4,7 C -2,8 C 30,6 km/h (5 Bft) 95,83 %
29.02.2016 09:23 6,1 C 91 % 1008,2 hPa 0,0 l/m 27,5 km/h (4 Bft) O-NO 69 0 min 0,000 mm 0,0 UV-I 25 W/m 4,7 C -4,2 C 37,0 km/h (5 Bft) 100,00 %
29.02.2016 09:24 6,1 C 91 % 1008,1 hPa 0,0 l/m 31,5 km/h (5 Bft) NO 55 0 min 0,000 mm 0,0 UV-I 23 W/m 4,7 C -5,2 C 43,5 km/h (6 Bft) 96,97 %
29.02.2016 09:25 6,1 C 91 % 1008,1 hPa 0,0 l/m 32,4 km/h (5 Bft) NO 44 0 min 0,000 mm 0,0 UV-I 22 W/m 4,7 C -5,4 C 43,5 km/h (6 Bft) 96,15 %
29.02.2016 09:26 6,1 C 91 % 1008,1 hPa 0,0 l/m 25,2 km/h (4 Bft) NO 55 0 min 0,000 mm 0,0 UV-I 23 W/m 4,7 C -3,5 C 29,0 km/h (5 Bft) 100,00 %
29.02.2016 09:27 6,1 C 91 % 1008,1 hPa 0,0 l/m 30,1 km/h (5 Bft) O-NO 76 0 min 0,000 mm 0,0 UV-I 23 W/m 4,7 C -4,9 C 38,6 km/h (5 Bft) 92,31 %
29.02.2016 09:28 6,1 C 91 % 1008,1 hPa 0,0 l/m 23,6 km/h (4 Bft) O 84 0 min 0,000 mm 0,0 UV-I 23 W/m 4,7 C -3,0 C 32,2 km/h (5 Bft) 100,00 %
29.02.2016 09:29 6,1 C 91 % 1008,1 hPa 0,0 l/m 25,3 km/h (4 Bft) O-NO 74 0 min 0,000 mm 0,0 UV-I 21 W/m 4,7 C -3,5 C 35,4 km/h (5 Bft) 95,65 %
29.02.2016 09:30 6,1 C 91 % 1008,1 hPa 0,0 l/m 23,3 km/h (4 Bft) O-NO 69 0 min 0,000 mm 0,0 UV-I 21 W/m 4,7 C -2,9 C 29,0 km/h (5 Bft) 100,00 %
29.02.2016 09:31 6,1 C 91 % 1008,1 hPa 0,0 l/m 20,3 km/h (4 Bft) O-NO 74 0 min 0,000 mm 0,0 UV-I 22 W/m 4,7 C -1,9 C 25,7 km/h (4 Bft) 96,15 %
29.02.2016 09:32 6,1 C 92 % 1008,0 hPa 0,0 l/m 21,6 km/h (4 Bft) O-NO 67 0 min 0,000 mm 0,0 UV-I 25 W/m 4,9 C -2,3 C 30,6 km/h (5 Bft) 100,00 %
29.02.2016 09:33 6,1 C 91 % 1008,1 hPa 0,0 l/m 22,4 km/h (4 Bft) O 80 0 min 0,000 mm 0,0 UV-I 24 W/m 4,7 C -2,6 C 30,6 km/h (5 Bft) 96,15 %
29.02.2016 09:34 6,1 C 91 % 1008,1 hPa 0,0 l/m 27,4 km/h (4 Bft) O-NO 57 0 min 0,000 mm 0,0 UV-I 23 W/m 4,7 C -4,1 C 38,6 km/h (5 Bft) 100,00 %
29.02.2016 09:35 6,1 C 91 % 1008,1 hPa 0,0 l/m 23,2 km/h (4 Bft) O 87 0 min 0,000 mm 0,0 UV-I 22 W/m 4,7 C -2,9 C 33,8 km/h (5 Bft) 100,00 %
29.02.2016 09:36 6,1 C 91 % 1008,0 hPa 0,0 l/m 22,0 km/h (4 Bft) O-NO 74 0 min 0,000 mm 0,0 UV-I 21 W/m 4,7 C -2,5 C 32,2 km/h (5 Bft) 95,83 %
29.02.2016 09:37 6,0 C 91 % 1008,0 hPa 0,0 l/m 21,3 km/h (4 Bft) O-NO 62 0 min 0,000 mm 0,0 UV-I 22 W/m 4,6 C -2,4 C 25,7 km/h (4 Bft) 93,10 %
29.02.2016 09:38 6,0 C 91 % 1008,0 hPa 0,0 l/m 30,4 km/h (5 Bft) O-NO 68 0 min 0,000 mm 0,0 UV-I 22 W/m 4,6 C -5,1 C 38,6 km/h (5 Bft) 95,83 %
29.02.2016 09:39 6,0 C 91 % 1007,9 hPa 0,0 l/m 24,1 km/h (4 Bft) NO 51 0 min 0,000 mm 0,0 UV-I 21 W/m 4,6 C -3,3 C 30,6 km/h (5 Bft) 100,00 %
29.02.2016 09:40 6,0 C 91 % 1007,9 hPa 0,0 l/m 23,7 km/h (4 Bft) O-NO 60 0 min 0,000 mm 0,0 UV-I 21 W/m 4,6 C -3,2 C 32,2 km/h (5 Bft) 100,00 %
29.02.2016 09:41 6,0 C 91 % 1007,9 hPa 0,0 l/m 32,0 km/h (5 Bft) O-NO 71 0 min 0,000 mm 0,0 UV-I 23 W/m 4,6 C -5,4 C 41,8 km/h (6 Bft) 100,00 %
29.02.2016 09:42 6,0 C 91 % 1007,9 hPa 0,0 l/m 28,8 km/h (4 Bft) O-NO 60 0 min 0,000 mm 0,0 UV-I 24 W/m 4,6 C -4,7 C 37,0 km/h (5 Bft) 100,00 %
29.02.2016 09:43 6,0 C 91 % 1007,9 hPa 0,0 l/m 25,2 km/h (4 Bft) NO 50 0 min 0,000 mm 0,0 UV-I 25 W/m 4,6 C -3,6 C 32,2 km/h (5 Bft) 100,00 %
29.02.2016 09:44 6,0 C 91 % 1007,9 hPa 0,0 l/m 25,9 km/h (4 Bft) NO 56 0 min 0,000 mm 0,0 UV-I 25 W/m 4,6 C -3,9 C 32,2 km/h (5 Bft) 100,00 %
29.02.2016 09:45 6,0 C 91 % 1008,0 hPa 0,0 l/m 26,2 km/h (4 Bft) O 84 0 min 0,000 mm 0,0 UV-I 25 W/m 4,6 C -3,9 C 32,2 km/h (5 Bft) 92,59 %
29.02.2016 09:46 6,0 C 91 % 1007,9 hPa 0,0 l/m 21,7 km/h (4 Bft) NO 56 0 min 0,000 mm 0,0 UV-I 25 W/m 4,6 C -2,5 C 29,0 km/h (5 Bft) 100,00 %
29.02.2016 09:47 6,0 C 91 % 1008,0 hPa 0,0 l/m 29,0 km/h (5 Bft) NO 54 0 min 0,000 mm 0,0 UV-I 27 W/m 4,6 C -4,7 C 38,6 km/h (5 Bft) 100,00 %
29.02.2016 09:48 6,0 C 91 % 1007,9 hPa 0,0 l/m 31,9 km/h (5 Bft) O-NO 77 0 min 0,000 mm 0,0 UV-I 28 W/m 4,6 C -5,4 C 37,0 km/h (5 Bft) 100,00 %
29.02.2016 09:49 6,0 C 91 % 1007,9 hPa 0,0 l/m 27,1 km/h (4 Bft) O 81 0 min 0,000 mm 0,0 UV-I 31 W/m 4,6 C -4,2 C 35,4 km/h (5 Bft) 100,00 %
29.02.2016 09:50 6,0 C 91 % 1007,9 hPa 0,0 l/m 34,0 km/h (5 Bft) O-NO 57 0 min 0,000 mm 0,0 UV-I 32 W/m 4,6 C -5,9 C 40,2 km/h (6 Bft) 100,00 %
29.02.2016 09:51 6,0 C 91 % 1007,9 hPa 0,0 l/m 31,8 km/h (5 Bft) O-NO 68 0 min 0,000 mm 0,0 UV-I 33 W/m 4,6 C -5,4 C 45,1 km/h (6 Bft) 100,00 %
29.02.2016 09:52 6,0 C 91 % 1007,9 hPa 0,0 l/m 31,3 km/h (5 Bft) O-NO 67 0 min 0,000 mm 0,0 UV-I 32 W/m 4,6 C -5,3 C 45,1 km/h (6 Bft) 100,00 %
29.02.2016 09:53 6,0 C 91 % 1007,9 hPa 0,0 l/m 33,3 km/h (5 Bft) NO 55 0 min 0,000 mm 0,0 UV-I 34 W/m 4,6 C -5,7 C 45,1 km/h (6 Bft) 100,00 %
29.02.2016 09:54 6,0 C 91 % 1007,8 hPa 0,0 l/m 33,9 km/h (5 Bft) NO 53 0 min 0,000 mm 0,0 UV-I 34 W/m 4,6 C -5,9 C 41,8 km/h (6 Bft) 100,00 %
29.02.2016 09:55 6,0 C 91 % 1007,8 hPa 0,0 l/m 26,9 km/h (4 Bft) NO 55 0 min 0,000 mm 0,0 UV-I 32 W/m 4,6 C -4,1 C 37,0 km/h (5 Bft) 100,00 %
29.02.2016 09:56 6,0 C 91 % 1007,9 hPa 0,0 l/m 26,8 km/h (4 Bft) NO 55 0 min 0,000 mm 0,0 UV-I 30 W/m 4,6 C -4,1 C 33,8 km/h (5 Bft) 100,00 %
29.02.2016 09:57 6,0 C 91 % 1007,8 hPa 0,0 l/m 31,0 km/h (5 Bft) NO 48 0 min 0,000 mm 0,0 UV-I 32 W/m 4,6 C -5,2 C 40,2 km/h (6 Bft) 100,00 %
29.02.2016 09:58 6,0 C 91 % 1007,8 hPa 0,0 l/m 31,4 km/h (5 Bft) O-NO 78 0 min 0,000 mm 0,0 UV-I 32 W/m 4,6 C -5,3 C 40,2 km/h (6 Bft) 100,00 %
29.02.2016 09:59 6,0 C 91 % 1007,8 hPa 0,0 l/m 32,5 km/h (5 Bft) NO 52 0 min 0,000 mm 0,0 UV-I 33 W/m 4,6 C -5,6 C 38,6 km/h (5 Bft) 100,00 %
29.02.2016 10:00 6,1 C 91 % 1007,8 hPa 0,0 l/m 27,8 km/h (4 Bft) O 80 0 min 0,025 mm 0,0 UV-I 34 W/m 4,7 C -4,3 C 35,4 km/h (5 Bft) 96,15 %
29.02.2016 10:02 6,1 C 91 % 1007,8 hPa 0,0 l/m 30,3 km/h (5 Bft) O-NO 71 0 min 0,000 mm 0,0 UV-I 39 W/m 4,7 C -4,9 C 41,8 km/h (6 Bft) 100,00 %
29.02.2016 10:03 6,1 C 91 % 1007,8 hPa 0,0 l/m 31,8 km/h (5 Bft) O-NO 77 0 min 0,000 mm 0,0 UV-I 44 W/m 4,7 C -5,3 C 41,8 km/h (6 Bft) 100,00 %
29.02.2016 10:04 6,0 C 91 % 1007,7 hPa 0,0 l/m 34,1 km/h (5 Bft) O-NO 67 0 min 0,000 mm 0,0 UV-I 42 W/m 4,6 C -5,9 C 40,2 km/h (6 Bft) 100,00 %
29.02.2016 10:05 6,0 C 91 % 1007,8 hPa 0,0 l/m 32,6 km/h (5 Bft) O-NO 57 0 min 0,000 mm 0,0 UV-I 42 W/m 4,6 C -5,6 C 37,0 km/h (5 Bft) 100,00 %
29.02.2016 10:06 6,0 C 91 % 1007,8 hPa 0,0 l/m 28,2 km/h (4 Bft) O-NO 74 0 min 0,000 mm 0,0 UV-I 40 W/m 4,6 C -4,5 C 33,8 km/h (5 Bft) 100,00 %
29.02.2016 10:07 6,0 C 91 % 1007,7 hPa 0,0 l/m 26,2 km/h (4 Bft) NO 46 0 min 0,000 mm 0,0 UV-I 37 W/m 4,6 C -3,9 C 35,4 km/h (5 Bft) 100,00 %
29.02.2016 10:08 6,0 C 91 % 1007,7 hPa 0,0 l/m 26,7 km/h (4 Bft) NO 40 0 min 0,000 mm 0,0 UV-I 37 W/m 4,6 C -4,1 C 35,4 km/h (5 Bft) 100,00 %
29.02.2016 10:09 6,0 C 91 % 1007,7 hPa 0,0 l/m 21,1 km/h (4 Bft) O-NO 58 0 min 0,000 mm 0,0 UV-I 32 W/m 4,6 C -2,3 C 25,7 km/h (4 Bft) 100,00 %
29.02.2016 10:10 6,0 C 91 % 1007,7 hPa 0,0 l/m 25,5 km/h (4 Bft) O-NO 61 0 min 0,000 mm 0,0 UV-I 28 W/m 4,6 C -3,7 C 32,2 km/h (5 Bft) 100,00 %
29.02.2016 10:11 6,0 C 91 % 1007,7 hPa 0,0 l/m 23,7 km/h (4 Bft) NO 53 0 min 0,000 mm 0,0 UV-I 27 W/m 4,6 C -3,2 C 32,2 km/h (5 Bft) 100,00 %
29.02.2016 10:12 5,9 C 91 % 1007,7 hPa 0,0 l/m 26,9 km/h (4 Bft) O-NO 59 0 min 0,000 mm 0,0 UV-I 28 W/m 4,5 C -4,3 C 38,6 km/h (5 Bft) 100,00 %
29.02.2016 10:13 5,9 C 91 % 1007,6 hPa 0,0 l/m 28,1 km/h (4 Bft) NO 41 0 min 0,000 mm 0,0 UV-I 31 W/m 4,5 C -4,6 C 37,0 km/h (5 Bft) 100,00 %
29.02.2016 10:14 5,9 C 92 % 1007,6 hPa 0,2 l/m 31,4 km/h (5 Bft) O-NO 61 0 min 0,000 mm 0,0 UV-I 32 W/m 4,7 C -5,5 C 41,8 km/h (6 Bft) 100,00 %
29.02.2016 10:15 5,9 C 92 % 1007,6 hPa 0,0 l/m 34,2 km/h (5 Bft) NO 42 0 min 0,000 mm 0,0 UV-I 32 W/m 4,7 C -6,1 C 48,3 km/h (6 Bft) 100,00 %
29.02.2016 10:16 5,9 C 91 % 1007,6 hPa 0,0 l/m 37,3 km/h (5 Bft) O-NO 58 0 min 0,000 mm 0,0 UV-I 37 W/m 4,5 C -6,7 C 49,9 km/h (6 Bft) 100,00 %
29.02.2016 10:17 5,9 C 91 % 1007,6 hPa 0,0 l/m 34,0 km/h (5 Bft) NO 51 0 min 0,000 mm 0,0 UV-I 36 W/m 4,5 C -6,0 C 41,8 km/h (6 Bft) 100,00 %
29.02.2016 10:18 5,9 C 91 % 1007,6 hPa 0,0 l/m 32,7 km/h (5 Bft) NO 55 0 min 0,000 mm 0,0 UV-I 34 W/m 4,5 C -5,8 C 41,8 km/h (6 Bft) 96,30 %
29.02.2016 10:19 6,0 C 91 % 1007,6 hPa 0,0 l/m 32,1 km/h (5 Bft) NO 53 0 min 0,000 mm 0,0 UV-I 33 W/m 4,6 C -5,5 C 38,6 km/h (5 Bft) 100,00 %
29.02.2016 10:20 5,9 C 91 % 1007,6 hPa 0,2 l/m 35,3 km/h (5 Bft) O-NO 59 0 min 0,000 mm 0,0 UV-I 32 W/m 4,5 C -6,3 C 45,1 km/h (6 Bft) 96,15 %
29.02.2016 10:21 5,9 C 91 % 1007,6 hPa 0,0 l/m 30,2 km/h (5 Bft) O-NO 69 0 min 0,000 mm 0,0 UV-I 33 W/m 4,5 C -5,2 C 37,0 km/h (5 Bft) 100,00 %
29.02.2016 10:22 5,9 C 92 % 1007,6 hPa 0,0 l/m 25,1 km/h (4 Bft) NO 44 0 min 0,000 mm 0,0 UV-I 34 W/m 4,7 C -3,8 C 30,6 km/h (5 Bft) 100,00 %
29.02.2016 10:23 5,9 C 92 % 1007,6 hPa 0,0 l/m 30,3 km/h (5 Bft) NO 50 0 min 0,000 mm 0,0 UV-I 35 W/m 4,7 C -5,2 C 41,8 km/h (6 Bft) 100,00 %
29.02.2016 10:24 5,9 C 92 % 1007,7 hPa 0,0 l/m 25,8 km/h (4 Bft) NO 49 0 min 0,000 mm 0,0 UV-I 34 W/m 4,7 C -4,0 C 33,8 km/h (5 Bft) 100,00 %
29.02.2016 10:25 5,9 C 92 % 1007,7 hPa 0,0 l/m 28,2 km/h (4 Bft) NO 43 0 min 0,000 mm 0,0 UV-I 34 W/m 4,7 C -4,6 C 38,6 km/h (5 Bft) 100,00 %
29.02.2016 10:26 5,9 C 92 % 1007,6 hPa 0,0 l/m 26,8 km/h (4 Bft) O 92 0 min 0,000 mm 0,0 UV-I 35 W/m 4,7 C -4,3 C 35,4 km/h (5 Bft) 100,00 %
29.02.2016 10:27 5,9 C 92 % 1007,6 hPa 0,0 l/m 24,8 km/h (4 Bft) O 96 0 min 0,000 mm 0,0 UV-I 35 W/m 4,7 C -3,7 C 32,2 km/h (5 Bft) 100,00 %
29.02.2016 10:28 5,9 C 92 % 1007,7 hPa 0,0 l/m 28,8 km/h (4 Bft) O 79 0 min 0,000 mm 0,0 UV-I 36 W/m 4,7 C -4,8 C 40,2 km/h (6 Bft) 100,00 %
29.02.2016 10:29 5,9 C 92 % 1007,7 hPa 0,0 l/m 24,3 km/h (4 Bft) O-NO 60 0 min 0,000 mm 0,0 UV-I 36 W/m 4,7 C -3,5 C 32,2 km/h (5 Bft) 100,00 %
29.02.2016 10:30 5,9 C 92 % 1007,7 hPa 0,2 l/m 31,9 km/h (5 Bft) O-NO 68 0 min 0,000 mm 0,0 UV-I 35 W/m 4,7 C -5,6 C 38,6 km/h (5 Bft) 100,00 %
29.02.2016 10:31 5,9 C 92 % 1007,7 hPa 0,0 l/m 28,0 km/h (4 Bft) O-NO 71 0 min 0,000 mm 0,0 UV-I 34 W/m 4,7 C -4,6 C 38,6 km/h (5 Bft) 96,30 %
29.02.2016 10:32 5,9 C 92 % 1007,7 hPa 0,0 l/m 30,7 km/h (5 Bft) O 79 0 min 0,000 mm 0,0 UV-I 32 W/m 4,7 C -5,3 C 37,0 km/h (5 Bft) 92,86 %
29.02.2016 10:33 5,9 C 92 % 1007,6 hPa 0,0 l/m 24,8 km/h (4 Bft) NO 55 0 min 0,000 mm 0,0 UV-I 32 W/m 4,7 C -3,7 C 33,8 km/h (5 Bft) 96,77 %
29.02.2016 10:34 5,9 C 92 % 1007,7 hPa 0,0 l/m 24,9 km/h (4 Bft) O 88 0 min 0,000 mm 0,0 UV-I 31 W/m 4,7 C -3,7 C 32,2 km/h (5 Bft) 96,15 %
29.02.2016 10:35 5,9 C 92 % 1007,7 hPa 0,0 l/m 24,9 km/h (4 Bft) O-NO 61 0 min 0,000 mm 0,0 UV-I 29 W/m 4,7 C -3,7 C 32,2 km/h (5 Bft) 100,00 %
29.02.2016 10:36 5,9 C 92 % 1007,7 hPa 0,0 l/m 21,3 km/h (4 Bft) O-NO 67 0 min 0,000 mm 0,0 UV-I 30 W/m 4,7 C -2,5 C 29,0 km/h (5 Bft) 100,00 %
29.02.2016 10:37 5,9 C 92 % 1007,7 hPa 0,0 l/m 23,7 km/h (4 Bft) O-NO 57 0 min 0,000 mm 0,0 UV-I 30 W/m 4,7 C -3,3 C 32,2 km/h (5 Bft) 100,00 %
29.02.2016 10:38 5,9 C 92 % 1007,7 hPa 0,0 l/m 23,2 km/h (4 Bft) O-NO 63 0 min 0,000 mm 0,0 UV-I 30 W/m 4,7 C -3,1 C 29,0 km/h (5 Bft) 95,65 %
29.02.2016 10:39 5,9 C 92 % 1007,7 hPa 0,0 l/m 22,3 km/h (4 Bft) O-NO 66 0 min 0,000 mm 0,0 UV-I 29 W/m 4,7 C -2,8 C 27,4 km/h (4 Bft) 100,00 %
29.02.2016 10:40 5,9 C 92 % 1007,7 hPa 0,2 l/m 25,0 km/h (4 Bft) O-NO 63 0 min 0,000 mm 0,0 UV-I 32 W/m 4,7 C -3,7 C 32,2 km/h (5 Bft) 100,00 %
29.02.2016 10:41 5,9 C 92 % 1007,7 hPa 0,0 l/m 24,0 km/h (4 Bft) O-NO 67 0 min 0,000 mm 0,0 UV-I 32 W/m 4,7 C -3,4 C 35,4 km/h (5 Bft) 100,00 %
29.02.2016 10:42 5,9 C 92 % 1007,7 hPa 0,0 l/m 24,1 km/h (4 Bft) O-NO 68 0 min 0,000 mm 0,0 UV-I 31 W/m 4,7 C -3,4 C 35,4 km/h (5 Bft) 100,00 %
29.02.2016 10:43 5,9 C 92 % 1007,6 hPa 0,0 l/m 27,1 km/h (4 Bft) O-NO 59 0 min 0,000 mm 0,0 UV-I 31 W/m 4,7 C -4,3 C 35,4 km/h (5 Bft) 100,00 %
29.02.2016 10:44 5,9 C 92 % 1007,6 hPa 0,0 l/m 24,6 km/h (4 Bft) NO 51 0 min 0,000 mm 0,0 UV-I 33 W/m 4,7 C -3,6 C 32,2 km/h (5 Bft) 92,59 %
29.02.2016 10:45 5,9 C 92 % 1007,6 hPa 0,0 l/m 27,8 km/h (4 Bft) O-NO 71 0 min 0,000 mm 0,0 UV-I 35 W/m 4,7 C -4,5 C 35,4 km/h (5 Bft) 92,86 %
29.02.2016 10:46 5,9 C 92 % 1007,6 hPa 0,0 l/m 21,2 km/h (4 Bft) O-NO 74 0 min 0,000 mm 0,0 UV-I 30 W/m 4,7 C -2,5 C 32,2 km/h (5 Bft) 100,00 %
29.02.2016 10:47 5,9 C 92 % 1007,6 hPa 0,2 l/m 24,9 km/h (4 Bft) O-NO 63 0 min 0,000 mm 0,0 UV-I 30 W/m 4,7 C -3,7 C 40,2 km/h (6 Bft) 100,00 %
29.02.2016 10:48 5,9 C 92 % 1007,5 hPa 0,0 l/m 27,5 km/h (4 Bft) O 86 0 min 0,000 mm 0,0 UV-I 30 W/m 4,7 C -4,5 C 37,0 km/h (5 Bft) 100,00 %
29.02.2016 10:49 5,9 C 92 % 1007,5 hPa 0,0 l/m 19,7 km/h (3 Bft) O 82 0 min 0,000 mm 0,0 UV-I 32 W/m 4,7 C -1,9 C 24,1 km/h (4 Bft) 100,00 %
29.02.2016 10:50 5,9 C 92 % 1007,5 hPa 0,2 l/m 25,3 km/h (4 Bft) O-NO 74 0 min 0,000 mm 0,0 UV-I 33 W/m 4,7 C -3,8 C 29,0 km/h (5 Bft) 100,00 %
29.02.2016 10:51 5,9 C 92 % 1007,5 hPa 0,0 l/m 24,3 km/h (4 Bft) O-NO 74 0 min 0,000 mm 0,0 UV-I 32 W/m 4,7 C -3,5 C 32,2 km/h (5 Bft) 100,00 %
29.02.2016 10:52 5,9 C 92 % 1007,5 hPa 0,0 l/m 22,7 km/h (4 Bft) O-NO 59 0 min 0,000 mm 0,0 UV-I 33 W/m 4,7 C -3,0 C 33,8 km/h (5 Bft) 100,00 %
29.02.2016 10:53 5,9 C 92 % 1007,5 hPa 0,0 l/m 27,4 km/h (4 Bft) O 88 0 min 0,000 mm 0,0 UV-I 32 W/m 4,7 C -4,4 C 37,0 km/h (5 Bft) 100,00 %
29.02.2016 10:54 5,9 C 92 % 1007,4 hPa 0,0 l/m 30,9 km/h (5 Bft) NO 51 0 min 0,000 mm 0,0 UV-I 32 W/m 4,7 C -5,3 C 38,6 km/h (5 Bft) 100,00 %
29.02.2016 10:55 5,9 C 92 % 1007,4 hPa 0,0 l/m 23,9 km/h (4 Bft) O-NO 67 0 min 0,000 mm 0,0 UV-I 32 W/m 4,7 C -3,4 C 32,2 km/h (5 Bft) 100,00 %
29.02.2016 10:56 5,9 C 92 % 1007,3 hPa 0,2 l/m 28,8 km/h (4 Bft) O-NO 59 0 min 0,000 mm 0,0 UV-I 34 W/m 4,7 C -4,8 C 37,0 km/h (5 Bft) 100,00 %
29.02.2016 10:57 5,9 C 92 % 1007,3 hPa 0,0 l/m 22,4 km/h (4 Bft) NO 43 0 min 0,000 mm 0,0 UV-I 37 W/m 4,7 C -2,9 C 29,0 km/h (5 Bft) 100,00 %
29.02.2016 10:58 5,9 C 92 % 1007,3 hPa 0,0 l/m 26,2 km/h (4 Bft) NO 51 0 min 0,000 mm 0,0 UV-I 37 W/m 4,7 C -4,1 C 33,8 km/h (5 Bft) 100,00 %
29.02.2016 10:59 5,9 C 92 % 1007,3 hPa 0,0 l/m 26,4 km/h (4 Bft) O-NO 63 0 min 0,000 mm 0,0 UV-I 37 W/m 4,7 C -4,1 C 32,2 km/h (5 Bft) 92,59 %
29.02.2016 11:00 5,9 C 92 % 1007,3 hPa 0,2 l/m 26,8 km/h (4 Bft) NO 41 0 min 0,026 mm 0,0 UV-I 36 W/m 4,7 C -4,3 C 33,8 km/h (5 Bft) 96,15 %
29.02.2016 11:02 5,9 C 92 % 1007,2 hPa 0,0 l/m 22,5 km/h (4 Bft) NO 56 0 min 0,000 mm 0,0 UV-I 35 W/m 4,7 C -2,9 C 37,0 km/h (5 Bft) 97,73 %
29.02.2016 11:03 5,9 C 92 % 1007,2 hPa 0,0 l/m 23,1 km/h (4 Bft) NO 36 0 min 0,000 mm 0,0 UV-I 39 W/m 4,7 C -3,1 C 29,0 km/h (5 Bft) 100,00 %
29.02.2016 11:04 5,9 C 92 % 1007,2 hPa 0,0 l/m 25,1 km/h (4 Bft) NO 56 0 min 0,000 mm 0,0 UV-I 37 W/m 4,7 C -3,8 C 35,4 km/h (5 Bft) 94,12 %
29.02.2016 11:05 5,9 C 92 % 1007,1 hPa 0,0 l/m 31,8 km/h (5 Bft) O-NO 57 0 min 0,000 mm 0,0 UV-I 37 W/m 4,7 C -5,5 C 38,6 km/h (5 Bft) 95,83 %
29.02.2016 11:06 5,9 C 92 % 1007,1 hPa 0,0 l/m 23,2 km/h (4 Bft) N-NO 30 0 min 0,000 mm 0,0 UV-I 38 W/m 4,7 C -3,1 C 30,6 km/h (5 Bft) 95,65 %
29.02.2016 11:07 5,9 C 92 % 1007,0 hPa 0,2 l/m 28,8 km/h (4 Bft) O-NO 59 0 min 0,000 mm 0,0 UV-I 39 W/m 4,7 C -4,8 C 40,2 km/h (6 Bft) 100,00 %
29.02.2016 11:08 5,9 C 92 % 1007,1 hPa 0,0 l/m 24,8 km/h (4 Bft) O-NO 60 0 min 0,000 mm 0,0 UV-I 32 W/m 4,7 C -3,7 C 35,4 km/h (5 Bft) 96,15 %
29.02.2016 11:09 5,9 C 92 % 1007,0 hPa 0,0 l/m 27,4 km/h (4 Bft) NO 51 0 min 0,000 mm 0,0 UV-I 28 W/m 4,7 C -4,4 C 33,8 km/h (5 Bft) 100,00 %
29.02.2016 11:10 5,9 C 92 % 1007,0 hPa 0,0 l/m 18,4 km/h (3 Bft) NO 54 0 min 0,000 mm 0,0 UV-I 28 W/m 4,7 C -1,4 C 27,4 km/h (4 Bft) 96,15 %
29.02.2016 11:11 5,9 C 92 % 1007,1 hPa 0,2 l/m 25,2 km/h (4 Bft) NO 44 0 min 0,000 mm 0,0 UV-I 28 W/m 4,7 C -3,8 C 29,0 km/h (5 Bft) 96,30 %
29.02.2016 11:12 5,9 C 92 % 1007,1 hPa 0,0 l/m 25,6 km/h (4 Bft) NO 52 0 min 0,000 mm 0,0 UV-I 31 W/m 4,7 C -3,9 C 32,2 km/h (5 Bft) 100,00 %
29.02.2016 11:13 5,9 C 93 % 1007,1 hPa 0,0 l/m 22,9 km/h (4 Bft) NO 55 0 min 0,000 mm 0,0 UV-I 28 W/m 4,9 C -3,0 C 27,4 km/h (4 Bft) 96,77 %
29.02.2016 11:14 5,9 C 93 % 1007,1 hPa 0,0 l/m 22,2 km/h (4 Bft) O-NO 60 0 min 0,000 mm 0,0 UV-I 26 W/m 4,9 C -2,8 C 30,6 km/h (5 Bft) 93,33 %
29.02.2016 11:15 5,9 C 93 % 1007,1 hPa 0,0 l/m 29,3 km/h (5 Bft) NO 49 0 min 0,000 mm 0,0 UV-I 28 W/m 4,9 C -4,9 C 37,0 km/h (5 Bft) 96,55 %
29.02.2016 11:16 5,9 C 93 % 1007,1 hPa 0,0 l/m 27,4 km/h (4 Bft) NO 46 0 min 0,000 mm 0,0 UV-I 29 W/m 4,9 C -4,4 C 32,2 km/h (5 Bft) 100,00 %
29.02.2016 11:17 5,9 C 93 % 1007,0 hPa 0,2 l/m 27,5 km/h (4 Bft) NO 47 0 min 0,000 mm 0,0 UV-I 33 W/m 4,9 C -4,5 C 33,8 km/h (5 Bft) 92,86 %
29.02.2016 11:18 5,9 C 93 % 1006,9 hPa 0,0 l/m 22,5 km/h (4 Bft) O-NO 57 0 min 0,000 mm 0,0 UV-I 35 W/m 4,9 C -2,9 C 29,0 km/h (5 Bft) 94,74 %
29.02.2016 11:19 5,9 C 93 % 1006,9 hPa 0,0 l/m 31,1 km/h (5 Bft) NO 41 0 min 0,000 mm 0,0 UV-I 37 W/m 4,9 C -5,4 C 41,8 km/h (6 Bft) 100,00 %
29.02.2016 11:20 5,9 C 93 % 1006,8 hPa 0,0 l/m 23,8 km/h (4 Bft) NO 41 0 min 0,000 mm 0,0 UV-I 41 W/m 4,9 C -3,3 C 38,6 km/h (5 Bft) 100,00 %
29.02.2016 11:21 5,9 C 93 % 1006,8 hPa 0,0 l/m 23,9 km/h (4 Bft) NO 43 0 min 0,000 mm 0,0 UV-I 44 W/m 4,9 C -3,4 C 32,2 km/h (5 Bft) 95,65 %
29.02.2016 11:22 5,9 C 93 % 1006,8 hPa 0,2 l/m 25,6 km/h (4 Bft) NO 43 0 min 0,000 mm 0,0 UV-I 44 W/m 4,9 C -3,9 C 38,6 km/h (5 Bft) 96,67 %
29.02.2016 11:23 5,9 C 93 % 1006,8 hPa 0,0 l/m 28,2 km/h (4 Bft) NO 51 0 min 0,000 mm 0,0 UV-I 45 W/m 4,9 C -4,6 C 32,2 km/h (5 Bft) 100,00 %
29.02.2016 11:24 5,9 C 93 % 1007,0 hPa 0,0 l/m 25,5 km/h (4 Bft) O-NO 62 0 min 0,000 mm 0,0 UV-I 41 W/m 4,9 C -3,9 C 33,8 km/h (5 Bft) 100,00 %
29.02.2016 11:25 5,9 C 93 % 1007,0 hPa 0,0 l/m 27,8 km/h (4 Bft) NO 53 0 min 0,000 mm 0,0 UV-I 39 W/m 4,9 C -4,5 C 32,2 km/h (5 Bft) 97,73 %
29.02.2016 11:26 5,9 C 93 % 1007,0 hPa 0,0 l/m 23,4 km/h (4 Bft) N-NO 29 0 min 0,000 mm 0,0 UV-I 38 W/m 4,9 C -3,2 C 35,4 km/h (5 Bft) 91,67 %
29.02.2016 11:27 5,9 C 93 % 1007,0 hPa 0,0 l/m 21,5 km/h (4 Bft) O-NO 75 0 min 0,000 mm 0,0 UV-I 37 W/m 4,9 C -2,6 C 27,4 km/h (4 Bft) 96,88 %
29.02.2016 11:28 5,9 C 93 % 1007,1 hPa 0,0 l/m 25,7 km/h (4 Bft) O-NO 58 0 min 0,000 mm 0,0 UV-I 36 W/m 4,9 C -3,9 C 33,8 km/h (5 Bft) 100,00 %
29.02.2016 11:29 5,9 C 93 % 1007,0 hPa 0,0 l/m 21,1 km/h (4 Bft) O-NO 62 0 min 0,000 mm 0,0 UV-I 37 W/m 4,9 C -2,4 C 25,7 km/h (4 Bft) 95,65 %
29.02.2016 11:30 5,9 C 93 % 1007,1 hPa 0,0 l/m 19,0 km/h (3 Bft) O-NO 59 0 min 0,000 mm 0,0 UV-I 37 W/m 4,9 C -1,6 C 30,6 km/h (5 Bft) 100,00 %
29.02.2016 11:31 5,9 C 93 % 1007,1 hPa 0,0 l/m 19,2 km/h (3 Bft) NO 56 0 min 0,000 mm 0,0 UV-I 33 W/m 4,9 C -1,7 C 27,4 km/h (4 Bft) 92,86 %
29.02.2016 11:32 5,9 C 93 % 1007,2 hPa 0,0 l/m 26,6 km/h (4 Bft) NO 54 0 min 0,000 mm 0,0 UV-I 32 W/m 4,9 C -4,2 C 37,0 km/h (5 Bft) 100,00 %
29.02.2016 11:33 5,9 C 93 % 1007,2 hPa 0,0 l/m 25,6 km/h (4 Bft) NO 44 0 min 0,000 mm 0,0 UV-I 28 W/m 4,9 C -3,9 C 33,8 km/h (5 Bft) 96,15 %
29.02.2016 11:34 5,9 C 93 % 1007,2 hPa 0,0 l/m 22,8 km/h (4 Bft) O-NO 64 0 min 0,000 mm 0,0 UV-I 26 W/m 4,9 C -3,0 C 30,6 km/h (5 Bft) 100,00 %
29.02.2016 11:35 5,9 C 93 % 1007,4 hPa 0,0 l/m 20,8 km/h (4 Bft) NO 36 0 min 0,000 mm 0,0 UV-I 25 W/m 4,9 C -2,3 C 27,4 km/h (4 Bft) 100,00 %
29.02.2016 11:36 5,9 C 93 % 1007,5 hPa 0,0 l/m 21,5 km/h (4 Bft) O 101 0 min 0,000 mm 0,0 UV-I 25 W/m 4,9 C -2,6 C 29,0 km/h (5 Bft) 100,00 %
29.02.2016 11:37 5,9 C 93 % 1007,5 hPa 0,0 l/m 16,2 km/h (3 Bft) NO 37 0 min 0,000 mm 0,0 UV-I 23 W/m 4,9 C -0,4 C 22,5 km/h (4 Bft) 96,15 %
29.02.2016 11:38 5,9 C 93 % 1007,5 hPa 0,0 l/m 21,5 km/h (4 Bft) O-NO 74 0 min 0,000 mm 0,0 UV-I 21 W/m 4,9 C -2,6 C 32,2 km/h (5 Bft) 100,00 %
29.02.2016 11:39 5,9 C 93 % 1007,5 hPa 0,0 l/m 24,1 km/h (4 Bft) O-NO 57 0 min 0,000 mm 0,0 UV-I 21 W/m 4,9 C -3,4 C 32,2 km/h (5 Bft) 100,00 %
29.02.2016 11:40 5,9 C 93 % 1007,5 hPa 0,0 l/m 19,9 km/h (4 Bft) NO 34 0 min 0,000 mm 0,0 UV-I 21 W/m 4,9 C -2,0 C 25,7 km/h (4 Bft) 95,65 %
29.02.2016 11:41 5,9 C 93 % 1007,5 hPa 0,0 l/m 19,0 km/h (3 Bft) NO 45 0 min 0,000 mm 0,0 UV-I 21 W/m 4,9 C -1,6 C 25,7 km/h (4 Bft) 100,00 %
29.02.2016 11:42 5,9 C 93 % 1007,5 hPa 0,0 l/m 14,3 km/h (3 Bft) NO 50 0 min 0,000 mm 0,0 UV-I 24 W/m 4,9 C 0,5 C 17,7 km/h (3 Bft) 95,65 %
29.02.2016 11:43 5,9 C 93 % 1007,5 hPa 0,0 l/m 14,0 km/h (3 Bft) NO 53 0 min 0,000 mm 0,0 UV-I 26 W/m 4,9 C 0,7 C 17,7 km/h (3 Bft) 100,00 %
29.02.2016 11:44 5,9 C 93 % 1007,5 hPa 0,0 l/m 20,5 km/h (4 Bft) O-NO 74 0 min 0,000 mm 0,0 UV-I 25 W/m 4,9 C -2,2 C 24,1 km/h (4 Bft) 100,00 %
29.02.2016 11:45 5,9 C 93 % 1007,5 hPa 0,0 l/m 16,0 km/h (3 Bft) NO 54 0 min 0,000 mm 0,0 UV-I 25 W/m 4,9 C -0,3 C 20,9 km/h (4 Bft) 93,33 %
29.02.2016 11:46 5,9 C 93 % 1007,5 hPa 0,0 l/m 18,3 km/h (3 Bft) O-NO 71 0 min 0,000 mm 0,0 UV-I 25 W/m 4,9 C -1,3 C 20,9 km/h (4 Bft) 100,00 %
29.02.2016 11:47 5,9 C 93 % 1007,4 hPa 0,0 l/m 18,9 km/h (3 Bft) NO 42 0 min 0,000 mm 0,0 UV-I 25 W/m 4,9 C -1,6 C 24,1 km/h (4 Bft) 100,00 %
29.02.2016 11:48 5,9 C 93 % 1007,5 hPa 0,0 l/m 21,6 km/h (4 Bft) NO 51 0 min 0,000 mm 0,0 UV-I 28 W/m 4,9 C -2,6 C 29,0 km/h (5 Bft) 100,00 %
29.02.2016 11:49 5,9 C 93 % 1007,5 hPa 0,0 l/m 20,8 km/h (4 Bft) O-NO 74 0 min 0,000 mm 0,0 UV-I 30 W/m 4,9 C -2,3 C 25,7 km/h (4 Bft) 100,00 %
29.02.2016 11:50 5,9 C 93 % 1007,5 hPa 0,0 l/m 25,5 km/h (4 Bft) O-NO 57 0 min 0,000 mm 0,0 UV-I 29 W/m 4,9 C -3,9 C 35,4 km/h (5 Bft) 96,55 %
29.02.2016 11:51 5,9 C 93 % 1007,4 hPa 0,0 l/m 29,5 km/h (5 Bft) NO 45 0 min 0,000 mm 0,0 UV-I 28 W/m 4,9 C -5,0 C 37,0 km/h (5 Bft) 100,00 %
29.02.2016 11:52 5,9 C 92 % 1007,4 hPa 0,0 l/m 22,9 km/h (4 Bft) O 80 0 min 0,000 mm 0,0 UV-I 26 W/m 4,7 C -3,0 C 32,2 km/h (5 Bft) 100,00 %
29.02.2016 11:53 5,9 C 92 % 1007,4 hPa 0,0 l/m 21,9 km/h (4 Bft) O-NO 61 0 min 0,000 mm 0,0 UV-I 26 W/m 4,7 C -2,7 C 32,2 km/h (5 Bft) 100,00 %
29.02.2016 11:54 5,9 C 93 % 1007,3 hPa 0,0 l/m 25,8 km/h (4 Bft) NO 49 0 min 0,000 mm 0,0 UV-I 28 W/m 4,9 C -4,0 C 38,6 km/h (5 Bft) 100,00 %
29.02.2016 11:55 6,0 C 92 % 1007,2 hPa 0,0 l/m 32,0 km/h (5 Bft) O-NO 69 0 min 0,000 mm 0,0 UV-I 30 W/m 4,8 C -5,4 C 43,5 km/h (6 Bft) 100,00 %
29.02.2016 11:56 6,0 C 92 % 1007,2 hPa 0,0 l/m 28,5 km/h (4 Bft) NO 53 0 min 0,000 mm 0,0 UV-I 32 W/m 4,8 C -4,6 C 35,4 km/h (5 Bft) 91,67 %
29.02.2016 11:57 6,0 C 92 % 1007,2 hPa 0,0 l/m 32,3 km/h (5 Bft) O-NO 64 0 min 0,000 mm 0,0 UV-I 34 W/m 4,8 C -5,5 C 46,7 km/h (6 Bft) 100,00 %
29.02.2016 11:58 6,1 C 92 % 1007,2 hPa 0,0 l/m 32,8 km/h (5 Bft) O-NO 60 0 min 0,000 mm 0,0 UV-I 33 W/m 4,9 C -5,5 C 45,1 km/h (6 Bft) 100,00 %
29.02.2016 11:59 6,0 C 92 % 1007,2 hPa 0,0 l/m 26,4 km/h (4 Bft) NO 42 0 min 0,000 mm 0,0 UV-I 29 W/m 4,8 C -4,0 C 32,2 km/h (5 Bft) 100,00 %
29.02.2016 12:00 6,1 C 92 % 1007,2 hPa 0,0 l/m 25,9 km/h (4 Bft) O-NO 65 0 min 0,000 mm 0,0 UV-I 26 W/m 4,9 C -3,7 C 29,0 km/h (5 Bft) 100,00 %
29.02.2016 12:02 6,1 C 92 % 1007,1 hPa 0,0 l/m 21,0 km/h (4 Bft) O-NO 74 0 min 0,025 mm 0,0 UV-I 31 W/m 4,9 C -2,1 C 29,0 km/h (5 Bft) 100,00 %
29.02.2016 12:03 6,1 C 92 % 1007,0 hPa 0,0 l/m 22,4 km/h (4 Bft) O-NO 61 0 min 0,000 mm 0,0 UV-I 36 W/m 4,9 C -2,6 C 30,6 km/h (5 Bft) 96,15 %
29.02.2016 12:04 6,1 C 92 % 1007,0 hPa 0,0 l/m 28,2 km/h (4 Bft) O-NO 61 0 min 0,000 mm 0,0 UV-I 36 W/m 4,9 C -4,4 C 35,4 km/h (5 Bft) 100,00 %
29.02.2016 12:05 6,1 C 92 % 1007,0 hPa 0,0 l/m 22,9 km/h (4 Bft) O-NO 65 0 min 0,000 mm 0,0 UV-I 33 W/m 4,9 C -2,8 C 29,0 km/h (5 Bft) 100,00 %
29.02.2016 12:06 6,1 C 92 % 1007,0 hPa 0,0 l/m 27,3 km/h (4 Bft) O-NO 75 0 min 0,000 mm 0,0 UV-I 32 W/m 4,9 C -4,1 C 35,4 km/h (5 Bft) 100,00 %
29.02.2016 12:07 6,1 C 92 % 1006,9 hPa 0,0 l/m 27,9 km/h (4 Bft) O-NO 57 0 min 0,000 mm 0,0 UV-I 34 W/m 4,9 C -4,3 C 38,6 km/h (5 Bft) 100,00 %
29.02.2016 12:08 6,1 C 91 % 1006,9 hPa 0,2 l/m 27,7 km/h (4 Bft) NO 55 0 min 0,000 mm 0,0 UV-I 39 W/m 4,7 C -4,2 C 33,8 km/h (5 Bft) 100,00 %
29.02.2016 12:09 6,1 C 91 % 1006,9 hPa 0,0 l/m 28,6 km/h (4 Bft) NO 46 0 min 0,000 mm 0,0 UV-I 45 W/m 4,7 C -4,5 C 38,6 km/h (5 Bft) 100,00 %
29.02.2016 12:10 6,1 C 91 % 1006,9 hPa 0,0 l/m 22,3 km/h (4 Bft) NO 51 0 min 0,000 mm 0,0 UV-I 38 W/m 4,7 C -2,6 C 27,4 km/h (4 Bft) 100,00 %
29.02.2016 12:11 6,1 C 92 % 1007,0 hPa 0,0 l/m 25,1 km/h (4 Bft) O-NO 58 0 min 0,000 mm 0,0 UV-I 29 W/m 4,9 C -3,5 C 35,4 km/h (5 Bft) 96,55 %
29.02.2016 12:12 6,1 C 91 % 1007,0 hPa 0,0 l/m 26,5 km/h (4 Bft) O-NO 77 0 min 0,000 mm 0,0 UV-I 29 W/m 4,7 C -3,9 C 35,4 km/h (5 Bft) 96,30 %
29.02.2016 12:13 6,1 C 92 % 1007,0 hPa 0,0 l/m 24,2 km/h (4 Bft) O-NO 64 0 min 0,000 mm 0,0 UV-I 34 W/m 4,9 C -3,2 C 32,2 km/h (5 Bft) 100,00 %
29.02.2016 12:14 6,1 C 92 % 1007,0 hPa 0,0 l/m 20,3 km/h (4 Bft) NO 54 0 min 0,000 mm 0,0 UV-I 34 W/m 4,9 C -1,9 C 33,8 km/h (5 Bft) 100,00 %
29.02.2016 12:15 6,1 C 92 % 1007,0 hPa 0,0 l/m 25,5 km/h (4 Bft) O-NO 58 0 min 0,000 mm 0,0 UV-I 34 W/m 4,9 C -3,6 C 29,0 km/h (5 Bft) 100,00 %
29.02.2016 12:16 6,1 C 91 % 1007,0 hPa 0,0 l/m 21,0 km/h (4 Bft) O-NO 69 0 min 0,000 mm 0,0 UV-I 30 W/m 4,7 C -2,1 C 33,8 km/h (5 Bft) 100,00 %
29.02.2016 12:17 6,1 C 91 % 1007,0 hPa 0,0 l/m 28,1 km/h (4 Bft) NO 42 0 min 0,000 mm 0,0 UV-I 30 W/m 4,7 C -4,3 C 33,8 km/h (5 Bft) 100,00 %
29.02.2016 12:18 6,1 C 91 % 1007,0 hPa 0,0 l/m 18,7 km/h (3 Bft) NO 47 0 min 0,000 mm 0,0 UV-I 30 W/m 4,7 C -1,2 C 24,1 km/h (4 Bft) 96,15 %
29.02.2016 12:19 6,1 C 91 % 1007,0 hPa 0,0 l/m 21,0 km/h (4 Bft) NO 44 0 min 0,000 mm 0,0 UV-I 32 W/m 4,7 C -2,1 C 30,6 km/h (5 Bft) 96,30 %
29.02.2016 12:20 6,1 C 91 % 1007,0 hPa 0,0 l/m 21,3 km/h (4 Bft) O 84 0 min 0,000 mm 0,0 UV-I 28 W/m 4,7 C -2,2 C 30,6 km/h (5 Bft) 100,00 %
29.02.2016 12:21 6,1 C 91 % 1007,0 hPa 0,0 l/m 29,2 km/h (5 Bft) O-NO 65 0 min 0,000 mm 0,0 UV-I 25 W/m 4,7 C -4,6 C 40,2 km/h (6 Bft) 100,00 %
29.02.2016 12:22 6,1 C 91 % 1007,0 hPa 0,0 l/m 28,1 km/h (4 Bft) NO 49 0 min 0,000 mm 0,0 UV-I 22 W/m 4,7 C -4,3 C 33,8 km/h (5 Bft) 100,00 %
29.02.2016 12:23 6,1 C 91 % 1006,9 hPa 0,0 l/m 20,1 km/h (4 Bft) O-NO 61 0 min 0,000 mm 0,0 UV-I 24 W/m 4,7 C -1,8 C 25,7 km/h (4 Bft) 100,00 %
29.02.2016 12:24 6,1 C 91 % 1006,9 hPa 0,0 l/m 21,6 km/h (4 Bft) O-NO 65 0 min 0,000 mm 0,0 UV-I 28 W/m 4,7 C -2,3 C 40,2 km/h (6 Bft) 100,00 %
29.02.2016 12:25 6,1 C 91 % 1006,9 hPa 0,0 l/m 26,9 km/h (4 Bft) O-NO 76 0 min 0,000 mm 0,0 UV-I 31 W/m 4,7 C -4,0 C 38,6 km/h (5 Bft) 100,00 %
29.02.2016 12:26 6,1 C 91 % 1006,8 hPa 0,0 l/m 25,5 km/h (4 Bft) O-NO 57 0 min 0,000 mm 0,0 UV-I 34 W/m 4,7 C -3,6 C 37,0 km/h (5 Bft) 100,00 %
29.02.2016 12:27 6,1 C 91 % 1006,8 hPa 0,0 l/m 28,0 km/h (4 Bft) NO 52 0 min 0,000 mm 0,0 UV-I 34 W/m 4,7 C -4,3 C 35,4 km/h (5 Bft) 100,00 %
29.02.2016 12:28 6,1 C 91 % 1006,9 hPa 0,0 l/m 25,6 km/h (4 Bft) NO 51 0 min 0,000 mm 0,0 UV-I 32 W/m 4,7 C -3,6 C 35,4 km/h (5 Bft) 100,00 %
29.02.2016 12:29 6,1 C 90 % 1006,8 hPa 0,0 l/m 33,7 km/h (5 Bft) NO 37 0 min 0,000 mm 0,0 UV-I 33 W/m 4,6 C -5,7 C 43,5 km/h (6 Bft) 100,00 %
29.02.2016 12:30 6,2 C 90 % 1006,8 hPa 0,0 l/m 24,7 km/h (4 Bft) NO 35 0 min 0,000 mm 0,0 UV-I 33 W/m 4,7 C -3,2 C 30,6 km/h (5 Bft) 100,00 %
29.02.2016 12:31 6,2 C 90 % 1006,8 hPa 0,0 l/m 23,8 km/h (4 Bft) O-NO 65 0 min 0,000 mm 0,0 UV-I 31 W/m 4,7 C -2,9 C 30,6 km/h (5 Bft) 96,67 %
29.02.2016 12:32 6,2 C 90 % 1006,8 hPa 0,0 l/m 28,4 km/h (4 Bft) O 80 0 min 0,000 mm 0,0 UV-I 34 W/m 4,7 C -4,3 C 37,0 km/h (5 Bft) 100,00 %
29.02.2016 12:33 6,2 C 90 % 1006,7 hPa 0,0 l/m 30,6 km/h (5 Bft) O 79 0 min 0,000 mm 0,0 UV-I 36 W/m 4,7 C -4,8 C 38,6 km/h (5 Bft) 93,33 %
29.02.2016 12:34 6,2 C 90 % 1006,7 hPa 0,0 l/m 30,6 km/h (5 Bft) NO 53 0 min 0,000 mm 0,0 UV-I 33 W/m 4,7 C -4,8 C 41,8 km/h (6 Bft) 100,00 %
29.02.2016 12:35 6,2 C 90 % 1006,7 hPa 0,0 l/m 28,5 km/h (4 Bft) NO 43 0 min 0,000 mm 0,0 UV-I 33 W/m 4,7 C -4,3 C 35,4 km/h (5 Bft) 100,00 %
29.02.2016 12:36 6,2 C 90 % 1006,7 hPa 0,0 l/m 22,0 km/h (4 Bft) O-NO 69 0 min 0,000 mm 0,0 UV-I 40 W/m 4,7 C -2,3 C 30,6 km/h (5 Bft) 100,00 %
29.02.2016 12:37 6,2 C 90 % 1006,7 hPa 0,0 l/m 23,5 km/h (4 Bft) O-NO 67 0 min 0,000 mm 0,0 UV-I 41 W/m 4,7 C -2,8 C 30,6 km/h (5 Bft) 96,15 %
29.02.2016 12:38 6,2 C 90 % 1006,7 hPa 0,0 l/m 28,9 km/h (5 Bft) NO 37 0 min 0,000 mm 0,0 UV-I 40 W/m 4,7 C -4,4 C 33,8 km/h (5 Bft) 100,00 %
29.02.2016 12:39 6,2 C 90 % 1006,7 hPa 0,0 l/m 26,2 km/h (4 Bft) O-NO 65 0 min 0,000 mm 0,0 UV-I 41 W/m 4,7 C -3,7 C 35,4 km/h (5 Bft) 100,00 %
29.02.2016 12:40 6,2 C 90 % 1006,7 hPa 0,0 l/m 27,4 km/h (4 Bft) NO 50 0 min 0,000 mm 0,0 UV-I 44 W/m 4,7 C -4,0 C 33,8 km/h (5 Bft) 100,00 %
29.02.2016 12:41 6,2 C 90 % 1006,6 hPa 0,0 l/m 24,0 km/h (4 Bft) O-NO 71 0 min 0,000 mm 0,0 UV-I 44 W/m 4,7 C -3,0 C 30,6 km/h (5 Bft) 100,00 %
29.02.2016 12:42 6,2 C 90 % 1006,7 hPa 0,0 l/m 25,1 km/h (4 Bft) O-NO 65 0 min 0,000 mm 0,0 UV-I 42 W/m 4,7 C -3,3 C 35,4 km/h (5 Bft) 100,00 %
29.02.2016 12:43 6,2 C 90 % 1006,7 hPa 0,0 l/m 30,1 km/h (5 Bft) O-NO 74 0 min 0,000 mm 0,0 UV-I 41 W/m 4,7 C -4,7 C 37,0 km/h (5 Bft) 91,30 %
29.02.2016 12:44 6,2 C 90 % 1006,7 hPa 0,0 l/m 26,3 km/h (4 Bft) NO 38 0 min 0,000 mm 0,0 UV-I 44 W/m 4,7 C -3,7 C 35,4 km/h (5 Bft) 100,00 %
29.02.2016 12:45 6,2 C 90 % 1006,7 hPa 0,0 l/m 26,9 km/h (4 Bft) O-NO 59 0 min 0,000 mm 0,0 UV-I 47 W/m 4,7 C -3,9 C 35,4 km/h (5 Bft) 100,00 %
29.02.2016 12:46 6,2 C 90 % 1006,7 hPa 0,0 l/m 25,7 km/h (4 Bft) NO 41 0 min 0,000 mm 0,0 UV-I 47 W/m 4,7 C -3,5 C 30,6 km/h (5 Bft) 100,00 %
29.02.2016 12:47 6,2 C 90 % 1006,6 hPa 0,0 l/m 24,4 km/h (4 Bft) O-NO 59 0 min 0,000 mm 0,0 UV-I 44 W/m 4,7 C -3,1 C 32,2 km/h (5 Bft) 100,00 %
29.02.2016 12:48 6,2 C 90 % 1006,6 hPa 0,0 l/m 22,0 km/h (4 Bft) O-NO 57 0 min 0,000 mm 0,0 UV-I 44 W/m 4,7 C -2,3 C 29,0 km/h (5 Bft) 100,00 %
29.02.2016 12:49 6,2 C 90 % 1006,6 hPa 0,0 l/m 21,3 km/h (4 Bft) O-NO 70 0 min 0,000 mm 0,0 UV-I 47 W/m 4,7 C -2,1 C 25,7 km/h (4 Bft) 97,37 %
29.02.2016 12:50 6,2 C 90 % 1006,6 hPa 0,0 l/m 27,9 km/h (4 Bft) NO 39 0 min 0,000 mm 0,0 UV-I 43 W/m 4,7 C -4,1 C 40,2 km/h (6 Bft) 100,00 %
29.02.2016 12:51 6,2 C 89 % 1006,6 hPa 0,0 l/m 37,1 km/h (5 Bft) NO 47 0 min 0,000 mm 0,0 UV-I 41 W/m 4,5 C -6,2 C 43,5 km/h (6 Bft) 100,00 %
29.02.2016 12:52 6,2 C 89 % 1006,5 hPa 0,0 l/m 34,9 km/h (5 Bft) O 84 0 min 0,000 mm 0,0 UV-I 47 W/m 4,5 C -5,8 C 45,1 km/h (6 Bft) 100,00 %
29.02.2016 12:53 6,3 C 89 % 1006,5 hPa 0,0 l/m 31,6 km/h (5 Bft) O-NO 70 0 min 0,000 mm 0,0 UV-I 54 W/m 4,6 C -4,9 C 41,8 km/h (6 Bft) 96,67 %
29.02.2016 12:54 6,3 C 89 % 1006,5 hPa 0,0 l/m 36,3 km/h (5 Bft) NO 40 0 min 0,000 mm 0,0 UV-I 57 W/m 4,6 C -5,9 C 45,1 km/h (6 Bft) 100,00 %
29.02.2016 12:55 6,3 C 89 % 1006,4 hPa 0,0 l/m 30,8 km/h (5 Bft) O-NO 74 0 min 0,000 mm 0,0 UV-I 50 W/m 4,6 C -4,7 C 37,0 km/h (5 Bft) 100,00 %
29.02.2016 12:56 6,3 C 89 % 1006,5 hPa 0,0 l/m 31,5 km/h (5 Bft) O-NO 69 0 min 0,000 mm 0,0 UV-I 45 W/m 4,6 C -4,9 C 43,5 km/h (6 Bft) 96,15 %
29.02.2016 12:57 6,3 C 89 % 1006,4 hPa 0,0 l/m 30,0 km/h (5 Bft) O-NO 74 0 min 0,000 mm 0,0 UV-I 43 W/m 4,6 C -4,5 C 41,8 km/h (6 Bft) 100,00 %
29.02.2016 12:58 6,3 C 89 % 1006,5 hPa 0,0 l/m 26,1 km/h (4 Bft) NO 54 0 min 0,000 mm 0,0 UV-I 40 W/m 4,6 C -3,5 C 32,2 km/h (5 Bft) 100,00 %
29.02.2016 12:59 6,3 C 89 % 1006,4 hPa 0,0 l/m 28,3 km/h (4 Bft) O-NO 69 0 min 0,000 mm 0,0 UV-I 47 W/m 4,6 C -4,1 C 37,0 km/h (5 Bft) 97,62 %
29.02.2016 13:00 6,3 C 89 % 1006,4 hPa 0,0 l/m 22,1 km/h (4 Bft) O-NO 59 0 min 0,000 mm 0,0 UV-I 58 W/m 4,6 C -2,2 C 29,0 km/h (5 Bft) 100,00 %
29.02.2016 13:02 6,3 C 90 % 1006,3 hPa 0,0 l/m 31,0 km/h (5 Bft) NO 42 0 min 0,025 mm 0,0 UV-I 55 W/m 4,8 C -4,8 C 40,2 km/h (6 Bft) 97,56 %
29.02.2016 13:03 6,3 C 89 % 1006,2 hPa 0,0 l/m 32,3 km/h (5 Bft) NO 52 0 min 0,000 mm 0,0 UV-I 53 W/m 4,6 C -5,1 C 48,3 km/h (6 Bft) 100,00 %
29.02.2016 13:04 6,3 C 89 % 1006,3 hPa 0,0 l/m 35,8 km/h (5 Bft) O-NO 62 0 min 0,000 mm 0,0 UV-I 54 W/m 4,6 C -5,8 C 45,1 km/h (6 Bft) 92,31 %
29.02.2016 13:05 6,3 C 89 % 1006,3 hPa 0,0 l/m 32,7 km/h (5 Bft) NO 39 0 min 0,000 mm 0,0 UV-I 53 W/m 4,6 C -5,2 C 43,5 km/h (6 Bft) 100,00 %
29.02.2016 13:06 6,3 C 89 % 1006,3 hPa 0,0 l/m 29,1 km/h (5 Bft) O-NO 59 0 min 0,000 mm 0,0 UV-I 54 W/m 4,6 C -4,3 C 38,6 km/h (5 Bft) 95,65 %
29.02.2016 13:07 6,3 C 89 % 1006,3 hPa 0,0 l/m 30,2 km/h (5 Bft) O-NO 57 0 min 0,000 mm 0,0 UV-I 55 W/m 4,6 C -4,6 C 41,8 km/h (6 Bft) 100,00 %
29.02.2016 13:08 6,3 C 89 % 1006,2 hPa 0,0 l/m 36,5 km/h (5 Bft) O-NO 58 0 min 0,000 mm 0,0 UV-I 55 W/m 4,6 C -6,0 C 45,1 km/h (6 Bft) 96,15 %
29.02.2016 13:09 6,3 C 89 % 1006,2 hPa 0,0 l/m 27,7 km/h (4 Bft) NO 54 0 min 0,000 mm 0,0 UV-I 54 W/m 4,6 C -4,0 C 35,4 km/h (5 Bft) 100,00 %
29.02.2016 13:10 6,3 C 89 % 1006,2 hPa 0,0 l/m 27,9 km/h (4 Bft) O-NO 57 0 min 0,000 mm 0,0 UV-I 56 W/m 4,6 C -4,0 C 32,2 km/h (5 Bft) 94,12 %
29.02.2016 13:11 6,3 C 89 % 1006,2 hPa 0,0 l/m 32,4 km/h (5 Bft) NO 44 0 min 0,000 mm 0,0 UV-I 55 W/m 4,6 C -5,1 C 40,2 km/h (6 Bft) 96,67 %
29.02.2016 13:12 6,3 C 89 % 1006,2 hPa 0,0 l/m 33,4 km/h (5 Bft) NO 53 0 min 0,000 mm 0,0 UV-I 53 W/m 4,6 C -5,3 C 40,2 km/h (6 Bft) 100,00 %
29.02.2016 13:13 6,3 C 89 % 1006,2 hPa 0,0 l/m 30,5 km/h (5 Bft) NO 44 0 min 0,000 mm 0,0 UV-I 53 W/m 4,6 C -4,7 C 43,5 km/h (6 Bft) 96,30 %
29.02.2016 13:14 6,3 C 88 % 1006,3 hPa 0,0 l/m 34,4 km/h (5 Bft) O-NO 64 0 min 0,000 mm 0,0 UV-I 54 W/m 4,5 C -5,5 C 43,5 km/h (6 Bft) 100,00 %
29.02.2016 13:15 6,3 C 89 % 1006,2 hPa 0,0 l/m 32,8 km/h (5 Bft) O-NO 59 0 min 0,000 mm 0,0 UV-I 53 W/m 4,6 C -5,2 C 40,2 km/h (6 Bft) 96,30 %
29.02.2016 13:16 6,3 C 88 % 1006,3 hPa 0,0 l/m 27,4 km/h (4 Bft) NO 42 0 min 0,000 mm 0,0 UV-I 53 W/m 4,5 C -3,9 C 40,2 km/h (6 Bft) 91,67 %
29.02.2016 13:17 6,3 C 89 % 1006,3 hPa 0,0 l/m 35,0 km/h (5 Bft) O-NO 67 0 min 0,000 mm 0,0 UV-I 60 W/m 4,6 C -5,7 C 48,3 km/h (6 Bft) 96,55 %
29.02.2016 13:18 6,3 C 88 % 1006,3 hPa 0,0 l/m 30,0 km/h (5 Bft) O-NO 59 0 min 0,000 mm 0,0 UV-I 59 W/m 4,5 C -4,5 C 38,6 km/h (5 Bft) 96,30 %
29.02.2016 13:19 6,3 C 88 % 1006,3 hPa 0,0 l/m 28,7 km/h (4 Bft) N-NO 27 0 min 0,000 mm 0,0 UV-I 60 W/m 4,5 C -4,2 C 38,6 km/h (5 Bft) 90,91 %
29.02.2016 13:20 6,4 C 89 % 1006,2 hPa 0,0 l/m 27,8 km/h (4 Bft) NO 52 0 min 0,000 mm 0,0 UV-I 57 W/m 4,7 C -3,8 C 33,8 km/h (5 Bft) 100,00 %
29.02.2016 13:21 6,4 C 89 % 1006,2 hPa 0,0 l/m 36,6 km/h (5 Bft) O-NO 61 0 min 0,000 mm 0,0 UV-I 63 W/m 4,7 C -5,8 C 43,5 km/h (6 Bft) 85,71 %
29.02.2016 13:22 6,4 C 88 % 1006,2 hPa 0,0 l/m 26,4 km/h (4 Bft) O 93 0 min 0,000 mm 0,0 UV-I 76 W/m 4,6 C -3,5 C 38,6 km/h (5 Bft) 97,44 %
29.02.2016 13:23 6,4 C 89 % 1006,2 hPa 0,0 l/m 26,4 km/h (4 Bft) O-NO 72 0 min 0,000 mm 0,0 UV-I 80 W/m 4,7 C -3,5 C 35,4 km/h (5 Bft) 100,00 %
29.02.2016 13:24 6,4 C 89 % 1006,1 hPa 0,0 l/m 28,6 km/h (4 Bft) O-NO 75 0 min 0,000 mm 0,0 UV-I 72 W/m 4,7 C -4,1 C 41,8 km/h (6 Bft) 95,83 %
29.02.2016 13:25 6,4 C 89 % 1006,1 hPa 0,0 l/m 28,8 km/h (4 Bft) O-NO 59 0 min 0,000 mm 0,0 UV-I 67 W/m 4,7 C -4,1 C 35,4 km/h (5 Bft) 100,00 %
29.02.2016 13:26 6,4 C 88 % 1006,1 hPa 0,0 l/m 34,8 km/h (5 Bft) NO 45 0 min 0,000 mm 0,0 UV-I 67 W/m 4,6 C -5,5 C 45,1 km/h (6 Bft) 95,83 %
29.02.2016 13:27 6,4 C 89 % 1006,1 hPa 0,0 l/m 36,4 km/h (5 Bft) O-NO 58 0 min 0,000 mm 0,0 UV-I 66 W/m 4,7 C -5,8 C 43,5 km/h (6 Bft) 100,00 %
29.02.2016 13:30 6,4 C 89 % 1006,1 hPa 0,0 l/m 27,9 km/h (4 Bft) O-NO 58 0 min 0,000 mm 0,0 UV-I 67 W/m 4,7 C -3,9 C 38,6 km/h (5 Bft) 97,33 %
29.02.2016 13:31 6,4 C 89 % 1006,1 hPa 0,0 l/m 30,6 km/h (5 Bft) NO 40 0 min 0,000 mm 0,0 UV-I 72 W/m 4,7 C -4,6 C 35,4 km/h (5 Bft) 100,00 %
29.02.2016 13:32 6,4 C 89 % 1006,0 hPa 0,0 l/m 31,1 km/h (5 Bft) NO 43 0 min 0,000 mm 0,0 UV-I 69 W/m 4,7 C -4,7 C 41,8 km/h (6 Bft) 96,30 %
29.02.2016 13:33 6,4 C 89 % 1006,0 hPa 0,0 l/m 30,1 km/h (5 Bft) O-NO 65 0 min 0,000 mm 0,0 UV-I 69 W/m 4,7 C -4,4 C 40,2 km/h (6 Bft) 92,31 %
29.02.2016 13:34 6,4 C 88 % 1006,0 hPa 0,0 l/m 30,9 km/h (5 Bft) NO 53 0 min 0,000 mm 0,0 UV-I 75 W/m 4,6 C -4,6 C 41,8 km/h (6 Bft) 100,00 %
29.02.2016 13:35 6,4 C 89 % 1006,0 hPa 0,0 l/m 36,1 km/h (5 Bft) O-NO 77 0 min 0,000 mm 0,0 UV-I 75 W/m 4,7 C -5,7 C 43,5 km/h (6 Bft) 96,15 %
29.02.2016 13:36 6,4 C 89 % 1006,0 hPa 0,0 l/m 29,7 km/h (5 Bft) O 88 0 min 0,000 mm 0,0 UV-I 70 W/m 4,7 C -4,3 C 38,6 km/h (5 Bft) 100,00 %
29.02.2016 13:37 6,4 C 89 % 1006,0 hPa 0,0 l/m 32,5 km/h (5 Bft) NO 46 0 min 0,000 mm 0,0 UV-I 68 W/m 4,7 C -5,0 C 40,2 km/h (6 Bft) 95,83 %
29.02.2016 13:38 6,4 C 89 % 1006,0 hPa 0,0 l/m 28,0 km/h (4 Bft) O 84 0 min 0,000 mm 0,0 UV-I 66 W/m 4,7 C -3,9 C 38,6 km/h (5 Bft) 100,00 %
29.02.2016 13:39 6,4 C 89 % 1006,0 hPa 0,2 l/m 30,8 km/h (5 Bft) NO 51 0 min 0,000 mm 0,0 UV-I 69 W/m 4,7 C -4,6 C 38,6 km/h (5 Bft) 95,83 %
29.02.2016 13:40 6,4 C 88 % 1006,0 hPa 0,0 l/m 23,5 km/h (4 Bft) NO 53 0 min 0,000 mm 0,0 UV-I 64 W/m 4,6 C -2,6 C 35,4 km/h (5 Bft) 100,00 %
29.02.2016 13:41 6,4 C 89 % 1005,9 hPa 0,0 l/m 25,3 km/h (4 Bft) NO 43 0 min 0,000 mm 0,0 UV-I 64 W/m 4,7 C -3,1 C 33,8 km/h (5 Bft) 100,00 %
29.02.2016 13:42 6,4 C 89 % 1006,0 hPa 0,0 l/m 27,6 km/h (4 Bft) O-NO 71 0 min 0,000 mm 0,0 UV-I 66 W/m 4,7 C -3,8 C 32,2 km/h (5 Bft) 95,65 %
29.02.2016 13:43 6,4 C 89 % 1006,0 hPa 0,0 l/m 32,2 km/h (5 Bft) NO 55 0 min 0,000 mm 0,0 UV-I 72 W/m 4,7 C -4,9 C 38,6 km/h (5 Bft) 100,00 %
29.02.2016 13:44 6,4 C 89 % 1005,9 hPa 0,0 l/m 28,7 km/h (4 Bft) NO 52 0 min 0,000 mm 0,0 UV-I 71 W/m 4,7 C -4,1 C 37,0 km/h (5 Bft) 100,00 %
29.02.2016 13:45 6,4 C 89 % 1005,9 hPa 0,0 l/m 26,9 km/h (4 Bft) NO 44 0 min 0,000 mm 0,0 UV-I 72 W/m 4,7 C -3,6 C 35,4 km/h (5 Bft) 100,00 %
29.02.2016 13:46 6,4 C 89 % 1005,9 hPa 0,0 l/m 23,8 km/h (4 Bft) O-NO 60 0 min 0,000 mm 0,0 UV-I 70 W/m 4,7 C -2,7 C 32,2 km/h (5 Bft) 100,00 %
29.02.2016 13:47 6,4 C 89 % 1005,9 hPa 0,0 l/m 24,6 km/h (4 Bft) O-NO 65 0 min 0,000 mm 0,0 UV-I 67 W/m 4,7 C -2,9 C 32,2 km/h (5 Bft) 93,33 %
29.02.2016 13:48 6,4 C 89 % 1005,9 hPa 0,0 l/m 27,0 km/h (4 Bft) O-NO 68 0 min 0,000 mm 0,0 UV-I 67 W/m 4,7 C -3,6 C 37,0 km/h (5 Bft) 96,15 %
29.02.2016 13:49 6,4 C 89 % 1005,9 hPa 0,0 l/m 24,1 km/h (4 Bft) NO 54 0 min 0,000 mm 0,0 UV-I 63 W/m 4,7 C -2,8 C 29,0 km/h (5 Bft) 100,00 %
29.02.2016 13:50 6,4 C 89 % 1005,9 hPa 0,0 l/m 25,7 km/h (4 Bft) NO 42 0 min 0,000 mm 0,0 UV-I 62 W/m 4,7 C -3,3 C 33,8 km/h (5 Bft) 100,00 %
29.02.2016 13:51 6,4 C 89 % 1005,9 hPa 0,0 l/m 33,0 km/h (5 Bft) NO 38 0 min 0,000 mm 0,0 UV-I 59 W/m 4,7 C -5,1 C 41,8 km/h (6 Bft) 100,00 %
29.02.2016 13:52 6,4 C 89 % 1005,9 hPa 0,0 l/m 23,3 km/h (4 Bft) NO 55 0 min 0,000 mm 0,0 UV-I 62 W/m 4,7 C -2,5 C 38,6 km/h (5 Bft) 100,00 %
29.02.2016 13:53 6,5 C 89 % 1005,9 hPa 0,0 l/m 21,6 km/h (4 Bft) NO 53 0 min 0,000 mm 0,0 UV-I 66 W/m 4,8 C -1,8 C 27,4 km/h (4 Bft) 93,33 %
29.02.2016 13:54 6,5 C 89 % 1005,9 hPa 0,0 l/m 23,8 km/h (4 Bft) NO 51 0 min 0,000 mm 0,0 UV-I 66 W/m 4,8 C -2,5 C 37,0 km/h (5 Bft) 100,00 %
29.02.2016 13:55 6,5 C 89 % 1005,9 hPa 0,0 l/m 32,8 km/h (5 Bft) O-NO 59 0 min 0,000 mm 0,0 UV-I 63 W/m 4,8 C -4,9 C 40,2 km/h (6 Bft) 100,00 %
29.02.2016 13:56 6,5 C 89 % 1005,8 hPa 0,0 l/m 28,4 km/h (4 Bft) O-NO 61 0 min 0,000 mm 0,0 UV-I 62 W/m 4,8 C -3,9 C 35,4 km/h (5 Bft) 100,00 %
29.02.2016 13:57 6,5 C 89 % 1005,9 hPa 0,0 l/m 26,4 km/h (4 Bft) O 80 0 min 0,000 mm 0,0 UV-I 62 W/m 4,8 C -3,3 C 33,8 km/h (5 Bft) 100,00 %
29.02.2016 13:58 6,5 C 89 % 1005,9 hPa 0,0 l/m 22,2 km/h (4 Bft) O-NO 66 0 min 0,000 mm 0,0 UV-I 62 W/m 4,8 C -2,0 C 27,4 km/h (4 Bft) 100,00 %
29.02.2016 13:59 6,5 C 89 % 1005,9 hPa 0,0 l/m 24,9 km/h (4 Bft) O-NO 61 0 min 0,000 mm 0,0 UV-I 57 W/m 4,8 C -2,9 C 37,0 km/h (5 Bft) 100,00 %
29.02.2016 14:00 6,5 C 89 % 1005,8 hPa 0,0 l/m 27,9 km/h (4 Bft) NO 47 0 min 0,051 mm 0,0 UV-I 60 W/m 4,8 C -3,7 C 33,8 km/h (5 Bft) 100,00 %
29.02.2016 14:02 6,5 C 89 % 1005,8 hPa 0,0 l/m 26,0 km/h (4 Bft) O-NO 60 0 min 0,000 mm 0,0 UV-I 66 W/m 4,8 C -3,2 C 32,2 km/h (5 Bft) 97,56 %
29.02.2016 14:03 6,5 C 89 % 1005,8 hPa 0,0 l/m 29,6 km/h (5 Bft) NO 44 0 min 0,000 mm 0,0 UV-I 73 W/m 4,8 C -4,2 C 33,8 km/h (5 Bft) 100,00 %
29.02.2016 14:04 6,5 C 89 % 1005,8 hPa 0,0 l/m 22,0 km/h (4 Bft) O-NO 64 0 min 0,000 mm 0,0 UV-I 75 W/m 4,8 C -2,0 C 29,0 km/h (5 Bft) 100,00 %
29.02.2016 14:05 6,5 C 89 % 1005,9 hPa 0,0 l/m 23,4 km/h (4 Bft) O-NO 71 0 min 0,000 mm 0,0 UV-I 80 W/m 4,8 C -2,4 C 29,0 km/h (5 Bft) 100,00 %
29.02.2016 14:06 6,5 C 89 % 1005,9 hPa 0,0 l/m 19,6 km/h (3 Bft) O-NO 66 0 min 0,000 mm 0,0 UV-I 77 W/m 4,8 C -1,1 C 25,7 km/h (4 Bft) 100,00 %
29.02.2016 14:07 6,5 C 89 % 1005,9 hPa 0,0 l/m 20,5 km/h (4 Bft) O-NO 57 0 min 0,000 mm 0,0 UV-I 81 W/m 4,8 C -1,4 C 30,6 km/h (5 Bft) 95,65 %
29.02.2016 14:08 6,6 C 89 % 1005,9 hPa 0,0 l/m 24,7 km/h (4 Bft) NO 48 0 min 0,000 mm 0,0 UV-I 80 W/m 4,9 C -2,7 C 30,6 km/h (5 Bft) 100,00 %
29.02.2016 14:09 6,5 C 89 % 1005,9 hPa 0,0 l/m 22,7 km/h (4 Bft) O-NO 61 0 min 0,000 mm 0,0 UV-I 81 W/m 4,8 C -2,2 C 30,6 km/h (5 Bft) 96,15 %
29.02.2016 14:10 6,6 C 89 % 1005,9 hPa 0,0 l/m 21,9 km/h (4 Bft) O-NO 65 0 min 0,000 mm 0,0 UV-I 84 W/m 4,9 C -1,8 C 27,4 km/h (4 Bft) 100,00 %
29.02.2016 14:11 6,6 C 89 % 1005,9 hPa 0,0 l/m 23,5 km/h (4 Bft) NO 45 0 min 0,000 mm 0,0 UV-I 85 W/m 4,9 C -2,3 C 29,0 km/h (5 Bft) 100,00 %
29.02.2016 14:12 6,6 C 89 % 1005,9 hPa 0,0 l/m 21,6 km/h (4 Bft) O-NO 69 0 min 0,000 mm 0,0 UV-I 78 W/m 4,9 C -1,7 C 32,2 km/h (5 Bft) 100,00 %
29.02.2016 14:13 6,6 C 89 % 1006,0 hPa 0,0 l/m 25,2 km/h (4 Bft) NO 42 0 min 0,000 mm 0,0 UV-I 71 W/m 4,9 C -2,8 C 33,8 km/h (5 Bft) 100,00 %
29.02.2016 14:14 6,6 C 89 % 1005,9 hPa 0,0 l/m 21,1 km/h (4 Bft) O-NO 65 0 min 0,000 mm 0,0 UV-I 75 W/m 4,9 C -1,5 C 27,4 km/h (4 Bft) 100,00 %
29.02.2016 14:15 6,6 C 89 % 1005,9 hPa 0,0 l/m 23,7 km/h (4 Bft) NO 41 0 min 0,000 mm 0,0 UV-I 74 W/m 4,9 C -2,4 C 29,0 km/h (5 Bft) 100,00 %
29.02.2016 14:16 6,6 C 89 % 1005,9 hPa 0,0 l/m 23,6 km/h (4 Bft) NO 41 0 min 0,000 mm 0,0 UV-I 70 W/m 4,9 C -2,3 C 27,4 km/h (4 Bft) 100,00 %
29.02.2016 14:17 6,6 C 89 % 1005,9 hPa 0,0 l/m 19,3 km/h (3 Bft) NO 55 0 min 0,000 mm 0,0 UV-I 70 W/m 4,9 C -0,8 C 24,1 km/h (4 Bft) 100,00 %
29.02.2016 14:18 6,6 C 89 % 1005,9 hPa 0,0 l/m 20,1 km/h (4 Bft) O-NO 75 0 min 0,000 mm 0,0 UV-I 72 W/m 4,9 C -1,1 C 27,4 km/h (4 Bft) 100,00 %
29.02.2016 14:19 6,6 C 89 % 1005,9 hPa 0,0 l/m 21,6 km/h (4 Bft) O-NO 75 0 min 0,000 mm 0,0 UV-I 76 W/m 4,9 C -1,7 C 27,4 km/h (4 Bft) 96,15 %
29.02.2016 14:20 6,6 C 89 % 1005,9 hPa 0,0 l/m 23,5 km/h (4 Bft) O-NO 59 0 min 0,000 mm 0,0 UV-I 73 W/m 4,9 C -2,3 C 29,0 km/h (5 Bft) 100,00 %
29.02.2016 14:21 6,6 C 89 % 1005,9 hPa 0,0 l/m 19,3 km/h (3 Bft) NO 47 0 min 0,000 mm 0,0 UV-I 72 W/m 4,9 C -0,8 C 24,1 km/h (4 Bft) 100,00 %
29.02.2016 14:22 6,7 C 89 % 1005,9 hPa 0,0 l/m 24,4 km/h (4 Bft) NO 55 0 min 0,000 mm 0,0 UV-I 73 W/m 5,0 C -2,5 C 29,0 km/h (5 Bft) 96,55 %
29.02.2016 14:23 6,7 C 89 % 1006,0 hPa 0,0 l/m 21,4 km/h (4 Bft) NO 34 0 min 0,000 mm 0,0 UV-I 67 W/m 5,0 C -1,5 C 27,4 km/h (4 Bft) 100,00 %
29.02.2016 14:26 6,7 C 89 % 1005,9 hPa 0,0 l/m 22,8 km/h (4 Bft) NO 51 0 min 0,000 mm 0,0 UV-I 63 W/m 5,0 C -2,0 C 27,4 km/h (4 Bft) 98,72 %
29.02.2016 14:27 6,7 C 89 % 1005,9 hPa 0,0 l/m 22,0 km/h (4 Bft) O-NO 61 0 min 0,000 mm 0,0 UV-I 63 W/m 5,0 C -1,7 C 27,4 km/h (4 Bft) 100,00 %
29.02.2016 14:28 6,7 C 89 % 1005,9 hPa 0,0 l/m 23,6 km/h (4 Bft) NO 39 0 min 0,000 mm 0,0 UV-I 61 W/m 5,0 C -2,2 C 29,0 km/h (5 Bft) 100,00 %
29.02.2016 14:29 6,7 C 89 % 1005,9 hPa 0,0 l/m 19,5 km/h (3 Bft) NO 49 0 min 0,000 mm 0,0 UV-I 58 W/m 5,0 C -0,8 C 24,1 km/h (4 Bft) 100,00 %
29.02.2016 14:30 6,7 C 89 % 1005,9 hPa 0,0 l/m 23,1 km/h (4 Bft) O-NO 70 0 min 0,000 mm 0,0 UV-I 54 W/m 5,0 C -2,1 C 32,2 km/h (5 Bft) 100,00 %
29.02.2016 14:31 6,7 C 89 % 1005,9 hPa 0,0 l/m 20,6 km/h (4 Bft) O-NO 75 0 min 0,000 mm 0,0 UV-I 49 W/m 5,0 C -1,2 C 29,0 km/h (5 Bft) 100,00 %
29.02.2016 14:32 6,7 C 89 % 1005,9 hPa 0,0 l/m 23,1 km/h (4 Bft) O-NO 67 0 min 0,000 mm 0,0 UV-I 47 W/m 5,0 C -2,1 C 32,2 km/h (5 Bft) 100,00 %
29.02.2016 14:33 6,7 C 89 % 1005,9 hPa 0,0 l/m 22,6 km/h (4 Bft) O-NO 69 0 min 0,000 mm 0,0 UV-I 48 W/m 5,0 C -1,9 C 27,4 km/h (4 Bft) 100,00 %
29.02.2016 14:34 6,7 C 89 % 1005,9 hPa 0,0 l/m 25,4 km/h (4 Bft) O-NO 57 0 min 0,000 mm 0,0 UV-I 44 W/m 5,0 C -2,8 C 30,6 km/h (5 Bft) 100,00 %
29.02.2016 14:35 6,7 C 89 % 1005,9 hPa 0,0 l/m 24,3 km/h (4 Bft) O-NO 70 0 min 0,000 mm 0,0 UV-I 44 W/m 5,0 C -2,4 C 30,6 km/h (5 Bft) 100,00 %
29.02.2016 14:36 6,7 C 89 % 1005,9 hPa 0,0 l/m 18,7 km/h (3 Bft) NO 53 0 min 0,000 mm 0,0 UV-I 45 W/m 5,0 C -0,5 C 24,1 km/h (4 Bft) 100,00 %
29.02.2016 14:37 6,7 C 89 % 1005,9 hPa 0,0 l/m 16,9 km/h (3 Bft) O 97 0 min 0,000 mm 0,0 UV-I 47 W/m 5,0 C 0,3 C 24,1 km/h (4 Bft) 100,00 %
29.02.2016 14:38 6,7 C 89 % 1005,9 hPa 0,0 l/m 22,6 km/h (4 Bft) O-NO 61 0 min 0,000 mm 0,0 UV-I 50 W/m 5,0 C -1,9 C 33,8 km/h (5 Bft) 100,00 %
29.02.2016 14:39 6,7 C 89 % 1005,9 hPa 0,0 l/m 20,8 km/h (4 Bft) NO 56 0 min 0,000 mm 0,0 UV-I 48 W/m 5,0 C -1,3 C 27,4 km/h (4 Bft) 96,15 %
29.02.2016 14:40 6,7 C 89 % 1005,9 hPa 0,0 l/m 23,2 km/h (4 Bft) NO 52 0 min 0,000 mm 0,0 UV-I 45 W/m 5,0 C -2,1 C 32,2 km/h (5 Bft) 100,00 %
29.02.2016 14:41 6,7 C 89 % 1005,8 hPa 0,0 l/m 21,6 km/h (4 Bft) O-NO 71 0 min 0,000 mm 0,0 UV-I 49 W/m 5,0 C -1,5 C 27,4 km/h (4 Bft) 100,00 %
29.02.2016 14:42 6,7 C 89 % 1005,8 hPa 0,0 l/m 19,9 km/h (4 Bft) O-NO 63 0 min 0,000 mm 0,0 UV-I 48 W/m 5,0 C -0,9 C 25,7 km/h (4 Bft) 100,00 %
29.02.2016 14:43 6,7 C 89 % 1005,9 hPa 0,0 l/m 21,8 km/h (4 Bft) NO 49 0 min 0,000 mm 0,0 UV-I 48 W/m 5,0 C -1,6 C 25,7 km/h (4 Bft) 100,00 %
29.02.2016 14:44 6,7 C 89 % 1005,8 hPa 0,0 l/m 24,3 km/h (4 Bft) NO 51 0 min 0,000 mm 0,0 UV-I 47 W/m 5,0 C -2,4 C 32,2 km/h (5 Bft) 100,00 %
29.02.2016 14:45 6,7 C 89 % 1005,9 hPa 0,0 l/m 20,0 km/h (4 Bft) NO 49 0 min 0,000 mm 0,0 UV-I 45 W/m 5,0 C -1,0 C 24,1 km/h (4 Bft) 100,00 %
29.02.2016 14:46 6,7 C 89 % 1005,8 hPa 0,0 l/m 24,4 km/h (4 Bft) NO 44 0 min 0,000 mm 0,0 UV-I 47 W/m 5,0 C -2,5 C 32,2 km/h (5 Bft) 100,00 %
29.02.2016 14:47 6,7 C 89 % 1005,8 hPa 0,0 l/m 24,7 km/h (4 Bft) NO 54 0 min 0,000 mm 0,0 UV-I 44 W/m 5,0 C -2,5 C 33,8 km/h (5 Bft) 100,00 %
29.02.2016 14:48 6,7 C 89 % 1005,8 hPa 0,0 l/m 24,5 km/h (4 Bft) NO 45 0 min 0,000 mm 0,0 UV-I 42 W/m 5,0 C -2,5 C 33,8 km/h (5 Bft) 96,30 %
29.02.2016 14:49 6,7 C 89 % 1005,8 hPa 0,0 l/m 29,3 km/h (5 Bft) NO 54 0 min 0,000 mm 0,0 UV-I 45 W/m 5,0 C -3,8 C 37,0 km/h (5 Bft) 100,00 %
29.02.2016 14:50 6,7 C 89 % 1005,8 hPa 0,0 l/m 22,8 km/h (4 Bft) NO 54 0 min 0,000 mm 0,0 UV-I 46 W/m 5,0 C -2,0 C 29,0 km/h (5 Bft) 93,33 %
29.02.2016 14:51 6,7 C 89 % 1005,7 hPa 0,0 l/m 30,4 km/h (5 Bft) NO 44 0 min 0,000 mm 0,0 UV-I 46 W/m 5,0 C -4,1 C 37,0 km/h (5 Bft) 96,88 %
29.02.2016 14:52 6,7 C 89 % 1005,8 hPa 0,0 l/m 25,1 km/h (4 Bft) NO 54 0 min 0,000 mm 0,0 UV-I 48 W/m 5,0 C -2,7 C 30,6 km/h (5 Bft) 100,00 %
29.02.2016 14:53 6,7 C 89 % 1005,7 hPa 0,0 l/m 24,1 km/h (4 Bft) NO 46 0 min 0,000 mm 0,0 UV-I 53 W/m 5,0 C -2,4 C 27,4 km/h (4 Bft) 100,00 %
29.02.2016 14:54 6,7 C 89 % 1005,7 hPa 0,0 l/m 23,7 km/h (4 Bft) O-NO 61 0 min 0,000 mm 0,0 UV-I 57 W/m 5,0 C -2,2 C 30,6 km/h (5 Bft) 100,00 %
29.02.2016 14:55 6,7 C 89 % 1005,7 hPa 0,0 l/m 20,2 km/h (4 Bft) O-NO 68 0 min 0,000 mm 0,0 UV-I 56 W/m 5,0 C -1,1 C 24,1 km/h (4 Bft) 96,15 %
29.02.2016 14:56 6,7 C 89 % 1005,7 hPa 0,0 l/m 20,6 km/h (4 Bft) NO 55 0 min 0,000 mm 0,0 UV-I 58 W/m 5,0 C -1,2 C 27,4 km/h (4 Bft) 100,00 %
29.02.2016 14:57 6,7 C 89 % 1005,7 hPa 0,0 l/m 27,5 km/h (4 Bft) NO 55 0 min 0,000 mm 0,0 UV-I 60 W/m 5,0 C -3,3 C 32,2 km/h (5 Bft) 100,00 %
29.02.2016 14:58 6,7 C 89 % 1005,7 hPa 0,0 l/m 21,7 km/h (4 Bft) NO 48 0 min 0,000 mm 0,0 UV-I 59 W/m 5,0 C -1,6 C 30,6 km/h (5 Bft) 96,88 %
29.02.2016 14:59 6,7 C 89 % 1005,7 hPa 0,0 l/m 24,6 km/h (4 Bft) O-NO 65 0 min 0,000 mm 0,0 UV-I 62 W/m 5,0 C -2,5 C 32,2 km/h (5 Bft) 100,00 %
29.02.2016 15:00 6,7 C 89 % 1005,7 hPa 0,0 l/m 20,7 km/h (4 Bft) N-NO 21 0 min 0,000 mm 0,0 UV-I 61 W/m 5,0 C -1,2 C 27,4 km/h (4 Bft) 100,00 %
29.02.2016 15:02 6,7 C 89 % 1005,7 hPa 0,0 l/m 21,9 km/h (4 Bft) NO 55 0 min 0,051 mm 0,0 UV-I 63 W/m 5,0 C -1,7 C 33,8 km/h (5 Bft) 95,83 %
29.02.2016 15:03 6,7 C 89 % 1005,7 hPa 0,0 l/m 25,6 km/h (4 Bft) NO 35 0 min 0,000 mm 0,0 UV-I 58 W/m 5,0 C -2,8 C 30,6 km/h (5 Bft) 100,00 %
29.02.2016 15:04 6,7 C 89 % 1005,7 hPa 0,0 l/m 19,7 km/h (3 Bft) O-NO 73 0 min 0,000 mm 0,0 UV-I 57 W/m 5,0 C -0,9 C 27,4 km/h (4 Bft) 92,31 %
29.02.2016 15:05 6,7 C 89 % 1005,7 hPa 0,0 l/m 20,7 km/h (4 Bft) NO 38 0 min 0,000 mm 0,0 UV-I 57 W/m 5,0 C -1,2 C 25,7 km/h (4 Bft) 98,64 %
29.02.2016 15:06 6,7 C 89 % 1005,8 hPa 0,0 l/m 22,5 km/h (4 Bft) NO 46 0 min 0,000 mm 0,0 UV-I 66 W/m 5,0 C -1,9 C 30,6 km/h (5 Bft) 97,56 %
29.02.2016 15:07 6,7 C 89 % 1005,7 hPa 0,0 l/m 21,2 km/h (4 Bft) NO 52 0 min 0,000 mm 0,0 UV-I 64 W/m 5,0 C -1,4 C 25,7 km/h (4 Bft) 100,00 %
29.02.2016 15:08 6,7 C 89 % 1005,8 hPa 0,0 l/m 25,3 km/h (4 Bft) NO 47 0 min 0,000 mm 0,0 UV-I 60 W/m 5,0 C -2,7 C 32,2 km/h (5 Bft) 95,65 %
29.02.2016 15:09 6,7 C 89 % 1005,7 hPa 0,0 l/m 23,0 km/h (4 Bft) NO 40 0 min 0,000 mm 0,0 UV-I 62 W/m 5,0 C -2,0 C 29,0 km/h (5 Bft) 100,00 %
29.02.2016 15:10 6,7 C 89 % 1005,7 hPa 0,0 l/m 20,9 km/h (4 Bft) NO 46 0 min 0,000 mm 0,0 UV-I 56 W/m 5,0 C -1,3 C 25,7 km/h (4 Bft) 92,86 %
29.02.2016 15:11 6,7 C 89 % 1005,7 hPa 0,0 l/m 17,5 km/h (3 Bft) NO 53 0 min 0,000 mm 0,0 UV-I 52 W/m 5,0 C 0,0 C 22,5 km/h (4 Bft) 96,30 %
29.02.2016 15:12 6,7 C 90 % 1005,7 hPa 0,0 l/m 21,2 km/h (4 Bft) O-NO 63 0 min 0,000 mm 0,0 UV-I 53 W/m 5,2 C -1,4 C 24,1 km/h (4 Bft) 96,15 %
29.02.2016 15:13 6,7 C 90 % 1005,8 hPa 0,0 l/m 21,1 km/h (4 Bft) O-NO 61 0 min 0,000 mm 0,0 UV-I 66 W/m 5,2 C -1,4 C 27,4 km/h (4 Bft) 92,59 %
29.02.2016 15:14 6,7 C 90 % 1005,7 hPa 0,0 l/m 23,3 km/h (4 Bft) O-NO 59 0 min 0,000 mm 0,0 UV-I 76 W/m 5,2 C -2,1 C 29,0 km/h (5 Bft) 100,00 %
29.02.2016 15:15 6,7 C 90 % 1005,7 hPa 0,0 l/m 21,6 km/h (4 Bft) O-NO 57 0 min 0,000 mm 0,0 UV-I 68 W/m 5,2 C -1,5 C 27,4 km/h (4 Bft) 93,33 %
29.02.2016 15:16 6,7 C 90 % 1005,7 hPa 0,0 l/m 15,4 km/h (3 Bft) O-NO 61 0 min 0,000 mm 0,0 UV-I 58 W/m 5,2 C 0,9 C 19,3 km/h (3 Bft) 100,00 %
29.02.2016 15:17 6,7 C 90 % 1005,8 hPa 0,0 l/m 16,3 km/h (3 Bft) NO 55 0 min 0,000 mm 0,0 UV-I 57 W/m 5,2 C 0,5 C 19,3 km/h (3 Bft) 97,37 %
29.02.2016 15:18 6,7 C 90 % 1005,8 hPa 0,0 l/m 20,7 km/h (4 Bft) O-NO 58 0 min 0,000 mm 0,0 UV-I 55 W/m 5,2 C -1,2 C 25,7 km/h (4 Bft) 100,00 %
29.02.2016 15:19 6,8 C 89 % 1005,8 hPa 0,0 l/m 18,6 km/h (3 Bft) NO 38 0 min 0,000 mm 0,0 UV-I 54 W/m 5,1 C -0,3 C 24,1 km/h (4 Bft) 95,65 %
29.02.2016 15:20 6,8 C 90 % 1005,7 hPa 0,0 l/m 16,9 km/h (3 Bft) O-NO 61 0 min 0,000 mm 0,0 UV-I 53 W/m 5,3 C 0,4 C 20,9 km/h (4 Bft) 95,83 %
29.02.2016 15:21 6,8 C 90 % 1005,8 hPa 0,0 l/m 12,5 km/h (3 Bft) NO 51 0 min 0,000 mm 0,0 UV-I 52 W/m 5,3 C 2,5 C 19,3 km/h (3 Bft) 100,00 %
29.02.2016 15:22 6,8 C 90 % 1005,8 hPa 0,0 l/m 12,3 km/h (3 Bft) O-NO 57 0 min 0,000 mm 0,0 UV-I 55 W/m 5,3 C 2,7 C 19,3 km/h (3 Bft) 95,83 %
29.02.2016 15:23 6,8 C 90 % 1005,7 hPa 0,0 l/m 16,7 km/h (3 Bft) NO 34 0 min 0,000 mm 0,0 UV-I 55 W/m 5,3 C 0,5 C 20,9 km/h (4 Bft) 100,00 %
29.02.2016 15:24 6,8 C 90 % 1005,7 hPa 0,0 l/m 19,4 km/h (3 Bft) NO 55 0 min 0,000 mm 0,0 UV-I 55 W/m 5,3 C -0,6 C 29,0 km/h (5 Bft) 96,30 %
29.02.2016 15:25 6,8 C 90 % 1005,8 hPa 0,0 l/m 19,8 km/h (3 Bft) O-NO 58 0 min 0,000 mm 0,0 UV-I 53 W/m 5,3 C -0,8 C 24,1 km/h (4 Bft) 100,00 %
29.02.2016 15:26 6,8 C 89 % 1005,7 hPa 0,0 l/m 20,2 km/h (4 Bft) NO 53 0 min 0,000 mm 0,0 UV-I 53 W/m 5,1 C -0,9 C 25,7 km/h (4 Bft) 93,33 %
29.02.2016 15:27 6,8 C 89 % 1005,7 hPa 0,0 l/m 14,6 km/h (3 Bft) O-NO 61 0 min 0,000 mm 0,0 UV-I 53 W/m 5,1 C 1,5 C 19,3 km/h (3 Bft) 100,00 %
29.02.2016 15:28 6,8 C 89 % 1005,7 hPa 0,0 l/m 20,4 km/h (4 Bft) O-NO 65 0 min 0,000 mm 0,0 UV-I 53 W/m 5,1 C -1,0 C 25,7 km/h (4 Bft) 92,59 %
29.02.2016 15:29 6,8 C 89 % 1005,7 hPa 0,0 l/m 16,9 km/h (3 Bft) O-NO 62 0 min 0,000 mm 0,0 UV-I 54 W/m 5,1 C 0,4 C 20,9 km/h (4 Bft) 96,55 %
29.02.2016 15:30 6,8 C 89 % 1005,7 hPa 0,0 l/m 17,2 km/h (3 Bft) O-NO 69 0 min 0,000 mm 0,0 UV-I 55 W/m 5,1 C 0,3 C 20,9 km/h (4 Bft) 96,30 %
29.02.2016 15:31 6,8 C 89 % 1005,7 hPa 0,0 l/m 13,7 km/h (3 Bft) O 84 0 min 0,000 mm 0,0 UV-I 60 W/m 5,1 C 1,9 C 19,3 km/h (3 Bft) 95,65 %
29.02.2016 15:32 6,8 C 89 % 1005,7 hPa 0,0 l/m 19,0 km/h (3 Bft) O-NO 63 0 min 0,000 mm 0,0 UV-I 60 W/m 5,1 C -0,5 C 24,1 km/h (4 Bft) 100,00 %
29.02.2016 15:33 6,9 C 89 % 1005,7 hPa 0,0 l/m 17,7 km/h (3 Bft) NO 46 0 min 0,000 mm 0,0 UV-I 58 W/m 5,2 C 0,2 C 22,5 km/h (4 Bft) 95,65 %
29.02.2016 15:34 6,9 C 89 % 1005,7 hPa 0,0 l/m 22,2 km/h (4 Bft) O-NO 61 0 min 0,000 mm 0,0 UV-I 58 W/m 5,2 C -1,5 C 27,4 km/h (4 Bft) 100,00 %
29.02.2016 15:35 6,9 C 89 % 1005,6 hPa 0,0 l/m 16,9 km/h (3 Bft) NO 55 0 min 0,000 mm 0,0 UV-I 56 W/m 5,2 C 0,5 C 24,1 km/h (4 Bft) 91,67 %
29.02.2016 15:36 6,9 C 89 % 1005,7 hPa 0,0 l/m 19,6 km/h (3 Bft) N-NO 17 0 min 0,000 mm 0,0 UV-I 54 W/m 5,2 C -0,6 C 27,4 km/h (4 Bft) 100,00 %
29.02.2016 15:37 6,9 C 89 % 1005,7 hPa 0,0 l/m 16,5 km/h (3 Bft) O-NO 71 0 min 0,000 mm 0,0 UV-I 56 W/m 5,2 C 0,7 C 22,5 km/h (4 Bft) 96,30 %
29.02.2016 15:38 6,9 C 89 % 1005,7 hPa 0,0 l/m 19,1 km/h (3 Bft) NO 38 0 min 0,000 mm 0,0 UV-I 55 W/m 5,2 C -0,4 C 22,5 km/h (4 Bft) 100,00 %
29.02.2016 15:39 6,9 C 89 % 1005,7 hPa 0,0 l/m 18,5 km/h (3 Bft) NO 54 0 min 0,000 mm 0,0 UV-I 59 W/m 5,2 C -0,1 C 24,1 km/h (4 Bft) 100,00 %
29.02.2016 15:40 6,9 C 89 % 1005,7 hPa 0,0 l/m 14,0 km/h (3 Bft) O-NO 68 0 min 0,000 mm 0,0 UV-I 56 W/m 5,2 C 1,9 C 17,7 km/h (3 Bft) 100,00 %
29.02.2016 15:41 6,9 C 89 % 1005,7 hPa 0,0 l/m 18,0 km/h (3 Bft) NO 37 0 min 0,000 mm 0,0 UV-I 48 W/m 5,2 C 0,1 C 24,1 km/h (4 Bft) 96,30 %
29.02.2016 15:42 6,9 C 89 % 1005,7 hPa 0,0 l/m 21,6 km/h (4 Bft) NO 52 0 min 0,000 mm 0,0 UV-I 40 W/m 5,2 C -1,3 C 25,7 km/h (4 Bft) 96,15 %
29.02.2016 15:43 7,0 C 89 % 1005,7 hPa 0,0 l/m 21,4 km/h (4 Bft) O-NO 65 0 min 0,000 mm 0,0 UV-I 35 W/m 5,3 C -1,1 C 27,4 km/h (4 Bft) 100,00 %
29.02.2016 15:44 7,0 C 89 % 1005,7 hPa 0,0 l/m 20,7 km/h (4 Bft) O-NO 61 0 min 0,000 mm 0,0 UV-I 37 W/m 5,3 C -0,8 C 25,7 km/h (4 Bft) 97,14 %
29.02.2016 15:45 7,0 C 88 % 1005,7 hPa 0,0 l/m 17,3 km/h (3 Bft) NO 46 0 min 0,000 mm 0,0 UV-I 37 W/m 5,2 C 0,5 C 20,9 km/h (4 Bft) 100,00 %
29.02.2016 15:46 7,1 C 88 % 1005,7 hPa 0,0 l/m 16,9 km/h (3 Bft) O-NO 61 0 min 0,000 mm 0,0 UV-I 36 W/m 5,2 C 0,8 C 20,9 km/h (4 Bft) 100,00 %
29.02.2016 15:47 7,1 C 88 % 1005,7 hPa 0,0 l/m 17,8 km/h (3 Bft) O-NO 74 0 min 0,000 mm 0,0 UV-I 33 W/m 5,2 C 0,4 C 22,5 km/h (4 Bft) 100,00 %
29.02.2016 15:48 7,1 C 88 % 1005,7 hPa 0,0 l/m 17,2 km/h (3 Bft) NO 42 0 min 0,000 mm 0,0 UV-I 32 W/m 5,2 C 0,6 C 20,9 km/h (4 Bft) 100,00 %
29.02.2016 15:49 7,1 C 88 % 1005,7 hPa 0,0 l/m 16,2 km/h (3 Bft) NO 44 0 min 0,000 mm 0,0 UV-I 33 W/m 5,2 C 1,1 C 22,5 km/h (4 Bft) 100,00 %
29.02.2016 15:50 7,1 C 88 % 1005,7 hPa 0,0 l/m 20,1 km/h (4 Bft) N-NO 29 0 min 0,000 mm 0,0 UV-I 32 W/m 5,2 C -0,5 C 24,1 km/h (4 Bft) 100,00 %
29.02.2016 15:51 7,1 C 88 % 1005,7 hPa 0,0 l/m 17,7 km/h (3 Bft) NO 47 0 min 0,000 mm 0,0 UV-I 34 W/m 5,2 C 0,4 C 20,9 km/h (4 Bft) 100,00 %
29.02.2016 15:52 7,1 C 88 % 1005,7 hPa 0,0 l/m 17,1 km/h (3 Bft) O-NO 62 0 min 0,000 mm 0,0 UV-I 35 W/m 5,2 C 0,7 C 24,1 km/h (4 Bft) 100,00 %
29.02.2016 15:53 7,1 C 88 % 1005,8 hPa 0,0 l/m 14,3 km/h (3 Bft) NO 39 0 min 0,000 mm 0,0 UV-I 35 W/m 5,2 C 2,0 C 19,3 km/h (3 Bft) 100,00 %
29.02.2016 15:54 7,1 C 88 % 1005,8 hPa 0,0 l/m 14,6 km/h (3 Bft) NO 51 0 min 0,000 mm 0,0 UV-I 35 W/m 5,2 C 1,8 C 19,3 km/h (3 Bft) 100,00 %
29.02.2016 15:55 7,1 C 88 % 1005,7 hPa 0,0 l/m 22,1 km/h (4 Bft) NO 42 0 min 0,000 mm 0,0 UV-I 33 W/m 5,2 C -1,2 C 25,7 km/h (4 Bft) 100,00 %
29.02.2016 15:56 7,2 C 88 % 1005,7 hPa 0,0 l/m 18,4 km/h (3 Bft) O-NO 57 0 min 0,000 mm 0,0 UV-I 30 W/m 5,3 C 0,3 C 22,5 km/h (4 Bft) 100,00 %
29.02.2016 15:57 7,2 C 88 % 1005,7 hPa 0,0 l/m 17,3 km/h (3 Bft) NO 52 0 min 0,000 mm 0,0 UV-I 32 W/m 5,3 C 0,7 C 22,5 km/h (4 Bft) 100,00 %
29.02.2016 15:58 7,2 C 88 % 1005,7 hPa 0,0 l/m 17,4 km/h (3 Bft) N-NO 28 0 min 0,000 mm 0,0 UV-I 34 W/m 5,3 C 0,7 C 22,5 km/h (4 Bft) 98,59 %
29.02.2016 15:59 7,2 C 88 % 1005,7 hPa 0,0 l/m 14,5 km/h (3 Bft) O-NO 58 0 min 0,000 mm 0,0 UV-I 38 W/m 5,3 C 2,0 C 17,7 km/h (3 Bft) 100,00 %
29.02.2016 16:00 7,2 C 88 % 1005,7 hPa 0,0 l/m 18,3 km/h (3 Bft) O-NO 57 0 min 0,000 mm 0,0 UV-I 39 W/m 5,3 C 0,3 C 22,5 km/h (4 Bft) 100,00 %
29.02.2016 16:01 7,2 C 88 % 1005,7 hPa 0,0 l/m 16,9 km/h (3 Bft) NO 44 0 min 0,051 mm 0,0 UV-I 39 W/m 5,3 C 0,9 C 20,9 km/h (4 Bft) 100,00 %
29.02.2016 16:02 7,2 C 88 % 1005,7 hPa 0,0 l/m 16,7 km/h (3 Bft) N-NO 29 0 min 0,000 mm 0,0 UV-I 36 W/m 5,3 C 1,0 C 19,3 km/h (3 Bft) 100,00 %
29.02.2016 16:03 7,2 C 88 % 1005,7 hPa 0,0 l/m 14,4 km/h (3 Bft) N-NO 17 0 min 0,000 mm 0,0 UV-I 35 W/m 5,3 C 2,0 C 19,3 km/h (3 Bft) 96,15 %
29.02.2016 16:04 7,2 C 88 % 1005,7 hPa 0,0 l/m 16,7 km/h (3 Bft) NO 42 0 min 0,000 mm 0,0 UV-I 35 W/m 5,3 C 1,0 C 20,9 km/h (4 Bft) 100,00 %
29.02.2016 16:05 7,2 C 88 % 1005,7 hPa 0,0 l/m 16,5 km/h (3 Bft) O-NO 65 0 min 0,000 mm 0,0 UV-I 36 W/m 5,3 C 1,1 C 22,5 km/h (4 Bft) 100,00 %
29.02.2016 16:06 7,2 C 88 % 1005,7 hPa 0,0 l/m 13,3 km/h (3 Bft) N-NO 29 0 min 0,000 mm 0,0 UV-I 37 W/m 5,3 C 2,6 C 19,3 km/h (3 Bft) 98,60 %
29.02.2016 16:07 7,2 C 88 % 1005,7 hPa 0,0 l/m 11,1 km/h (2 Bft) NO 43 0 min 0,000 mm 0,0 UV-I 40 W/m 5,3 C 3,8 C 19,3 km/h (3 Bft) 100,00 %
29.02.2016 16:08 7,2 C 88 % 1005,8 hPa 0,0 l/m 19,2 km/h (3 Bft) O-NO 62 0 min 0,000 mm 0,0 UV-I 40 W/m 5,3 C -0,0 C 25,7 km/h (4 Bft) 92,59 %
29.02.2016 16:09 7,2 C 88 % 1005,7 hPa 0,0 l/m 13,8 km/h (3 Bft) NO 43 0 min 0,000 mm 0,0 UV-I 36 W/m 5,3 C 2,3 C 20,9 km/h (4 Bft) 100,00 %
29.02.2016 16:10 7,2 C 88 % 1005,8 hPa 0,0 l/m 16,4 km/h (3 Bft) NO 40 0 min 0,000 mm 0,0 UV-I 33 W/m 5,3 C 1,1 C 20,9 km/h (4 Bft) 93,33 %
29.02.2016 16:11 7,2 C 88 % 1005,7 hPa 0,0 l/m 13,4 km/h (3 Bft) NO 36 0 min 0,000 mm 0,0 UV-I 37 W/m 5,3 C 2,5 C 25,7 km/h (4 Bft) 100,00 %
29.02.2016 16:12 7,2 C 88 % 1005,8 hPa 0,0 l/m 13,0 km/h (3 Bft) NO 56 0 min 0,000 mm 0,0 UV-I 39 W/m 5,3 C 2,7 C 17,7 km/h (3 Bft) 100,00 %
29.02.2016 16:13 7,2 C 88 % 1005,8 hPa 0,0 l/m 13,6 km/h (3 Bft) N-NO 32 0 min 0,000 mm 0,0 UV-I 36 W/m 5,3 C 2,4 C 16,1 km/h (3 Bft) 100,00 %
29.02.2016 16:14 7,2 C 88 % 1005,8 hPa 0,0 l/m 16,1 km/h (3 Bft) NO 37 0 min 0,000 mm 0,0 UV-I 33 W/m 5,3 C 1,2 C 20,9 km/h (4 Bft) 100,00 %
29.02.2016 16:15 7,2 C 89 % 1005,8 hPa 0,0 l/m 17,6 km/h (3 Bft) O-NO 61 0 min 0,000 mm 0,0 UV-I 30 W/m 5,5 C 0,6 C 20,9 km/h (4 Bft) 100,00 %
29.02.2016 16:16 7,1 C 88 % 1005,8 hPa 0,0 l/m 17,6 km/h (3 Bft) NO 54 0 min 0,000 mm 0,0 UV-I 27 W/m 5,2 C 0,5 C 20,9 km/h (4 Bft) 100,00 %
29.02.2016 16:17 7,1 C 88 % 1005,8 hPa 0,0 l/m 14,9 km/h (3 Bft) NO 46 0 min 0,000 mm 0,0 UV-I 26 W/m 5,2 C 1,7 C 17,7 km/h (3 Bft) 100,00 %
29.02.2016 16:18 7,1 C 89 % 1005,8 hPa 0,0 l/m 17,4 km/h (3 Bft) O-NO 58 0 min 0,000 mm 0,0 UV-I 28 W/m 5,4 C 0,6 C 22,5 km/h (4 Bft) 100,00 %
29.02.2016 16:19 7,1 C 89 % 1005,9 hPa 0,0 l/m 17,2 km/h (3 Bft) NO 42 0 min 0,000 mm 0,0 UV-I 33 W/m 5,4 C 0,6 C 19,3 km/h (3 Bft) 96,30 %
29.02.2016 16:20 7,1 C 89 % 1005,8 hPa 0,0 l/m 17,4 km/h (3 Bft) NO 34 0 min 0,000 mm 0,0 UV-I 32 W/m 5,4 C 0,6 C 20,9 km/h (4 Bft) 95,65 %
29.02.2016 16:21 7,1 C 89 % 1005,8 hPa 0,0 l/m 14,1 km/h (3 Bft) NO 38 0 min 0,000 mm 0,0 UV-I 32 W/m 5,4 C 2,1 C 17,7 km/h (3 Bft) 100,00 %
29.02.2016 16:22 7,1 C 89 % 1005,9 hPa 0,0 l/m 13,6 km/h (3 Bft) N-NO 30 0 min 0,000 mm 0,0 UV-I 30 W/m 5,4 C 2,3 C 17,7 km/h (3 Bft) 100,00 %
29.02.2016 16:23 7,1 C 89 % 1005,9 hPa 0,0 l/m 15,6 km/h (3 Bft) NO 44 0 min 0,000 mm 0,0 UV-I 27 W/m 5,4 C 1,3 C 19,3 km/h (3 Bft) 100,00 %
29.02.2016 16:24 7,1 C 89 % 1005,9 hPa 0,0 l/m 15,7 km/h (3 Bft) NO 55 0 min 0,000 mm 0,0 UV-I 26 W/m 5,4 C 1,3 C 20,9 km/h (4 Bft) 100,00 %
29.02.2016 16:25 7,1 C 88 % 1005,9 hPa 0,0 l/m 19,5 km/h (3 Bft) NO 36 0 min 0,000 mm 0,0 UV-I 26 W/m 5,2 C -0,3 C 22,5 km/h (4 Bft) 100,00 %
29.02.2016 16:26 7,1 C 88 % 1005,9 hPa 0,0 l/m 13,8 km/h (3 Bft) O-NO 60 0 min 0,000 mm 0,0 UV-I 26 W/m 5,2 C 2,2 C 19,3 km/h (3 Bft) 100,00 %
29.02.2016 16:27 7,1 C 89 % 1005,9 hPa 0,0 l/m 18,1 km/h (3 Bft) NO 51 0 min 0,000 mm 0,0 UV-I 26 W/m 5,4 C 0,3 C 24,1 km/h (4 Bft) 100,00 %
29.02.2016 16:28 7,1 C 88 % 1005,9 hPa 0,0 l/m 20,8 km/h (4 Bft) NO 52 0 min 0,000 mm 0,0 UV-I 26 W/m 5,2 C -0,7 C 27,4 km/h (4 Bft) 100,00 %
29.02.2016 16:29 7,1 C 88 % 1005,9 hPa 0,0 l/m 17,1 km/h (3 Bft) O-NO 58 0 min 0,000 mm 0,0 UV-I 26 W/m 5,2 C 0,7 C 29,0 km/h (5 Bft) 100,00 %
29.02.2016 16:30 7,1 C 88 % 1005,9 hPa 0,0 l/m 22,0 km/h (4 Bft) NO 49 0 min 0,000 mm 0,0 UV-I 28 W/m 5,2 C -1,2 C 25,7 km/h (4 Bft) 100,00 %
29.02.2016 16:31 7,1 C 88 % 1005,9 hPa 0,0 l/m 15,7 km/h (3 Bft) O-NO 67 0 min 0,000 mm 0,0 UV-I 28 W/m 5,2 C 1,3 C 22,5 km/h (4 Bft) 100,00 %
29.02.2016 16:32 7,1 C 88 % 1005,9 hPa 0,0 l/m 13,2 km/h (3 Bft) NO 50 0 min 0,000 mm 0,0 UV-I 30 W/m 5,2 C 2,5 C 16,1 km/h (3 Bft) 100,00 %
29.02.2016 16:33 7,1 C 88 % 1005,9 hPa 0,0 l/m 15,4 km/h (3 Bft) O-NO 59 0 min 0,000 mm 0,0 UV-I 30 W/m 5,2 C 1,4 C 19,3 km/h (3 Bft) 100,00 %
29.02.2016 16:34 7,1 C 88 % 1005,9 hPa 0,0 l/m 13,8 km/h (3 Bft) O-NO 63 0 min 0,000 mm 0,0 UV-I 31 W/m 5,2 C 2,2 C 17,7 km/h (3 Bft) 100,00 %
29.02.2016 16:35 7,1 C 88 % 1005,9 hPa 0,0 l/m 15,6 km/h (3 Bft) O-NO 57 0 min 0,000 mm 0,0 UV-I 34 W/m 5,2 C 1,3 C 20,9 km/h (4 Bft) 100,00 %
29.02.2016 16:36 7,1 C 88 % 1005,9 hPa 0,0 l/m 17,0 km/h (3 Bft) O-NO 59 0 min 0,000 mm 0,0 UV-I 37 W/m 5,2 C 0,7 C 24,1 km/h (4 Bft) 98,62 %
29.02.2016 16:37 7,2 C 88 % 1005,9 hPa 0,0 l/m 19,1 km/h (3 Bft) O-NO 61 0 min 0,000 mm 0,0 UV-I 37 W/m 5,3 C 0,0 C 24,1 km/h (4 Bft) 100,00 %
29.02.2016 16:38 7,2 C 88 % 1005,9 hPa 0,0 l/m 16,5 km/h (3 Bft) NO 53 0 min 0,000 mm 0,0 UV-I 37 W/m 5,3 C 1,1 C 19,3 km/h (3 Bft) 91,67 %
29.02.2016 16:39 7,2 C 88 % 1006,0 hPa 0,0 l/m 14,1 km/h (3 Bft) NO 49 0 min 0,000 mm 0,0 UV-I 37 W/m 5,3 C 2,2 C 19,3 km/h (3 Bft) 100,00 %
29.02.2016 16:40 7,2 C 88 % 1006,0 hPa 0,0 l/m 18,4 km/h (3 Bft) NO 52 0 min 0,000 mm 0,0 UV-I 36 W/m 5,3 C 0,3 C 24,1 km/h (4 Bft) 100,00 %
29.02.2016 16:41 7,2 C 88 % 1005,9 hPa 0,0 l/m 19,3 km/h (3 Bft) O-NO 63 0 min 0,000 mm 0,0 UV-I 33 W/m 5,3 C -0,1 C 24,1 km/h (4 Bft) 100,00 %
29.02.2016 16:42 7,2 C 88 % 1005,9 hPa 0,0 l/m 17,1 km/h (3 Bft) O-NO 57 0 min 0,000 mm 0,0 UV-I 32 W/m 5,3 C 0,8 C 20,9 km/h (4 Bft) 100,00 %
29.02.2016 16:43 7,2 C 88 % 1006,0 hPa 0,0 l/m 13,6 km/h (3 Bft) NO 55 0 min 0,000 mm 0,0 UV-I 32 W/m 5,3 C 2,4 C 16,1 km/h (3 Bft) 100,00 %
29.02.2016 16:44 7,2 C 88 % 1006,0 hPa 0,0 l/m 14,8 km/h (3 Bft) NO 50 0 min 0,000 mm 0,0 UV-I 33 W/m 5,3 C 1,8 C 20,9 km/h (4 Bft) 100,00 %
29.02.2016 16:45 7,2 C 88 % 1006,0 hPa 0,0 l/m 13,9 km/h (3 Bft) NO 40 0 min 0,000 mm 0,0 UV-I 34 W/m 5,3 C 2,3 C 19,3 km/h (3 Bft) 100,00 %
29.02.2016 16:46 7,2 C 88 % 1006,0 hPa 0,0 l/m 11,9 km/h (2 Bft) NO 53 0 min 0,000 mm 0,0 UV-I 35 W/m 5,3 C 3,3 C 17,7 km/h (3 Bft) 100,00 %
29.02.2016 16:47 7,2 C 88 % 1006,0 hPa 0,0 l/m 13,8 km/h (3 Bft) NO 51 0 min 0,000 mm 0,0 UV-I 35 W/m 5,3 C 2,3 C 17,7 km/h (3 Bft) 100,00 %
29.02.2016 16:48 7,2 C 88 % 1006,0 hPa 0,0 l/m 13,4 km/h (3 Bft) NO 46 0 min 0,000 mm 0,0 UV-I 34 W/m 5,3 C 2,5 C 16,1 km/h (3 Bft) 96,67 %
29.02.2016 16:49 7,2 C 88 % 1006,0 hPa 0,0 l/m 10,3 km/h (2 Bft) NO 51 0 min 0,000 mm 0,0 UV-I 31 W/m 5,3 C 4,3 C 16,1 km/h (3 Bft) 100,00 %
29.02.2016 16:50 7,2 C 88 % 1006,0 hPa 0,0 l/m 10,3 km/h (2 Bft) NO 35 0 min 0,000 mm 0,0 UV-I 28 W/m 5,3 C 4,3 C 16,1 km/h (3 Bft) 96,30 %
29.02.2016 16:51 7,2 C 88 % 1006,1 hPa 0,0 l/m 12,4 km/h (3 Bft) NO 41 0 min 0,000 mm 0,0 UV-I 26 W/m 5,3 C 3,1 C 17,7 km/h (3 Bft) 100,00 %
29.02.2016 16:52 7,2 C 88 % 1006,0 hPa 0,0 l/m 10,2 km/h (2 Bft) NO 54 0 min 0,000 mm 0,0 UV-I 26 W/m 5,3 C 4,4 C 14,5 km/h (3 Bft) 100,00 %
29.02.2016 16:53 7,2 C 88 % 1006,0 hPa 0,0 l/m 7,3 km/h (2 Bft) NO 47 0 min 0,000 mm 0,0 UV-I 26 W/m 5,3 C 6,5 C 11,3 km/h (2 Bft) 100,00 %
29.02.2016 16:54 7,1 C 88 % 1006,0 hPa 0,0 l/m 10,8 km/h (2 Bft) O 80 0 min 0,000 mm 0,0 UV-I 26 W/m 5,2 C 3,9 C 14,5 km/h (3 Bft) 96,15 %
29.02.2016 16:55 7,1 C 88 % 1006,1 hPa 0,0 l/m 10,3 km/h (2 Bft) NO 51 0 min 0,000 mm 0,0 UV-I 25 W/m 5,2 C 4,2 C 17,7 km/h (3 Bft) 100,00 %
29.02.2016 16:56 7,1 C 89 % 1006,1 hPa 0,0 l/m 12,1 km/h (2 Bft) NO 43 0 min 0,000 mm 0,0 UV-I 25 W/m 5,4 C 3,1 C 16,1 km/h (3 Bft) 100,00 %
29.02.2016 16:57 7,1 C 88 % 1006,1 hPa 0,0 l/m 9,7 km/h (2 Bft) NO 55 0 min 0,000 mm 0,0 UV-I 25 W/m 5,2 C 4,6 C 16,1 km/h (3 Bft) 96,88 %
29.02.2016 16:58 7,1 C 88 % 1006,1 hPa 0,0 l/m 8,6 km/h (2 Bft) O-NO 68 0 min 0,000 mm 0,0 UV-I 24 W/m 5,2 C 5,4 C 16,1 km/h (3 Bft) 100,00 %
29.02.2016 16:59 7,1 C 89 % 1006,1 hPa 0,0 l/m 12,4 km/h (3 Bft) O-NO 62 0 min 0,000 mm 0,0 UV-I 23 W/m 5,4 C 3,0 C 19,3 km/h (3 Bft) 100,00 %
29.02.2016 17:00 7,1 C 89 % 1006,1 hPa 0,0 l/m 12,6 km/h (3 Bft) O-NO 59 0 min 0,000 mm 0,0 UV-I 23 W/m 5,4 C 2,8 C 16,1 km/h (3 Bft) 100,00 %
29.02.2016 17:01 7,1 C 88 % 1006,1 hPa 0,0 l/m 11,3 km/h (2 Bft) O-NO 57 0 min 0,025 mm 0,0 UV-I 21 W/m 5,2 C 3,6 C 14,5 km/h (3 Bft) 100,00 %
29.02.2016 17:02 7,1 C 89 % 1006,1 hPa 0,0 l/m 9,5 km/h (2 Bft) O-NO 57 0 min 0,000 mm 0,0 UV-I 21 W/m 5,4 C 4,7 C 16,1 km/h (3 Bft) 100,00 %
29.02.2016 17:03 7,1 C 89 % 1006,2 hPa 0,0 l/m 9,3 km/h (2 Bft) NO 52 0 min 0,000 mm 0,0 UV-I 22 W/m 5,4 C 4,9 C 16,1 km/h (3 Bft) 100,00 %
29.02.2016 17:04 7,1 C 88 % 1006,2 hPa 0,0 l/m 18,0 km/h (3 Bft) O-NO 63 0 min 0,000 mm 0,0 UV-I 23 W/m 5,2 C 0,3 C 24,1 km/h (4 Bft) 100,00 %
29.02.2016 17:05 7,1 C 88 % 1006,1 hPa 0,0 l/m 18,6 km/h (3 Bft) NO 56 0 min 0,000 mm 0,0 UV-I 23 W/m 5,2 C 0,1 C 25,7 km/h (4 Bft) 100,00 %
29.02.2016 17:06 7,1 C 88 % 1006,2 hPa 0,0 l/m 10,9 km/h (2 Bft) NO 54 0 min 0,000 mm 0,0 UV-I 21 W/m 5,2 C 3,8 C 16,1 km/h (3 Bft) 100,00 %
29.02.2016 17:07 7,1 C 88 % 1006,2 hPa 0,0 l/m 8,9 km/h (2 Bft) NO 34 0 min 0,000 mm 0,0 UV-I 21 W/m 5,2 C 5,1 C 14,5 km/h (3 Bft) 100,00 %
29.02.2016 17:08 7,1 C 88 % 1006,2 hPa 0,0 l/m 10,9 km/h (2 Bft) O-NO 62 0 min 0,000 mm 0,0 UV-I 21 W/m 5,2 C 3,8 C 16,1 km/h (3 Bft) 95,65 %
29.02.2016 17:09 7,1 C 88 % 1006,2 hPa 0,0 l/m 15,8 km/h (3 Bft) NO 44 0 min 0,000 mm 0,0 UV-I 21 W/m 5,2 C 1,3 C 17,7 km/h (3 Bft) 100,00 %
29.02.2016 17:10 7,1 C 88 % 1006,2 hPa 0,0 l/m 13,8 km/h (3 Bft) NO 51 0 min 0,000 mm 0,0 UV-I 21 W/m 5,2 C 2,2 C 16,1 km/h (3 Bft) 96,88 %
29.02.2016 17:11 7,1 C 88 % 1006,2 hPa 0,0 l/m 12,4 km/h (3 Bft) NO 56 0 min 0,000 mm 0,0 UV-I 21 W/m 5,2 C 3,0 C 17,7 km/h (3 Bft) 96,30 %
29.02.2016 17:12 7,1 C 88 % 1006,2 hPa 0,0 l/m 12,6 km/h (3 Bft) NO 42 0 min 0,000 mm 0,0 UV-I 19 W/m 5,2 C 2,8 C 17,7 km/h (3 Bft) 93,33 %
29.02.2016 17:13 7,1 C 88 % 1006,2 hPa 0,0 l/m 14,8 km/h (3 Bft) O-NO 63 0 min 0,000 mm 0,0 UV-I 18 W/m 5,2 C 1,7 C 24,1 km/h (4 Bft) 100,00 %
29.02.2016 17:14 7,1 C 88 % 1006,2 hPa 0,0 l/m 15,2 km/h (3 Bft) NO 53 0 min 0,000 mm 0,0 UV-I 18 W/m 5,2 C 1,5 C 20,9 km/h (4 Bft) 91,67 %
29.02.2016 17:15 7,1 C 88 % 1006,2 hPa 0,0 l/m 10,4 km/h (2 Bft) NO 40 0 min 0,000 mm 0,0 UV-I 17 W/m 5,2 C 4,1 C 16,1 km/h (3 Bft) 97,37 %
29.02.2016 17:16 7,1 C 88 % 1006,3 hPa 0,0 l/m 11,9 km/h (2 Bft) O-NO 71 0 min 0,000 mm 0,0 UV-I 14 W/m 5,2 C 3,2 C 16,1 km/h (3 Bft) 100,00 %
29.02.2016 17:17 7,0 C 88 % 1006,2 hPa 0,0 l/m 10,8 km/h (2 Bft) O-NO 66 0 min 0,000 mm 0,0 UV-I 14 W/m 5,2 C 3,8 C 17,7 km/h (3 Bft) 96,55 %
29.02.2016 17:18 7,0 C 88 % 1006,2 hPa 0,0 l/m 9,9 km/h (2 Bft) N-NO 29 0 min 0,000 mm 0,0 UV-I 14 W/m 5,2 C 4,3 C 14,5 km/h (3 Bft) 100,00 %
29.02.2016 17:19 7,0 C 88 % 1006,2 hPa 0,0 l/m 14,8 km/h (3 Bft) O-NO 70 0 min 0,000 mm 0,0 UV-I 14 W/m 5,2 C 1,6 C 19,3 km/h (3 Bft) 95,65 %
29.02.2016 17:20 7,0 C 88 % 1006,2 hPa 0,0 l/m 17,7 km/h (3 Bft) NO 54 0 min 0,000 mm 0,0 UV-I 13 W/m 5,2 C 0,3 C 22,5 km/h (4 Bft) 100,00 %
29.02.2016 17:21 7,0 C 88 % 1006,2 hPa 0,0 l/m 19,3 km/h (3 Bft) NO 50 0 min 0,000 mm 0,0 UV-I 12 W/m 5,2 C -0,3 C 24,1 km/h (4 Bft) 96,15 %
29.02.2016 17:22 7,0 C 88 % 1006,2 hPa 0,0 l/m 22,3 km/h (4 Bft) O-NO 68 0 min 0,000 mm 0,0 UV-I 12 W/m 5,2 C -1,4 C 29,0 km/h (5 Bft) 96,30 %
29.02.2016 17:23 7,0 C 88 % 1006,2 hPa 0,0 l/m 16,8 km/h (3 Bft) O-NO 64 0 min 0,000 mm 0,0 UV-I 12 W/m 5,2 C 0,7 C 20,9 km/h (4 Bft) 100,00 %
29.02.2016 17:24 7,0 C 88 % 1006,2 hPa 0,0 l/m 14,7 km/h (3 Bft) NO 49 0 min 0,000 mm 0,0 UV-I 12 W/m 5,2 C 1,6 C 20,9 km/h (4 Bft) 96,30 %
29.02.2016 17:25 7,0 C 88 % 1006,2 hPa 0,0 l/m 11,9 km/h (2 Bft) NO 51 0 min 0,000 mm 0,0 UV-I 12 W/m 5,2 C 3,1 C 16,1 km/h (3 Bft) 100,00 %
29.02.2016 17:26 7,0 C 88 % 1006,3 hPa 0,0 l/m 12,5 km/h (3 Bft) NO 49 0 min 0,000 mm 0,0 UV-I 11 W/m 5,2 C 2,8 C 17,7 km/h (3 Bft) 96,30 %
29.02.2016 17:27 7,0 C 88 % 1006,3 hPa 0,0 l/m 15,4 km/h (3 Bft) O-NO 58 0 min 0,000 mm 0,0 UV-I 11 W/m 5,2 C 1,3 C 20,9 km/h (4 Bft) 100,00 %
29.02.2016 17:28 6,9 C 88 % 1006,3 hPa 0,0 l/m 19,0 km/h (3 Bft) O-NO 70 0 min 0,000 mm 0,0 UV-I 11 W/m 5,1 C -0,3 C 25,7 km/h (4 Bft) 96,30 %
29.02.2016 17:29 6,9 C 88 % 1006,3 hPa 0,0 l/m 17,5 km/h (3 Bft) O-NO 63 0 min 0,000 mm 0,0 UV-I 8 W/m 5,1 C 0,3 C 22,5 km/h (4 Bft) 100,00 %
29.02.2016 17:30 6,9 C 88 % 1006,3 hPa 0,0 l/m 15,4 km/h (3 Bft) O-NO 66 0 min 0,000 mm 0,0 UV-I 7 W/m 5,1 C 1,2 C 20,9 km/h (4 Bft) 96,15 %
29.02.2016 17:31 6,9 C 88 % 1006,4 hPa 0,0 l/m 12,3 km/h (3 Bft) O-NO 65 0 min 0,000 mm 0,0 UV-I 7 W/m 5,1 C 2,8 C 16,1 km/h (3 Bft) 100,00 %
29.02.2016 17:32 6,9 C 88 % 1006,4 hPa 0,0 l/m 12,9 km/h (3 Bft) NO 45 0 min 0,000 mm 0,0 UV-I 7 W/m 5,1 C 2,4 C 16,1 km/h (3 Bft) 91,30 %
29.02.2016 17:33 6,9 C 88 % 1006,4 hPa 0,0 l/m 11,5 km/h (2 Bft) NO 54 0 min 0,000 mm 0,0 UV-I 7 W/m 5,1 C 3,2 C 14,5 km/h (3 Bft) 95,83 %
29.02.2016 17:34 6,9 C 89 % 1006,4 hPa 0,0 l/m 13,7 km/h (3 Bft) NO 44 0 min 0,000 mm 0,0 UV-I 7 W/m 5,2 C 2,0 C 20,9 km/h (4 Bft) 100,00 %
29.02.2016 17:35 6,9 C 89 % 1006,4 hPa 0,0 l/m 12,4 km/h (3 Bft) O-NO 76 0 min 0,000 mm 0,0 UV-I 5 W/m 5,2 C 2,7 C 16,1 km/h (3 Bft) 100,00 %
29.02.2016 17:36 6,9 C 89 % 1006,4 hPa 0,0 l/m 17,5 km/h (3 Bft) O-NO 60 0 min 0,000 mm 0,0 UV-I 5 W/m 5,2 C 0,3 C 24,1 km/h (4 Bft) 93,10 %
29.02.2016 17:37 6,9 C 89 % 1006,5 hPa 0,0 l/m 14,2 km/h (3 Bft) NO 49 0 min 0,000 mm 0,0 UV-I 5 W/m 5,2 C 1,8 C 20,9 km/h (4 Bft) 96,67 %
29.02.2016 17:38 6,9 C 89 % 1006,5 hPa 0,0 l/m 16,5 km/h (3 Bft) NO 51 0 min 0,000 mm 0,0 UV-I 5 W/m 5,2 C 0,7 C 20,9 km/h (4 Bft) 96,15 %
29.02.2016 17:39 6,9 C 89 % 1006,5 hPa 0,0 l/m 15,4 km/h (3 Bft) O-NO 70 0 min 0,000 mm 0,0 UV-I 1 W/m 5,2 C 1,2 C 20,9 km/h (4 Bft) 91,67 %
29.02.2016 17:40 6,9 C 89 % 1006,5 hPa 0,0 l/m 13,8 km/h (3 Bft) O-NO 74 0 min 0,000 mm 0,0 UV-I 0 W/m 5,2 C 2,0 C 19,3 km/h (3 Bft) 96,88 %
29.02.2016 17:41 6,9 C 89 % 1006,5 hPa 0,0 l/m 11,9 km/h (2 Bft) O 80 0 min 0,000 mm 0,0 UV-I 0 W/m 5,2 C 3,0 C 16,1 km/h (3 Bft) 100,00 %
29.02.2016 17:42 6,9 C 89 % 1006,5 hPa 0,0 l/m 14,1 km/h (3 Bft) O-NO 61 0 min 0,000 mm 0,0 UV-I 0 W/m 5,2 C 1,8 C 17,7 km/h (3 Bft) 100,00 %
29.02.2016 17:43 6,9 C 89 % 1006,5 hPa 0,0 l/m 11,1 km/h (2 Bft) NO 46 0 min 0,000 mm 0,0 UV-I 0 W/m 5,2 C 3,5 C 16,1 km/h (3 Bft) 100,00 %
29.02.2016 17:44 6,9 C 89 % 1006,5 hPa 0,0 l/m 16,0 km/h (3 Bft) O 92 0 min 0,000 mm 0,0 UV-I 0 W/m 5,2 C 0,9 C 22,5 km/h (4 Bft) 95,65 %
29.02.2016 17:45 6,9 C 89 % 1006,6 hPa 0,0 l/m 16,3 km/h (3 Bft) O-NO 66 0 min 0,000 mm 0,0 UV-I 0 W/m 5,2 C 0,8 C 22,5 km/h (4 Bft) 100,00 %
29.02.2016 17:46 6,9 C 89 % 1006,5 hPa 0,0 l/m 13,5 km/h (3 Bft) O-NO 77 0 min 0,000 mm 0,0 UV-I 0 W/m 5,2 C 2,1 C 17,7 km/h (3 Bft) 100,00 %
29.02.2016 17:47 6,9 C 89 % 1006,6 hPa 0,0 l/m 13,2 km/h (3 Bft) NO 55 0 min 0,000 mm 0,0 UV-I 0 W/m 5,2 C 2,3 C 19,3 km/h (3 Bft) 100,00 %
29.02.2016 17:48 6,9 C 89 % 1006,6 hPa 0,0 l/m 12,0 km/h (2 Bft) NO 51 0 min 0,000 mm 0,0 UV-I 0 W/m 5,2 C 2,9 C 16,1 km/h (3 Bft) 100,00 %
29.02.2016 17:49 6,9 C 89 % 1006,6 hPa 0,0 l/m 11,9 km/h (2 Bft) O 89 0 min 0,000 mm 0,0 UV-I 0 W/m 5,2 C 3,0 C 14,5 km/h (3 Bft) 100,00 %
29.02.2016 17:50 6,9 C 89 % 1006,7 hPa 0,0 l/m 11,1 km/h (2 Bft) O 87 0 min 0,000 mm 0,0 UV-I 0 W/m 5,2 C 3,5 C 17,7 km/h (3 Bft) 96,55 %
29.02.2016 17:51 6,8 C 89 % 1006,7 hPa 0,0 l/m 10,1 km/h (2 Bft) O-NO 75 0 min 0,000 mm 0,0 UV-I 0 W/m 5,1 C 4,0 C 16,1 km/h (3 Bft) 100,00 %
29.02.2016 17:52 6,9 C 89 % 1006,8 hPa 0,0 l/m 16,2 km/h (3 Bft) O-NO 68 0 min 0,000 mm 0,0 UV-I 0 W/m 5,2 C 0,8 C 19,3 km/h (3 Bft) 100,00 %
29.02.2016 17:53 6,9 C 89 % 1006,8 hPa 0,0 l/m 13,0 km/h (3 Bft) O-NO 61 0 min 0,000 mm 0,0 UV-I 0 W/m 5,2 C 2,4 C 16,1 km/h (3 Bft) 100,00 %
29.02.2016 17:54 6,8 C 89 % 1006,8 hPa 0,0 l/m 11,5 km/h (2 Bft) O 80 0 min 0,000 mm 0,0 UV-I 0 W/m 5,1 C 3,1 C 14,5 km/h (3 Bft) 100,00 %
29.02.2016 17:55 6,8 C 89 % 1006,8 hPa 0,0 l/m 14,4 km/h (3 Bft) O-NO 63 0 min 0,000 mm 0,0 UV-I 0 W/m 5,1 C 1,5 C 17,7 km/h (3 Bft) 100,00 %
29.02.2016 17:56 6,8 C 89 % 1006,8 hPa 0,0 l/m 12,0 km/h (2 Bft) O-NO 63 0 min 0,000 mm 0,0 UV-I 0 W/m 5,1 C 2,8 C 17,7 km/h (3 Bft) 96,30 %
29.02.2016 17:57 6,8 C 89 % 1006,9 hPa 0,0 l/m 12,8 km/h (3 Bft) O 84 0 min 0,000 mm 0,0 UV-I 0 W/m 5,1 C 2,4 C 14,5 km/h (3 Bft) 100,00 %
29.02.2016 17:58 6,8 C 89 % 1006,9 hPa 0,0 l/m 13,0 km/h (3 Bft) O-NO 59 0 min 0,000 mm 0,0 UV-I 0 W/m 5,1 C 2,3 C 17,7 km/h (3 Bft) 100,00 %
29.02.2016 17:59 6,8 C 89 % 1006,9 hPa 0,0 l/m 13,5 km/h (3 Bft) O-NO 71 0 min 0,000 mm 0,0 UV-I 0 W/m 5,1 C 2,0 C 17,7 km/h (3 Bft) 100,00 %
29.02.2016 18:00 6,8 C 89 % 1006,9 hPa 0,0 l/m 8,6 km/h (2 Bft) O 80 0 min 0,000 mm 0,0 UV-I 0 W/m 5,1 C 5,0 C 12,9 km/h (3 Bft) 100,00 %
29.02.2016 18:02 6,8 C 89 % 1006,9 hPa 0,0 l/m 11,7 km/h (2 Bft) O-NO 78 0 min 0,026 mm 0,0 UV-I 0 W/m 5,1 C 3,0 C 16,1 km/h (3 Bft) 100,00 %
29.02.2016 18:03 6,8 C 89 % 1007,0 hPa 0,0 l/m 7,8 km/h (2 Bft) O 96 0 min 0,000 mm 0,0 UV-I 0 W/m 5,1 C 5,6 C 11,3 km/h (2 Bft) 100,00 %
29.02.2016 18:04 6,8 C 89 % 1007,0 hPa 0,0 l/m 6,6 km/h (2 Bft) O-NO 76 0 min 0,000 mm 0,0 UV-I 0 W/m 5,1 C 6,7 C 11,3 km/h (2 Bft) 100,00 %
29.02.2016 18:05 6,8 C 89 % 1007,0 hPa 0,0 l/m 9,7 km/h (2 Bft) O-NO 73 0 min 0,000 mm 0,0 UV-I 0 W/m 5,1 C 4,3 C 14,5 km/h (3 Bft) 96,15 %
29.02.2016 18:06 6,8 C 89 % 1007,0 hPa 0,0 l/m 12,7 km/h (3 Bft) O-NO 65 0 min 0,000 mm 0,0 UV-I 0 W/m 5,1 C 2,4 C 17,7 km/h (3 Bft) 100,00 %
29.02.2016 18:07 6,8 C 89 % 1007,1 hPa 0,0 l/m 12,0 km/h (2 Bft) O-NO 78 0 min 0,000 mm 0,0 UV-I 0 W/m 5,1 C 2,8 C 17,7 km/h (3 Bft) 100,00 %
29.02.2016 18:08 6,8 C 89 % 1007,1 hPa 0,0 l/m 10,4 km/h (2 Bft) O-NO 67 0 min 0,000 mm 0,0 UV-I 0 W/m 5,1 C 3,8 C 14,5 km/h (3 Bft) 100,00 %
29.02.2016 18:09 6,8 C 89 % 1007,2 hPa 0,0 l/m 7,0 km/h (2 Bft) O 88 0 min 0,000 mm 0,0 UV-I 0 W/m 5,1 C 6,3 C 9,7 km/h (2 Bft) 100,00 %
29.02.2016 18:10 6,8 C 89 % 1007,2 hPa 0,0 l/m 9,4 km/h (2 Bft) O 84 0 min 0,000 mm 0,0 UV-I 0 W/m 5,1 C 4,5 C 14,5 km/h (3 Bft) 100,00 %
29.02.2016 18:11 6,8 C 89 % 1007,2 hPa 0,0 l/m 8,0 km/h (2 Bft) O 88 0 min 0,000 mm 0,0 UV-I 0 W/m 5,1 C 5,5 C 12,9 km/h (3 Bft) 98,62 %
29.02.2016 18:12 6,8 C 89 % 1007,2 hPa 0,0 l/m 8,9 km/h (2 Bft) O 88 0 min 0,000 mm 0,0 UV-I 0 W/m 5,1 C 4,8 C 16,1 km/h (3 Bft) 97,73 %
29.02.2016 18:13 6,8 C 89 % 1007,2 hPa 0,0 l/m 12,1 km/h (2 Bft) O-NO 75 0 min 0,000 mm 0,0 UV-I 0 W/m 5,1 C 2,8 C 14,5 km/h (3 Bft) 100,00 %
29.02.2016 18:14 6,8 C 89 % 1007,3 hPa 0,0 l/m 5,4 km/h (1 Bft) O 90 0 min 0,000 mm 0,0 UV-I 0 W/m 5,1 C 6,8 C 8,0 km/h (2 Bft) 100,00 %
29.02.2016 18:15 6,8 C 89 % 1007,3 hPa 0,0 l/m 6,1 km/h (2 Bft) O-SO 105 0 min 0,000 mm 0,0 UV-I 0 W/m 5,1 C 6,8 C 11,3 km/h (2 Bft) 100,00 %
29.02.2016 18:16 6,8 C 89 % 1007,3 hPa 0,0 l/m 8,6 km/h (2 Bft) O 82 0 min 0,000 mm 0,0 UV-I 0 W/m 5,1 C 5,0 C 14,5 km/h (3 Bft) 100,00 %
29.02.2016 18:17 6,8 C 89 % 1007,3 hPa 0,0 l/m 6,3 km/h (2 Bft) O-SO 109 0 min 0,000 mm 0,0 UV-I 0 W/m 5,1 C 6,8 C 11,3 km/h (2 Bft) 100,00 %
29.02.2016 18:18 6,8 C 89 % 1007,4 hPa 0,0 l/m 7,4 km/h (2 Bft) SO 126 0 min 0,000 mm 0,0 UV-I 0 W/m 5,1 C 6,0 C 11,3 km/h (2 Bft) 100,00 %
29.02.2016 18:19 6,8 C 89 % 1007,4 hPa 0,0 l/m 4,3 km/h (1 Bft) O-SO 113 0 min 0,000 mm 0,0 UV-I 0 W/m 5,1 C 6,8 C 9,7 km/h (2 Bft) 100,00 %
29.02.2016 18:20 6,8 C 89 % 1007,5 hPa 0,0 l/m 4,6 km/h (1 Bft) O 79 0 min 0,000 mm 0,0 UV-I 0 W/m 5,1 C 6,8 C 6,4 km/h (2 Bft) 100,00 %
29.02.2016 18:21 6,8 C 90 % 1007,5 hPa 0,0 l/m 7,2 km/h (2 Bft) O 94 0 min 0,000 mm 0,0 UV-I 0 W/m 5,3 C 6,1 C 9,7 km/h (2 Bft) 96,30 %
29.02.2016 18:22 6,8 C 90 % 1007,5 hPa 0,0 l/m 3,7 km/h (1 Bft) SO 130 0 min 0,000 mm 0,0 UV-I 0 W/m 5,3 C 6,8 C 6,4 km/h (2 Bft) 100,00 %
29.02.2016 18:23 6,8 C 90 % 1007,5 hPa 0,0 l/m 4,8 km/h (1 Bft) O 101 0 min 0,000 mm 0,0 UV-I 0 W/m 5,3 C 6,8 C 6,4 km/h (2 Bft) 100,00 %
29.02.2016 18:24 6,8 C 90 % 1007,5 hPa 0,2 l/m 2,7 km/h (1 Bft) S-SO 153 0 min 0,000 mm 0,0 UV-I 0 W/m 5,3 C 6,8 C 4,8 km/h (1 Bft) 100,00 %
29.02.2016 18:25 6,8 C 90 % 1007,5 hPa 0,0 l/m 3,3 km/h (1 Bft) O 85 0 min 0,000 mm 0,0 UV-I 0 W/m 5,3 C 6,8 C 4,8 km/h (1 Bft) 100,00 %
29.02.2016 18:26 6,8 C 90 % 1007,6 hPa 0,0 l/m 2,7 km/h (1 Bft) O 85 0 min 0,000 mm 0,0 UV-I 0 W/m 5,3 C 6,8 C 4,8 km/h (1 Bft) 100,00 %
29.02.2016 18:27 6,7 C 90 % 1007,6 hPa 0,0 l/m 4,4 km/h (1 Bft) O-SO 123 0 min 0,000 mm 0,0 UV-I 0 W/m 5,2 C 6,7 C 8,0 km/h (2 Bft) 100,00 %
29.02.2016 18:28 6,7 C 90 % 1007,6 hPa 0,0 l/m 5,6 km/h (1 Bft) O 80 0 min 0,000 mm 0,0 UV-I 0 W/m 5,2 C 6,7 C 9,7 km/h (2 Bft) 100,00 %
29.02.2016 18:29 6,7 C 90 % 1007,6 hPa 0,0 l/m 3,8 km/h (1 Bft) O-SO 117 0 min 0,000 mm 0,0 UV-I 0 W/m 5,2 C 6,7 C 4,8 km/h (1 Bft) 95,83 %
29.02.2016 18:30 6,7 C 91 % 1007,7 hPa 0,2 l/m 3,4 km/h (1 Bft) O-SO 117 0 min 0,000 mm 0,0 UV-I 0 W/m 5,3 C 6,7 C 4,8 km/h (1 Bft) 100,00 %
29.02.2016 18:31 6,7 C 91 % 1007,7 hPa 0,0 l/m 3,5 km/h (1 Bft) O-SO 119 0 min 0,000 mm 0,0 UV-I 0 W/m 5,3 C 6,7 C 4,8 km/h (1 Bft) 100,00 %
29.02.2016 18:32 6,7 C 91 % 1007,7 hPa 0,0 l/m 4,3 km/h (1 Bft) O 94 0 min 0,000 mm 0,0 UV-I 0 W/m 5,3 C 6,7 C 6,4 km/h (2 Bft) 95,83 %
29.02.2016 18:33 6,7 C 91 % 1007,7 hPa 0,0 l/m 2,7 km/h (1 Bft) O-SO 105 0 min 0,000 mm 0,0 UV-I 0 W/m 5,3 C 6,7 C 4,8 km/h (1 Bft) 100,00 %
29.02.2016 18:34 6,6 C 91 % 1007,7 hPa 0,0 l/m 6,9 km/h (2 Bft) O 91 0 min 0,000 mm 0,0 UV-I 0 W/m 5,2 C 6,2 C 9,7 km/h (2 Bft) 100,00 %
29.02.2016 18:35 6,6 C 91 % 1007,8 hPa 0,0 l/m 6,0 km/h (2 Bft) O 85 0 min 0,000 mm 0,0 UV-I 0 W/m 5,2 C 6,6 C 9,7 km/h (2 Bft) 92,31 %
29.02.2016 18:36 6,6 C 91 % 1007,8 hPa 0,2 l/m 2,3 km/h (1 Bft) SO 144 0 min 0,000 mm 0,0 UV-I 0 W/m 5,2 C 6,6 C 4,8 km/h (1 Bft) 100,00 %
29.02.2016 18:37 6,6 C 91 % 1007,8 hPa 0,0 l/m 1,2 km/h (1 Bft) SO 144 0 min 0,000 mm 0,0 UV-I 0 W/m 5,2 C 6,6 C 1,6 km/h (1 Bft) 100,00 %
29.02.2016 18:38 6,6 C 91 % 1007,8 hPa 0,0 l/m 1,3 km/h (1 Bft) S-SO 150 0 min 0,000 mm 0,0 UV-I 0 W/m 5,2 C 6,6 C 1,6 km/h (1 Bft) 100,00 %
29.02.2016 18:39 6,6 C 91 % 1007,9 hPa 0,0 l/m 6,2 km/h (2 Bft) S 182 0 min 0,000 mm 0,0 UV-I 0 W/m 5,2 C 6,6 C 8,0 km/h (2 Bft) 95,65 %
29.02.2016 18:40 6,6 C 91 % 1007,9 hPa 0,2 l/m 7,6 km/h (2 Bft) S 181 0 min 0,000 mm 0,0 UV-I 0 W/m 5,2 C 5,6 C 11,3 km/h (2 Bft) 100,00 %
29.02.2016 18:41 6,6 C 92 % 1008,0 hPa 0,0 l/m 9,4 km/h (2 Bft) S-SW 200 0 min 0,000 mm 0,0 UV-I 0 W/m 5,4 C 4,2 C 17,7 km/h (3 Bft) 100,00 %
29.02.2016 18:42 6,4 C 90 % 1008,0 hPa 0,0 l/m 11,2 km/h (2 Bft) S 187 0 min 0,000 mm 0,0 UV-I 0 W/m 4,9 C 2,8 C 20,9 km/h (4 Bft) 100,00 %
29.02.2016 18:43 6,3 C 88 % 1008,0 hPa 0,0 l/m 15,1 km/h (3 Bft) SW 223 0 min 0,000 mm 0,0 UV-I 0 W/m 4,5 C 0,6 C 22,5 km/h (4 Bft) 95,65 %
29.02.2016 18:44 6,0 C 88 % 1008,0 hPa 0,0 l/m 14,1 km/h (3 Bft) SW 220 0 min 0,000 mm 0,0 UV-I 0 W/m 4,2 C 0,7 C 19,3 km/h (3 Bft) 100,00 %
29.02.2016 18:45 5,8 C 88 % 1008,0 hPa 0,0 l/m 14,6 km/h (3 Bft) S-SW 212 0 min 0,000 mm 0,0 UV-I 0 W/m 4,0 C 0,2 C 25,7 km/h (4 Bft) 100,00 %
29.02.2016 18:46 5,5 C 88 % 1008,1 hPa 0,0 l/m 16,3 km/h (3 Bft) W-SW 250 0 min 0,000 mm 0,0 UV-I 0 W/m 3,7 C -0,9 C 25,7 km/h (4 Bft) 100,00 %
29.02.2016 18:47 5,3 C 88 % 1008,1 hPa 0,0 l/m 13,8 km/h (3 Bft) SW 234 0 min 0,000 mm 0,0 UV-I 0 W/m 3,5 C 0,1 C 30,6 km/h (5 Bft) 96,15 %
29.02.2016 18:48 5,1 C 89 % 1008,1 hPa 0,2 l/m 17,1 km/h (3 Bft) S-SW 196 0 min 0,000 mm 0,0 UV-I 0 W/m 3,4 C -1,8 C 32,2 km/h (5 Bft) 100,00 %
29.02.2016 18:49 4,8 C 89 % 1008,1 hPa 0,0 l/m 17,4 km/h (3 Bft) SW 217 0 min 0,000 mm 0,0 UV-I 0 W/m 3,1 C -2,3 C 22,5 km/h (4 Bft) 95,65 %
29.02.2016 18:50 4,7 C 89 % 1008,2 hPa 0,0 l/m 19,4 km/h (3 Bft) W-SW 252 0 min 0,000 mm 0,0 UV-I 0 W/m 3,0 C -3,3 C 22,5 km/h (4 Bft) 95,83 %
29.02.2016 18:51 4,6 C 90 % 1008,3 hPa 0,0 l/m 16,5 km/h (3 Bft) W-SW 239 0 min 0,000 mm 0,0 UV-I 0 W/m 3,1 C -2,2 C 22,5 km/h (4 Bft) 100,00 %
29.02.2016 18:52 4,4 C 90 % 1008,3 hPa 0,0 l/m 17,5 km/h (3 Bft) SW 233 0 min 0,000 mm 0,0 UV-I 0 W/m 2,9 C -2,9 C 27,4 km/h (4 Bft) 100,00 %
29.02.2016 18:53 4,3 C 90 % 1008,3 hPa 0,0 l/m 19,2 km/h (3 Bft) W-SW 243 0 min 0,000 mm 0,0 UV-I 0 W/m 2,8 C -3,7 C 27,4 km/h (4 Bft) 96,30 %
29.02.2016 18:54 4,2 C 91 % 1008,3 hPa 0,0 l/m 13,7 km/h (3 Bft) SW 223 0 min 0,000 mm 0,0 UV-I 0 W/m 2,9 C -1,2 C 29,0 km/h (5 Bft) 100,00 %
29.02.2016 18:55 4,1 C 91 % 1008,4 hPa 0,0 l/m 16,6 km/h (3 Bft) S-SW 212 0 min 0,000 mm 0,0 UV-I 0 W/m 2,8 C -2,8 C 30,6 km/h (5 Bft) 95,83 %
29.02.2016 18:56 4,1 C 91 % 1008,3 hPa 0,2 l/m 21,1 km/h (4 Bft) S 186 0 min 0,000 mm 0,0 UV-I 0 W/m 2,8 C -4,8 C 38,6 km/h (5 Bft) 100,00 %
29.02.2016 18:57 4,0 C 91 % 1008,4 hPa 0,0 l/m 15,6 km/h (3 Bft) S 190 0 min 0,000 mm 0,0 UV-I 0 W/m 2,7 C -2,4 C 22,5 km/h (4 Bft) 100,00 %
29.02.2016 18:58 3,9 C 91 % 1008,4 hPa 0,0 l/m 16,2 km/h (3 Bft) SW 227 0 min 0,000 mm 0,0 UV-I 0 W/m 2,6 C -2,9 C 27,4 km/h (4 Bft) 100,00 %
29.02.2016 18:59 3,9 C 91 % 1008,5 hPa 0,0 l/m 15,7 km/h (3 Bft) W-SW 244 0 min 0,000 mm 0,0 UV-I 0 W/m 2,6 C -2,6 C 24,1 km/h (4 Bft) 100,00 %
29.02.2016 19:00 3,8 C 92 % 1008,5 hPa 0,0 l/m 15,7 km/h (3 Bft) SW 220 0 min 0,000 mm 0,0 UV-I 0 W/m 2,6 C -2,7 C 20,9 km/h (4 Bft) 100,00 %
29.02.2016 19:01 3,8 C 92 % 1008,5 hPa 0,0 l/m 18,7 km/h (3 Bft) SW 231 0 min 0,000 mm 0,0 UV-I 0 W/m 2,6 C -4,2 C 30,6 km/h (5 Bft) 100,00 %
29.02.2016 19:02 3,8 C 92 % 1008,5 hPa 0,0 l/m 12,7 km/h (3 Bft) S 186 0 min 0,000 mm 0,0 UV-I 0 W/m 2,6 C -1,1 C 22,5 km/h (4 Bft) 100,00 %
29.02.2016 19:03 3,7 C 92 % 1008,5 hPa 0,0 l/m 13,7 km/h (3 Bft) S-SW 194 0 min 0,000 mm 0,0 UV-I 0 W/m 2,5 C -1,8 C 19,3 km/h (3 Bft) 100,00 %
29.02.2016 19:04 3,7 C 92 % 1008,5 hPa 0,0 l/m 14,8 km/h (3 Bft) S 188 0 min 0,000 mm 0,0 UV-I 0 W/m 2,5 C -2,4 C 19,3 km/h (3 Bft) 100,00 %
29.02.2016 19:05 3,7 C 92 % 1008,6 hPa 0,0 l/m 16,2 km/h (3 Bft) W-SW 242 0 min 0,000 mm 0,0 UV-I 0 W/m 2,5 C -3,1 C 22,5 km/h (4 Bft) 91,67 %
29.02.2016 19:06 3,6 C 93 % 1008,6 hPa 0,2 l/m 16,9 km/h (3 Bft) SW 225 0 min 0,000 mm 0,0 UV-I 0 W/m 2,6 C -3,6 C 20,9 km/h (4 Bft) 100,00 %
29.02.2016 19:07 3,6 C 93 % 1008,6 hPa 0,0 l/m 20,7 km/h (4 Bft) SW 225 0 min 0,000 mm 0,0 UV-I 0 W/m 2,6 C -5,3 C 32,2 km/h (5 Bft) 100,00 %
29.02.2016 19:08 3,6 C 93 % 1008,5 hPa 0,0 l/m 21,5 km/h (4 Bft) SW 235 0 min 0,000 mm 0,0 UV-I 0 W/m 2,6 C -5,6 C 32,2 km/h (5 Bft) 96,30 %
29.02.2016 19:09 3,6 C 93 % 1008,6 hPa 0,0 l/m 12,3 km/h (3 Bft) SW 223 0 min 0,000 mm 0,0 UV-I 0 W/m 2,6 C -1,0 C 19,3 km/h (3 Bft) 100,00 %
29.02.2016 19:10 3,5 C 93 % 1008,6 hPa 0,0 l/m 17,1 km/h (3 Bft) SW 230 0 min 0,000 mm 0,0 UV-I 0 W/m 2,5 C -3,8 C 25,7 km/h (4 Bft) 96,15 %
29.02.2016 19:11 3,5 C 93 % 1008,6 hPa 0,0 l/m 19,8 km/h (3 Bft) W-SW 254 0 min 0,000 mm 0,0 UV-I 0 W/m 2,5 C -5,0 C 25,7 km/h (4 Bft) 100,00 %
29.02.2016 19:12 3,4 C 93 % 1008,7 hPa 0,2 l/m 18,7 km/h (3 Bft) W-SW 237 0 min 0,000 mm 0,0 UV-I 0 W/m 2,4 C -4,7 C 25,7 km/h (4 Bft) 100,00 %
29.02.2016 19:13 3,4 C 93 % 1008,7 hPa 0,0 l/m 15,6 km/h (3 Bft) W-SW 246 0 min 0,000 mm 0,0 UV-I 0 W/m 2,4 C -3,2 C 22,5 km/h (4 Bft) 95,65 %
29.02.2016 19:14 3,4 C 93 % 1008,8 hPa 0,0 l/m 15,3 km/h (3 Bft) S-SW 197 0 min 0,000 mm 0,0 UV-I 0 W/m 2,4 C -3,0 C 22,5 km/h (4 Bft) 95,83 %
29.02.2016 19:15 3,4 C 93 % 1008,8 hPa 0,0 l/m 15,5 km/h (3 Bft) SW 214 0 min 0,000 mm 0,0 UV-I 0 W/m 2,4 C -3,1 C 25,7 km/h (4 Bft) 100,00 %
29.02.2016 19:16 3,4 C 93 % 1008,8 hPa 0,0 l/m 16,6 km/h (3 Bft) SW 233 0 min 0,000 mm 0,0 UV-I 0 W/m 2,4 C -3,7 C 24,1 km/h (4 Bft) 95,83 %
29.02.2016 19:17 3,3 C 93 % 1008,8 hPa 0,0 l/m 12,1 km/h (2 Bft) W-SW 240 0 min 0,000 mm 0,0 UV-I 0 W/m 2,3 C -1,3 C 16,1 km/h (3 Bft) 95,65 %
29.02.2016 19:18 3,3 C 93 % 1008,8 hPa 0,0 l/m 13,7 km/h (3 Bft) S-SW 203 0 min 0,000 mm 0,0 UV-I 0 W/m 2,3 C -2,3 C 19,3 km/h (3 Bft) 100,00 %
29.02.2016 19:19 3,3 C 93 % 1008,8 hPa 0,2 l/m 17,1 km/h (3 Bft) SW 231 0 min 0,000 mm 0,0 UV-I 0 W/m 2,3 C -4,1 C 24,1 km/h (4 Bft) 92,31 %
29.02.2016 19:20 3,3 C 93 % 1008,9 hPa 0,0 l/m 21,2 km/h (4 Bft) S-SW 207 0 min 0,000 mm 0,0 UV-I 0 W/m 2,3 C -5,9 C 32,2 km/h (5 Bft) 100,00 %
29.02.2016 19:21 3,2 C 93 % 1008,8 hPa 0,0 l/m 20,5 km/h (4 Bft) SW 227 0 min 0,000 mm 0,0 UV-I 0 W/m 2,2 C -5,7 C 30,6 km/h (5 Bft) 95,65 %
29.02.2016 19:22 3,2 C 93 % 1008,9 hPa 0,0 l/m 18,2 km/h (3 Bft) W-SW 239 0 min 0,000 mm 0,0 UV-I 0 W/m 2,2 C -4,7 C 24,1 km/h (4 Bft) 100,00 %
29.02.2016 19:23 3,2 C 93 % 1008,9 hPa 0,2 l/m 14,8 km/h (3 Bft) S 185 0 min 0,000 mm 0,0 UV-I 0 W/m 2,2 C -3,0 C 17,7 km/h (3 Bft) 96,55 %
29.02.2016 19:24 3,2 C 93 % 1008,9 hPa 0,0 l/m 16,8 km/h (3 Bft) W-SW 248 0 min 0,000 mm 0,0 UV-I 0 W/m 2,2 C -4,0 C 24,1 km/h (4 Bft) 96,30 %
29.02.2016 19:25 3,1 C 93 % 1008,9 hPa 0,0 l/m 23,4 km/h (4 Bft) SW 226 0 min 0,000 mm 0,0 UV-I 0 W/m 2,1 C -7,0 C 32,2 km/h (5 Bft) 100,00 %
29.02.2016 19:26 3,1 C 93 % 1009,0 hPa 0,0 l/m 21,9 km/h (4 Bft) SW 219 0 min 0,000 mm 0,0 UV-I 0 W/m 2,1 C -6,4 C 32,2 km/h (5 Bft) 96,30 %
29.02.2016 19:27 3,1 C 93 % 1009,0 hPa 0,0 l/m 21,2 km/h (4 Bft) SW 223 0 min 0,000 mm 0,0 UV-I 0 W/m 2,1 C -6,1 C 29,0 km/h (5 Bft) 96,15 %
29.02.2016 19:28 3,1 C 93 % 1009,0 hPa 0,2 l/m 22,3 km/h (4 Bft) SW 223 0 min 0,000 mm 0,0 UV-I 0 W/m 2,1 C -6,5 C 32,2 km/h (5 Bft) 91,67 %
29.02.2016 19:29 3,0 C 93 % 1009,0 hPa 0,0 l/m 27,0 km/h (4 Bft) SW 229 0 min 0,000 mm 0,0 UV-I 0 W/m 2,0 C -8,3 C 33,8 km/h (5 Bft) 100,00 %
29.02.2016 19:30 3,0 C 93 % 1009,1 hPa 0,0 l/m 16,9 km/h (3 Bft) S-SW 205 0 min 0,000 mm 0,0 UV-I 0 W/m 2,0 C -4,3 C 24,1 km/h (4 Bft) 95,83 %
29.02.2016 19:31 2,9 C 93 % 1009,1 hPa 0,0 l/m 20,5 km/h (4 Bft) S 183 0 min 0,000 mm 0,0 UV-I 0 W/m 1,9 C -6,1 C 27,4 km/h (4 Bft) 95,65 %
29.02.2016 19:32 2,9 C 93 % 1009,1 hPa 0,2 l/m 20,0 km/h (4 Bft) W-SW 242 0 min 0,000 mm 0,0 UV-I 0 W/m 1,9 C -5,9 C 32,2 km/h (5 Bft) 91,67 %
29.02.2016 19:33 2,9 C 93 % 1009,1 hPa 0,0 l/m 19,0 km/h (3 Bft) S-SW 192 0 min 0,000 mm 0,0 UV-I 0 W/m 1,9 C -5,4 C 27,4 km/h (4 Bft) 100,00 %
29.02.2016 19:34 2,9 C 93 % 1009,2 hPa 0,0 l/m 19,2 km/h (3 Bft) SW 227 0 min 0,000 mm 0,0 UV-I 0 W/m 1,9 C -5,5 C 25,7 km/h (4 Bft) 92,31 %
29.02.2016 19:35 2,9 C 93 % 1009,2 hPa 0,0 l/m 16,6 km/h (3 Bft) W-SW 248 0 min 0,000 mm 0,0 UV-I 0 W/m 1,9 C -4,3 C 20,9 km/h (4 Bft) 100,00 %
29.02.2016 19:36 2,8 C 94 % 1009,2 hPa 0,0 l/m 14,6 km/h (3 Bft) SW 236 0 min 0,000 mm 0,0 UV-I 0 W/m 1,9 C -3,4 C 22,5 km/h (4 Bft) 96,55 %
29.02.2016 19:37 2,8 C 93 % 1009,2 hPa 0,2 l/m 18,2 km/h (3 Bft) W-SW 255 0 min 0,000 mm 0,0 UV-I 0 W/m 1,8 C -5,2 C 29,0 km/h (5 Bft) 96,67 %
29.02.2016 19:38 2,8 C 93 % 1009,2 hPa 0,0 l/m 18,9 km/h (3 Bft) SW 217 0 min 0,000 mm 0,0 UV-I 0 W/m 1,8 C -5,5 C 30,6 km/h (5 Bft) 100,00 %
29.02.2016 19:39 2,8 C 93 % 1009,2 hPa 0,0 l/m 16,4 km/h (3 Bft) S-SW 193 0 min 0,000 mm 0,0 UV-I 0 W/m 1,8 C -4,3 C 29,0 km/h (5 Bft) 91,67 %
29.02.2016 19:40 2,8 C 93 % 1009,3 hPa 0,2 l/m 15,9 km/h (3 Bft) S-SW 198 0 min 0,000 mm 0,0 UV-I 0 W/m 1,8 C -4,1 C 25,7 km/h (4 Bft) 100,00 %
29.02.2016 19:41 2,8 C 93 % 1009,3 hPa 0,0 l/m 18,0 km/h (3 Bft) S-SW 200 0 min 0,000 mm 0,0 UV-I 0 W/m 1,8 C -5,1 C 30,6 km/h (5 Bft) 95,83 %
29.02.2016 19:42 2,8 C 93 % 1009,3 hPa 0,0 l/m 18,6 km/h (3 Bft) SW 232 0 min 0,000 mm 0,0 UV-I 0 W/m 1,8 C -5,4 C 22,5 km/h (4 Bft) 96,15 %
29.02.2016 19:43 2,7 C 93 % 1009,3 hPa 0,0 l/m 23,4 km/h (4 Bft) SW 224 0 min 0,000 mm 0,0 UV-I 0 W/m 1,7 C -7,5 C 30,6 km/h (5 Bft) 100,00 %
29.02.2016 19:44 2,7 C 93 % 1009,4 hPa 0,0 l/m 20,3 km/h (4 Bft) W-SW 249 0 min 0,000 mm 0,0 UV-I 0 W/m 1,7 C -6,3 C 27,4 km/h (4 Bft) 95,65 %
29.02.2016 19:45 2,7 C 93 % 1009,4 hPa 0,2 l/m 24,1 km/h (4 Bft) W-SW 240 0 min 0,000 mm 0,0 UV-I 0 W/m 1,7 C -7,7 C 33,8 km/h (5 Bft) 100,00 %
29.02.2016 19:46 2,7 C 94 % 1009,4 hPa 0,0 l/m 23,1 km/h (4 Bft) S-SW 213 0 min 0,000 mm 0,0 UV-I 0 W/m 1,8 C -7,4 C 29,0 km/h (5 Bft) 95,65 %
29.02.2016 19:47 2,7 C 94 % 1009,4 hPa 0,2 l/m 23,3 km/h (4 Bft) SW 221 0 min 0,000 mm 0,0 UV-I 0 W/m 1,8 C -7,5 C 30,6 km/h (5 Bft) 100,00 %
29.02.2016 19:48 2,7 C 94 % 1009,4 hPa 0,0 l/m 25,1 km/h (4 Bft) SW 217 0 min 0,000 mm 0,0 UV-I 0 W/m 1,8 C -8,1 C 33,8 km/h (5 Bft) 100,00 %
29.02.2016 19:49 2,7 C 94 % 1009,4 hPa 0,0 l/m 23,5 km/h (4 Bft) W 265 0 min 0,000 mm 0,0 UV-I 0 W/m 1,8 C -7,5 C 30,6 km/h (5 Bft) 96,30 %
29.02.2016 19:50 2,7 C 94 % 1009,4 hPa 0,2 l/m 23,6 km/h (4 Bft) SW 228 0 min 0,000 mm 0,0 UV-I 0 W/m 1,8 C -7,6 C 29,0 km/h (5 Bft) 100,00 %
29.02.2016 19:51 2,7 C 94 % 1009,4 hPa 0,0 l/m 15,9 km/h (3 Bft) S-SW 192 0 min 0,000 mm 0,0 UV-I 0 W/m 1,8 C -4,2 C 27,4 km/h (4 Bft) 100,00 %
29.02.2016 19:52 2,7 C 94 % 1009,4 hPa 0,0 l/m 18,6 km/h (3 Bft) SW 217 0 min 0,000 mm 0,0 UV-I 0 W/m 1,8 C -5,5 C 30,6 km/h (5 Bft) 100,00 %
29.02.2016 19:53 2,7 C 94 % 1009,5 hPa 0,2 l/m 18,7 km/h (3 Bft) W-SW 242 0 min 0,000 mm 0,0 UV-I 0 W/m 1,8 C -5,6 C 25,7 km/h (4 Bft) 100,00 %
29.02.2016 19:54 2,7 C 94 % 1009,4 hPa 0,0 l/m 21,4 km/h (4 Bft) W-SW 239 0 min 0,000 mm 0,0 UV-I 0 W/m 1,8 C -6,7 C 30,6 km/h (5 Bft) 100,00 %
29.02.2016 19:55 2,6 C 94 % 1009,5 hPa 0,0 l/m 24,2 km/h (4 Bft) W-SW 242 0 min 0,000 mm 0,0 UV-I 0 W/m 1,7 C -7,9 C 32,2 km/h (5 Bft) 96,15 %
29.02.2016 19:56 2,6 C 94 % 1009,5 hPa 0,2 l/m 16,9 km/h (3 Bft) SW 232 0 min 0,000 mm 0,0 UV-I 0 W/m 1,7 C -4,8 C 32,2 km/h (5 Bft) 100,00 %
29.02.2016 19:57 2,6 C 94 % 1009,5 hPa 0,0 l/m 23,0 km/h (4 Bft) W-SW 253 0 min 0,000 mm 0,0 UV-I 0 W/m 1,7 C -7,5 C 29,0 km/h (5 Bft) 100,00 %
29.02.2016 19:58 2,6 C 94 % 1009,5 hPa 0,0 l/m 22,1 km/h (4 Bft) S 182 0 min 0,000 mm 0,0 UV-I 0 W/m 1,7 C -7,1 C 32,2 km/h (5 Bft) 100,00 %
29.02.2016 19:59 2,6 C 94 % 1009,5 hPa 0,0 l/m 19,4 km/h (3 Bft) W-SW 238 0 min 0,000 mm 0,0 UV-I 0 W/m 1,7 C -6,0 C 25,7 km/h (4 Bft) 100,00 %
29.02.2016 20:00 2,6 C 94 % 1009,6 hPa 0,0 l/m 18,8 km/h (3 Bft) SW 227 0 min 0,000 mm 0,0 UV-I 0 W/m 1,7 C -5,7 C 30,6 km/h (5 Bft) 100,00 %
29.02.2016 20:02 2,6 C 94 % 1009,6 hPa 0,2 l/m 18,9 km/h (3 Bft) W-SW 242 0 min 0,000 mm 0,0 UV-I 0 W/m 1,7 C -5,8 C 32,2 km/h (5 Bft) 100,00 %
29.02.2016 20:03 2,6 C 94 % 1009,6 hPa 0,0 l/m 18,4 km/h (3 Bft) SW 227 0 min 0,000 mm 0,0 UV-I 0 W/m 1,7 C -5,6 C 25,7 km/h (4 Bft) 96,15 %
29.02.2016 20:04 2,6 C 94 % 1009,7 hPa 0,2 l/m 16,6 km/h (3 Bft) W-SW 238 0 min 0,000 mm 0,0 UV-I 0 W/m 1,7 C -4,7 C 32,2 km/h (5 Bft) 100,00 %
29.02.2016 20:05 2,6 C 94 % 1009,6 hPa 0,0 l/m 20,7 km/h (4 Bft) W-SW 245 0 min 0,000 mm 0,0 UV-I 0 W/m 1,7 C -6,6 C 30,6 km/h (5 Bft) 100,00 %
29.02.2016 20:06 2,6 C 94 % 1009,7 hPa 0,0 l/m 15,8 km/h (3 Bft) SW 236 0 min 0,000 mm 0,0 UV-I 0 W/m 1,7 C -4,3 C 27,4 km/h (4 Bft) 100,00 %
29.02.2016 20:07 2,6 C 94 % 1009,7 hPa 0,2 l/m 19,8 km/h (3 Bft) W-SW 240 0 min 0,000 mm 0,0 UV-I 0 W/m 1,7 C -6,2 C 22,5 km/h (4 Bft) 100,00 %
29.02.2016 20:08 2,6 C 94 % 1009,7 hPa 0,0 l/m 20,7 km/h (4 Bft) W-SW 245 0 min 0,000 mm 0,0 UV-I 0 W/m 1,7 C -6,6 C 32,2 km/h (5 Bft) 98,59 %
29.02.2016 20:09 2,6 C 94 % 1009,7 hPa 0,0 l/m 20,9 km/h (4 Bft) W-SW 242 0 min 0,000 mm 0,0 UV-I 0 W/m 1,7 C -6,7 C 30,6 km/h (5 Bft) 97,56 %
29.02.2016 20:10 2,6 C 94 % 1009,7 hPa 0,0 l/m 21,6 km/h (4 Bft) SW 218 0 min 0,000 mm 0,0 UV-I 0 W/m 1,7 C -6,9 C 29,0 km/h (5 Bft) 100,00 %
29.02.2016 20:11 2,6 C 94 % 1009,7 hPa 0,2 l/m 18,6 km/h (3 Bft) W 261 0 min 0,000 mm 0,0 UV-I 0 W/m 1,7 C -5,7 C 29,0 km/h (5 Bft) 100,00 %
29.02.2016 20:12 2,5 C 94 % 1009,8 hPa 0,0 l/m 19,4 km/h (3 Bft) SW 220 0 min 0,000 mm 0,0 UV-I 0 W/m 1,6 C -6,1 C 29,0 km/h (5 Bft) 100,00 %
29.02.2016 20:13 2,5 C 94 % 1009,7 hPa 0,0 l/m 18,1 km/h (3 Bft) W-SW 247 0 min 0,000 mm 0,0 UV-I 0 W/m 1,6 C -5,5 C 24,1 km/h (4 Bft) 100,00 %
29.02.2016 20:14 2,5 C 94 % 1009,8 hPa 0,2 l/m 17,4 km/h (3 Bft) W-SW 252 0 min 0,000 mm 0,0 UV-I 0 W/m 1,6 C -5,2 C 20,9 km/h (4 Bft) 100,00 %
29.02.2016 20:15 2,6 C 94 % 1009,8 hPa 0,0 l/m 16,0 km/h (3 Bft) W-SW 250 0 min 0,000 mm 0,0 UV-I 0 W/m 1,7 C -4,4 C 24,1 km/h (4 Bft) 100,00 %
29.02.2016 20:16 2,5 C 94 % 1009,8 hPa 0,0 l/m 16,6 km/h (3 Bft) SW 219 0 min 0,000 mm 0,0 UV-I 0 W/m 1,6 C -4,8 C 22,5 km/h (4 Bft) 100,00 %
29.02.2016 20:17 2,5 C 94 % 1009,8 hPa 0,0 l/m 18,6 km/h (3 Bft) W-SW 244 0 min 0,000 mm 0,0 UV-I 0 W/m 1,6 C -5,8 C 27,4 km/h (4 Bft) 100,00 %
29.02.2016 20:18 2,5 C 94 % 1009,8 hPa 0,2 l/m 19,1 km/h (3 Bft) W-SW 246 0 min 0,000 mm 0,0 UV-I 0 W/m 1,6 C -6,0 C 29,0 km/h (5 Bft) 96,15 %
29.02.2016 20:19 2,5 C 94 % 1009,8 hPa 0,0 l/m 19,5 km/h (3 Bft) SW 236 0 min 0,000 mm 0,0 UV-I 0 W/m 1,6 C -6,2 C 29,0 km/h (5 Bft) 100,00 %
29.02.2016 20:20 2,5 C 94 % 1009,8 hPa 0,0 l/m 17,0 km/h (3 Bft) SW 229 0 min 0,000 mm 0,0 UV-I 0 W/m 1,6 C -5,0 C 22,5 km/h (4 Bft) 100,00 %
29.02.2016 20:21 2,5 C 94 % 1009,9 hPa 0,2 l/m 16,5 km/h (3 Bft) W-SW 249 0 min 0,000 mm 0,0 UV-I 0 W/m 1,6 C -4,8 C 24,1 km/h (4 Bft) 95,83 %
29.02.2016 20:22 2,5 C 94 % 1009,9 hPa 0,0 l/m 15,5 km/h (3 Bft) W-SW 242 0 min 0,000 mm 0,0 UV-I 0 W/m 1,6 C -4,2 C 24,1 km/h (4 Bft) 100,00 %
29.02.2016 20:23 2,4 C 94 % 1009,9 hPa 0,0 l/m 23,2 km/h (4 Bft) SW 225 0 min 0,000 mm 0,0 UV-I 0 W/m 1,5 C -7,8 C 33,8 km/h (5 Bft) 100,00 %
29.02.2016 20:24 2,4 C 94 % 1009,9 hPa 0,0 l/m 16,2 km/h (3 Bft) SW 226 0 min 0,000 mm 0,0 UV-I 0 W/m 1,5 C -4,7 C 25,7 km/h (4 Bft) 100,00 %
29.02.2016 20:25 2,4 C 94 % 1010,0 hPa 0,0 l/m 16,5 km/h (3 Bft) SW 231 0 min 0,000 mm 0,0 UV-I 0 W/m 1,5 C -4,9 C 24,1 km/h (4 Bft) 100,00 %
29.02.2016 20:26 2,4 C 94 % 1009,9 hPa 0,2 l/m 20,2 km/h (4 Bft) SW 232 0 min 0,000 mm 0,0 UV-I 0 W/m 1,5 C -6,6 C 27,4 km/h (4 Bft) 96,55 %
29.02.2016 20:27 2,4 C 94 % 1009,9 hPa 0,0 l/m 21,4 km/h (4 Bft) W-SW 249 0 min 0,000 mm 0,0 UV-I 0 W/m 1,5 C -7,1 C 29,0 km/h (5 Bft) 95,83 %
29.02.2016 20:28 2,4 C 94 % 1010,0 hPa 0,0 l/m 19,7 km/h (3 Bft) W-SW 251 0 min 0,000 mm 0,0 UV-I 0 W/m 1,5 C -6,4 C 27,4 km/h (4 Bft) 100,00 %
29.02.2016 20:29 2,4 C 94 % 1010,0 hPa 0,0 l/m 20,1 km/h (4 Bft) SW 229 0 min 0,000 mm 0,0 UV-I 0 W/m 1,5 C -6,6 C 27,4 km/h (4 Bft) 93,33 %
29.02.2016 20:30 2,4 C 94 % 1009,9 hPa 0,2 l/m 16,9 km/h (3 Bft) W-SW 238 0 min 0,000 mm 0,0 UV-I 0 W/m 1,5 C -5,1 C 22,5 km/h (4 Bft) 100,00 %
29.02.2016 20:31 2,4 C 94 % 1010,0 hPa 0,0 l/m 14,7 km/h (3 Bft) W-SW 248 0 min 0,000 mm 0,0 UV-I 0 W/m 1,5 C -3,9 C 19,3 km/h (3 Bft) 100,00 %
29.02.2016 20:32 2,4 C 94 % 1010,0 hPa 0,0 l/m 12,5 km/h (3 Bft) W-SW 240 0 min 0,000 mm 0,0 UV-I 0 W/m 1,5 C -2,6 C 20,9 km/h (4 Bft) 96,15 %
29.02.2016 20:33 2,4 C 94 % 1010,0 hPa 0,0 l/m 21,9 km/h (4 Bft) S-SW 204 0 min 0,000 mm 0,0 UV-I 0 W/m 1,5 C -7,3 C 30,6 km/h (5 Bft) 100,00 %
29.02.2016 20:34 2,4 C 94 % 1010,0 hPa 0,0 l/m 18,1 km/h (3 Bft) W-SW 239 0 min 0,000 mm 0,0 UV-I 0 W/m 1,5 C -5,7 C 25,7 km/h (4 Bft) 100,00 %
29.02.2016 20:35 2,4 C 94 % 1010,0 hPa 0,2 l/m 14,0 km/h (3 Bft) W-SW 246 0 min 0,000 mm 0,0 UV-I 0 W/m 1,5 C -3,5 C 24,1 km/h (4 Bft) 100,00 %
29.02.2016 20:36 2,4 C 94 % 1010,0 hPa 0,0 l/m 18,6 km/h (3 Bft) W-SW 240 0 min 0,000 mm 0,0 UV-I 0 W/m 1,5 C -5,9 C 27,4 km/h (4 Bft) 100,00 %
29.02.2016 20:37 2,4 C 94 % 1010,0 hPa 0,0 l/m 18,3 km/h (3 Bft) SW 218 0 min 0,000 mm 0,0 UV-I 0 W/m 1,5 C -5,8 C 27,4 km/h (4 Bft) 100,00 %
29.02.2016 20:38 2,4 C 94 % 1010,1 hPa 0,2 l/m 18,2 km/h (3 Bft) S-SW 206 0 min 0,000 mm 0,0 UV-I 0 W/m 1,5 C -5,7 C 24,1 km/h (4 Bft) 100,00 %
29.02.2016 20:39 2,4 C 94 % 1010,1 hPa 0,0 l/m 14,9 km/h (3 Bft) SW 232 0 min 0,000 mm 0,0 UV-I 0 W/m 1,5 C -4,0 C 24,1 km/h (4 Bft) 100,00 %
29.02.2016 20:40 2,3 C 94 % 1010,2 hPa 0,0 l/m 17,9 km/h (3 Bft) W 265 0 min 0,000 mm 0,0 UV-I 0 W/m 1,4 C -5,7 C 27,4 km/h (4 Bft) 100,00 %
29.02.2016 20:41 2,3 C 94 % 1010,1 hPa 0,0 l/m 17,6 km/h (3 Bft) W-SW 251 0 min 0,000 mm 0,0 UV-I 0 W/m 1,4 C -5,6 C 24,1 km/h (4 Bft) 100,00 %
29.02.2016 20:42 2,3 C 94 % 1010,2 hPa 0,0 l/m 16,7 km/h (3 Bft) W-SW 242 0 min 0,000 mm 0,0 UV-I 0 W/m 1,4 C -5,1 C 24,1 km/h (4 Bft) 100,00 %
29.02.2016 20:43 2,3 C 94 % 1010,1 hPa 0,2 l/m 18,6 km/h (3 Bft) SW 236 0 min 0,000 mm 0,0 UV-I 0 W/m 1,4 C -6,0 C 24,1 km/h (4 Bft) 100,00 %
29.02.2016 20:44 2,3 C 94 % 1010,2 hPa 0,0 l/m 16,6 km/h (3 Bft) W-SW 238 0 min 0,000 mm 0,0 UV-I 0 W/m 1,4 C -5,1 C 22,5 km/h (4 Bft) 100,00 %
29.02.2016 20:45 2,3 C 94 % 1010,2 hPa 0,0 l/m 21,8 km/h (4 Bft) S-SW 202 0 min 0,000 mm 0,0 UV-I 0 W/m 1,4 C -7,4 C 29,0 km/h (5 Bft) 100,00 %
29.02.2016 20:46 2,3 C 94 % 1010,3 hPa 0,0 l/m 16,6 km/h (3 Bft) SW 217 0 min 0,000 mm 0,0 UV-I 0 W/m 1,4 C -5,1 C 22,5 km/h (4 Bft) 100,00 %
29.02.2016 20:47 2,3 C 94 % 1010,2 hPa 0,2 l/m 16,9 km/h (3 Bft) W-SW 238 0 min 0,000 mm 0,0 UV-I 0 W/m 1,4 C -5,2 C 24,1 km/h (4 Bft) 98,62 %
29.02.2016 20:48 2,3 C 94 % 1010,4 hPa 0,0 l/m 13,6 km/h (3 Bft) W-SW 240 0 min 0,000 mm 0,0 UV-I 0 W/m 1,4 C -3,4 C 20,9 km/h (4 Bft) 97,73 %
29.02.2016 20:49 2,3 C 94 % 1010,3 hPa 0,0 l/m 13,0 km/h (3 Bft) SW 231 0 min 0,000 mm 0,0 UV-I 0 W/m 1,4 C -3,0 C 25,7 km/h (4 Bft) 100,00 %
29.02.2016 20:50 2,3 C 94 % 1010,3 hPa 0,0 l/m 18,9 km/h (3 Bft) W-SW 247 0 min 0,000 mm 0,0 UV-I 0 W/m 1,4 C -6,2 C 27,4 km/h (4 Bft) 96,30 %
29.02.2016 20:51 2,3 C 94 % 1010,4 hPa 0,0 l/m 16,8 km/h (3 Bft) SW 233 0 min 0,000 mm 0,0 UV-I 0 W/m 1,4 C -5,2 C 25,7 km/h (4 Bft) 100,00 %
29.02.2016 20:52 2,3 C 94 % 1010,3 hPa 0,0 l/m 20,9 km/h (4 Bft) S-SW 204 0 min 0,000 mm 0,0 UV-I 0 W/m 1,4 C -7,0 C 27,4 km/h (4 Bft) 96,15 %
29.02.2016 20:53 2,3 C 94 % 1010,4 hPa 0,2 l/m 19,5 km/h (3 Bft) S-SW 198 0 min 0,000 mm 0,0 UV-I 0 W/m 1,4 C -6,4 C 27,4 km/h (4 Bft) 100,00 %
29.02.2016 20:54 2,3 C 94 % 1010,3 hPa 0,0 l/m 16,7 km/h (3 Bft) W-SW 245 0 min 0,000 mm 0,0 UV-I 0 W/m 1,4 C -5,1 C 20,9 km/h (4 Bft) 96,55 %
29.02.2016 20:55 2,3 C 94 % 1010,4 hPa 0,0 l/m 14,6 km/h (3 Bft) SW 228 0 min 0,000 mm 0,0 UV-I 0 W/m 1,4 C -4,0 C 22,5 km/h (4 Bft) 100,00 %
29.02.2016 20:56 2,3 C 94 % 1010,4 hPa 0,0 l/m 16,3 km/h (3 Bft) W-SW 243 0 min 0,000 mm 0,0 UV-I 0 W/m 1,4 C -4,9 C 20,9 km/h (4 Bft) 96,15 %
29.02.2016 20:57 2,3 C 94 % 1010,4 hPa 0,2 l/m 18,4 km/h (3 Bft) SW 234 0 min 0,000 mm 0,0 UV-I 0 W/m 1,4 C -5,9 C 27,4 km/h (4 Bft) 100,00 %
29.02.2016 20:58 2,3 C 94 % 1010,4 hPa 0,0 l/m 19,1 km/h (3 Bft) SW 215 0 min 0,000 mm 0,0 UV-I 0 W/m 1,4 C -6,3 C 25,7 km/h (4 Bft) 100,00 %
29.02.2016 20:59 2,3 C 94 % 1010,4 hPa 0,0 l/m 15,7 km/h (3 Bft) W 261 0 min 0,000 mm 0,0 UV-I 0 W/m 1,4 C -4,6 C 25,7 km/h (4 Bft) 100,00 %
29.02.2016 21:00 2,3 C 94 % 1010,4 hPa 0,0 l/m 20,9 km/h (4 Bft) SW 221 0 min 0,000 mm 0,0 UV-I 0 W/m 1,4 C -7,0 C 24,1 km/h (4 Bft) 100,00 %
29.02.2016 21:01 2,3 C 94 % 1010,5 hPa 0,0 l/m 17,6 km/h (3 Bft) W-SW 238 0 min 0,000 mm 0,0 UV-I 0 W/m 1,4 C -5,6 C 24,1 km/h (4 Bft) 96,55 %
29.02.2016 21:02 2,3 C 94 % 1010,4 hPa 0,2 l/m 19,7 km/h (3 Bft) SW 235 0 min 0,000 mm 0,0 UV-I 0 W/m 1,4 C -6,5 C 27,4 km/h (4 Bft) 95,45 %
29.02.2016 21:03 2,3 C 94 % 1010,4 hPa 0,0 l/m 18,8 km/h (3 Bft) SW 234 0 min 0,000 mm 0,0 UV-I 0 W/m 1,4 C -6,1 C 30,6 km/h (5 Bft) 96,30 %
29.02.2016 21:04 2,3 C 94 % 1010,5 hPa 0,0 l/m 25,7 km/h (4 Bft) SW 236 0 min 0,000 mm 0,0 UV-I 0 W/m 1,4 C -8,8 C 33,8 km/h (5 Bft) 100,00 %
29.02.2016 21:05 2,3 C 94 % 1010,5 hPa 0,0 l/m 23,9 km/h (4 Bft) SW 227 0 min 0,000 mm 0,0 UV-I 0 W/m 1,4 C -8,2 C 32,2 km/h (5 Bft) 100,00 %
29.02.2016 21:06 2,3 C 94 % 1010,5 hPa 0,2 l/m 21,1 km/h (4 Bft) W 265 0 min 0,000 mm 0,0 UV-I 0 W/m 1,4 C -7,1 C 29,0 km/h (5 Bft) 100,00 %
29.02.2016 21:07 2,3 C 94 % 1010,6 hPa 0,0 l/m 19,6 km/h (3 Bft) S-SW 213 0 min 0,000 mm 0,0 UV-I 0 W/m 1,4 C -6,5 C 30,6 km/h (5 Bft) 100,00 %
29.02.2016 21:08 2,3 C 94 % 1010,6 hPa 0,0 l/m 21,9 km/h (4 Bft) W-SW 250 0 min 0,000 mm 0,0 UV-I 0 W/m 1,4 C -7,4 C 29,0 km/h (5 Bft) 100,00 %
29.02.2016 21:09 2,2 C 94 % 1010,6 hPa 0,0 l/m 23,0 km/h (4 Bft) SW 224 0 min 0,000 mm 0,0 UV-I 0 W/m 1,3 C -8,0 C 29,0 km/h (5 Bft) 100,00 %
29.02.2016 21:10 2,2 C 94 % 1010,6 hPa 0,0 l/m 21,8 km/h (4 Bft) SW 235 0 min 0,000 mm 0,0 UV-I 0 W/m 1,3 C -7,5 C 29,0 km/h (5 Bft) 97,37 %
29.02.2016 21:11 2,2 C 94 % 1010,7 hPa 0,2 l/m 17,6 km/h (3 Bft) S-SW 201 0 min 0,000 mm 0,0 UV-I 0 W/m 1,3 C -5,7 C 24,1 km/h (4 Bft) 100,00 %
29.02.2016 21:12 2,2 C 94 % 1010,7 hPa 0,0 l/m 17,3 km/h (3 Bft) SW 221 0 min 0,000 mm 0,0 UV-I 0 W/m 1,3 C -5,5 C 20,9 km/h (4 Bft) 91,67 %
29.02.2016 21:13 2,2 C 94 % 1010,7 hPa 0,0 l/m 19,9 km/h (4 Bft) SW 223 0 min 0,000 mm 0,0 UV-I 0 W/m 1,3 C -6,7 C 22,5 km/h (4 Bft) 100,00 %
29.02.2016 21:14 2,2 C 94 % 1010,8 hPa 0,0 l/m 16,1 km/h (3 Bft) S-SW 202 0 min 0,000 mm 0,0 UV-I 0 W/m 1,3 C -4,9 C 27,4 km/h (4 Bft) 100,00 %
29.02.2016 21:15 2,2 C 94 % 1010,7 hPa 0,2 l/m 24,1 km/h (4 Bft) SW 224 0 min 0,000 mm 0,0 UV-I 0 W/m 1,3 C -8,4 C 35,4 km/h (5 Bft) 100,00 %
29.02.2016 21:16 2,2 C 94 % 1010,8 hPa 0,0 l/m 20,2 km/h (4 Bft) S-SW 208 0 min 0,000 mm 0,0 UV-I 0 W/m 1,3 C -6,9 C 29,0 km/h (5 Bft) 100,00 %
29.02.2016 21:17 2,2 C 94 % 1010,8 hPa 0,0 l/m 20,4 km/h (4 Bft) S-SW 202 0 min 0,000 mm 0,0 UV-I 0 W/m 1,3 C -7,0 C 27,4 km/h (4 Bft) 94,12 %
29.02.2016 21:18 2,2 C 94 % 1010,7 hPa 0,0 l/m 25,2 km/h (4 Bft) W-SW 246 0 min 0,000 mm 0,0 UV-I 0 W/m 1,3 C -8,8 C 33,8 km/h (5 Bft) 96,30 %
29.02.2016 21:19 2,2 C 94 % 1010,8 hPa 0,0 l/m 20,6 km/h (4 Bft) W-SW 241 0 min 0,000 mm 0,0 UV-I 0 W/m 1,3 C -7,0 C 29,0 km/h (5 Bft) 92,31 %
29.02.2016 21:20 2,2 C 94 % 1010,8 hPa 0,0 l/m 20,4 km/h (4 Bft) SW 234 0 min 0,000 mm 0,0 UV-I 0 W/m 1,3 C -7,0 C 30,6 km/h (5 Bft) 100,00 %
29.02.2016 21:21 2,2 C 94 % 1010,8 hPa 0,0 l/m 16,8 km/h (3 Bft) W 260 0 min 0,000 mm 0,0 UV-I 0 W/m 1,3 C -5,3 C 22,5 km/h (4 Bft) 96,15 %
29.02.2016 21:22 2,2 C 94 % 1010,8 hPa 0,2 l/m 15,9 km/h (3 Bft) SW 225 0 min 0,000 mm 0,0 UV-I 0 W/m 1,3 C -4,8 C 20,9 km/h (4 Bft) 100,00 %
29.02.2016 21:23 2,2 C 94 % 1010,9 hPa 0,0 l/m 16,9 km/h (3 Bft) SW 215 0 min 0,000 mm 0,0 UV-I 0 W/m 1,3 C -5,3 C 27,4 km/h (4 Bft) 96,77 %
29.02.2016 21:24 2,2 C 94 % 1010,9 hPa 0,0 l/m 20,5 km/h (4 Bft) SW 234 0 min 0,000 mm 0,0 UV-I 0 W/m 1,3 C -7,0 C 29,0 km/h (5 Bft) 100,00 %
29.02.2016 21:25 2,2 C 94 % 1010,9 hPa 0,0 l/m 16,9 km/h (3 Bft) SW 232 0 min 0,000 mm 0,0 UV-I 0 W/m 1,3 C -5,3 C 24,1 km/h (4 Bft) 94,12 %
29.02.2016 21:26 2,2 C 94 % 1010,9 hPa 0,2 l/m 15,2 km/h (3 Bft) W-SW 243 0 min 0,000 mm 0,0 UV-I 0 W/m 1,3 C -4,4 C 27,4 km/h (4 Bft) 100,00 %
29.02.2016 21:27 2,1 C 94 % 1011,0 hPa 0,0 l/m 23,3 km/h (4 Bft) SW 228 0 min 0,000 mm 0,0 UV-I 0 W/m 1,2 C -8,3 C 30,6 km/h (5 Bft) 96,55 %
29.02.2016 21:28 2,1 C 94 % 1010,9 hPa 0,0 l/m 23,4 km/h (4 Bft) SW 229 0 min 0,000 mm 0,0 UV-I 0 W/m 1,2 C -8,3 C 32,2 km/h (5 Bft) 96,30 %
29.02.2016 21:29 2,1 C 94 % 1011,0 hPa 0,0 l/m 18,2 km/h (3 Bft) W-SW 240 0 min 0,000 mm 0,0 UV-I 0 W/m 1,2 C -6,1 C 24,1 km/h (4 Bft) 100,00 %
29.02.2016 21:30 2,1 C 94 % 1011,0 hPa 0,0 l/m 21,3 km/h (4 Bft) SW 230 0 min 0,000 mm 0,0 UV-I 0 W/m 1,2 C -7,5 C 29,0 km/h (5 Bft) 95,83 %
29.02.2016 21:31 2,1 C 94 % 1011,0 hPa 0,0 l/m 17,5 km/h (3 Bft) SW 229 0 min 0,000 mm 0,0 UV-I 0 W/m 1,2 C -5,8 C 27,4 km/h (4 Bft) 95,65 %
29.02.2016 21:32 2,1 C 94 % 1011,0 hPa 0,0 l/m 19,8 km/h (3 Bft) W-SW 252 0 min 0,000 mm 0,0 UV-I 0 W/m 1,2 C -6,8 C 29,0 km/h (5 Bft) 83,33 %
29.02.2016 21:33 2,1 C 94 % 1011,0 hPa 0,2 l/m 17,7 km/h (3 Bft) SW 217 0 min 0,000 mm 0,0 UV-I 0 W/m 1,2 C -5,9 C 24,1 km/h (4 Bft) 100,00 %
29.02.2016 21:34 2,1 C 94 % 1011,0 hPa 0,0 l/m 19,2 km/h (3 Bft) S-SW 204 0 min 0,000 mm 0,0 UV-I 0 W/m 1,2 C -6,6 C 25,7 km/h (4 Bft) 95,65 %
29.02.2016 21:35 2,1 C 94 % 1011,1 hPa 0,0 l/m 14,7 km/h (3 Bft) SW 228 0 min 0,000 mm 0,0 UV-I 0 W/m 1,2 C -4,3 C 22,5 km/h (4 Bft) 96,30 %
29.02.2016 21:36 2,1 C 94 % 1011,0 hPa 0,0 l/m 21,8 km/h (4 Bft) SW 223 0 min 0,000 mm 0,0 UV-I 0 W/m 1,2 C -7,7 C 27,4 km/h (4 Bft) 100,00 %
29.02.2016 21:37 2,1 C 94 % 1011,0 hPa 0,0 l/m 15,1 km/h (3 Bft) SW 223 0 min 0,000 mm 0,0 UV-I 0 W/m 1,2 C -4,5 C 19,3 km/h (3 Bft) 96,67 %
29.02.2016 21:38 2,0 C 94 % 1011,1 hPa 0,0 l/m 13,2 km/h (3 Bft) W 262 0 min 0,000 mm 0,0 UV-I 0 W/m 1,1 C -3,5 C 19,3 km/h (3 Bft) 96,55 %
29.02.2016 21:39 2,1 C 94 % 1011,1 hPa 0,0 l/m 14,5 km/h (3 Bft) S-SW 208 0 min 0,000 mm 0,0 UV-I 0 W/m 1,2 C -4,2 C 22,5 km/h (4 Bft) 96,30 %
29.02.2016 21:40 2,0 C 94 % 1011,1 hPa 0,0 l/m 16,4 km/h (3 Bft) SW 220 0 min 0,000 mm 0,0 UV-I 0 W/m 1,1 C -5,3 C 22,5 km/h (4 Bft) 100,00 %
29.02.2016 21:41 2,0 C 94 % 1011,1 hPa 0,0 l/m 19,4 km/h (3 Bft) W-SW 246 0 min 0,000 mm 0,0 UV-I 0 W/m 1,1 C -6,8 C 24,1 km/h (4 Bft) 95,83 %
29.02.2016 21:42 2,0 C 94 % 1011,1 hPa 0,0 l/m 16,5 km/h (3 Bft) S-SW 213 0 min 0,000 mm 0,0 UV-I 0 W/m 1,1 C -5,4 C 24,1 km/h (4 Bft) 96,15 %
29.02.2016 21:43 2,0 C 94 % 1011,2 hPa 0,0 l/m 16,1 km/h (3 Bft) S-SW 209 0 min 0,000 mm 0,0 UV-I 0 W/m 1,1 C -5,2 C 20,9 km/h (4 Bft) 100,00 %
29.02.2016 21:44 2,0 C 94 % 1011,2 hPa 0,2 l/m 16,7 km/h (3 Bft) W 263 0 min 0,000 mm 0,0 UV-I 0 W/m 1,1 C -5,5 C 20,9 km/h (4 Bft) 96,67 %
29.02.2016 21:45 2,0 C 94 % 1011,2 hPa 0,0 l/m 16,4 km/h (3 Bft) S-SW 211 0 min 0,000 mm 0,0 UV-I 0 W/m 1,1 C -5,3 C 24,1 km/h (4 Bft) 100,00 %
29.02.2016 21:46 1,9 C 94 % 1011,2 hPa 0,0 l/m 15,0 km/h (3 Bft) W-SW 240 0 min 0,000 mm 0,0 UV-I 0 W/m 1,0 C -4,7 C 19,3 km/h (3 Bft) 95,65 %
29.02.2016 21:47 1,9 C 94 % 1011,3 hPa 0,0 l/m 23,3 km/h (4 Bft) SW 223 0 min 0,000 mm 0,0 UV-I 0 W/m 1,0 C -8,5 C 32,2 km/h (5 Bft) 96,67 %
29.02.2016 21:48 1,9 C 94 % 1011,2 hPa 0,0 l/m 18,6 km/h (3 Bft) SW 234 0 min 0,000 mm 0,0 UV-I 0 W/m 1,0 C -6,5 C 24,1 km/h (4 Bft) 93,33 %
29.02.2016 21:49 1,9 C 94 % 1011,3 hPa 0,0 l/m 19,2 km/h (3 Bft) W-SW 240 0 min 0,000 mm 0,0 UV-I 0 W/m 1,0 C -6,8 C 27,4 km/h (4 Bft) 100,00 %
29.02.2016 21:50 1,9 C 94 % 1011,3 hPa 0,0 l/m 15,9 km/h (3 Bft) SW 234 0 min 0,000 mm 0,0 UV-I 0 W/m 1,0 C -5,2 C 25,7 km/h (4 Bft) 96,15 %
29.02.2016 21:51 1,9 C 94 % 1011,3 hPa 0,0 l/m 21,0 km/h (4 Bft) SW 223 0 min 0,000 mm 0,0 UV-I 0 W/m 1,0 C -7,6 C 27,4 km/h (4 Bft) 100,00 %
29.02.2016 21:52 1,9 C 94 % 1011,3 hPa 0,0 l/m 21,4 km/h (4 Bft) W-SW 240 0 min 0,000 mm 0,0 UV-I 0 W/m 1,0 C -7,8 C 29,0 km/h (5 Bft) 96,30 %
29.02.2016 21:53 1,9 C 94 % 1011,3 hPa 0,0 l/m 15,0 km/h (3 Bft) W-SW 239 0 min 0,000 mm 0,0 UV-I 0 W/m 1,0 C -4,7 C 22,5 km/h (4 Bft) 96,15 %
29.02.2016 21:54 1,8 C 94 % 1011,3 hPa 0,0 l/m 14,6 km/h (3 Bft) W-SW 240 0 min 0,000 mm 0,0 UV-I 0 W/m 0,9 C -4,6 C 22,5 km/h (4 Bft) 100,00 %
29.02.2016 21:55 1,8 C 94 % 1011,4 hPa 0,0 l/m 19,4 km/h (3 Bft) W 261 0 min 0,000 mm 0,0 UV-I 0 W/m 0,9 C -7,0 C 27,4 km/h (4 Bft) 100,00 %
29.02.2016 21:56 1,8 C 94 % 1011,3 hPa 0,0 l/m 15,0 km/h (3 Bft) SW 223 0 min 0,000 mm 0,0 UV-I 0 W/m 0,9 C -4,8 C 19,3 km/h (3 Bft) 100,00 %
29.02.2016 21:57 1,8 C 94 % 1011,3 hPa 0,0 l/m 18,4 km/h (3 Bft) SW 236 0 min 0,000 mm 0,0 UV-I 0 W/m 0,9 C -6,6 C 25,7 km/h (4 Bft) 100,00 %
29.02.2016 21:58 1,8 C 95 % 1011,3 hPa 0,0 l/m 17,0 km/h (3 Bft) SW 236 0 min 0,000 mm 0,0 UV-I 0 W/m 1,1 C -5,9 C 25,7 km/h (4 Bft) 100,00 %
29.02.2016 21:59 1,8 C 95 % 1011,3 hPa 0,0 l/m 21,1 km/h (4 Bft) W-SW 247 0 min 0,000 mm 0,0 UV-I 0 W/m 1,1 C -7,8 C 32,2 km/h (5 Bft) 100,00 %
29.02.2016 22:00 1,8 C 95 % 1011,4 hPa 0,0 l/m 17,5 km/h (3 Bft) SW 231 0 min 0,000 mm 0,0 UV-I 0 W/m 1,1 C -6,1 C 24,1 km/h (4 Bft) 100,00 %
29.02.2016 22:02 1,8 C 94 % 1011,4 hPa 0,0 l/m 21,3 km/h (4 Bft) W-SW 252 0 min 0,000 mm 0,0 UV-I 0 W/m 0,9 C -7,9 C 27,4 km/h (4 Bft) 97,73 %
29.02.2016 22:03 1,8 C 94 % 1011,4 hPa 0,0 l/m 16,3 km/h (3 Bft) SW 222 0 min 0,000 mm 0,0 UV-I 0 W/m 0,9 C -5,5 C 22,5 km/h (4 Bft) 100,00 %
29.02.2016 22:04 1,8 C 94 % 1011,4 hPa 0,0 l/m 14,5 km/h (3 Bft) SW 223 0 min 0,000 mm 0,0 UV-I 0 W/m 0,9 C -4,5 C 19,3 km/h (3 Bft) 100,00 %
29.02.2016 22:05 1,8 C 94 % 1011,4 hPa 0,0 l/m 15,7 km/h (3 Bft) SW 233 0 min 0,000 mm 0,0 UV-I 0 W/m 0,9 C -5,2 C 20,9 km/h (4 Bft) 96,15 %
29.02.2016 22:06 1,8 C 95 % 1011,4 hPa 0,2 l/m 18,0 km/h (3 Bft) W-SW 250 0 min 0,000 mm 0,0 UV-I 0 W/m 1,1 C -6,4 C 24,1 km/h (4 Bft) 100,00 %
29.02.2016 22:07 1,8 C 95 % 1011,4 hPa 0,0 l/m 17,0 km/h (3 Bft) SW 220 0 min 0,000 mm 0,0 UV-I 0 W/m 1,1 C -5,9 C 22,5 km/h (4 Bft) 93,33 %
29.02.2016 22:08 1,8 C 95 % 1011,5 hPa 0,0 l/m 24,5 km/h (4 Bft) W 267 0 min 0,000 mm 0,0 UV-I 0 W/m 1,1 C -9,1 C 32,2 km/h (5 Bft) 100,00 %
29.02.2016 22:09 1,8 C 95 % 1011,5 hPa 0,0 l/m 16,2 km/h (3 Bft) S-SW 200 0 min 0,000 mm 0,0 UV-I 0 W/m 1,1 C -5,5 C 22,5 km/h (4 Bft) 100,00 %
29.02.2016 22:10 1,8 C 95 % 1011,5 hPa 0,0 l/m 15,2 km/h (3 Bft) SW 236 0 min 0,000 mm 0,0 UV-I 0 W/m 1,1 C -4,9 C 22,5 km/h (4 Bft) 100,00 %
29.02.2016 22:11 1,8 C 95 % 1011,5 hPa 0,0 l/m 16,8 km/h (3 Bft) S-SW 194 0 min 0,000 mm 0,0 UV-I 0 W/m 1,1 C -5,8 C 22,5 km/h (4 Bft) 100,00 %
29.02.2016 22:12 1,8 C 95 % 1011,5 hPa 0,0 l/m 17,8 km/h (3 Bft) SW 216 0 min 0,000 mm 0,0 UV-I 0 W/m 1,1 C -6,3 C 24,1 km/h (4 Bft) 100,00 %
29.02.2016 22:13 1,8 C 95 % 1011,5 hPa 0,0 l/m 18,9 km/h (3 Bft) W-SW 247 0 min 0,000 mm 0,0 UV-I 0 W/m 1,1 C -6,8 C 25,7 km/h (4 Bft) 100,00 %
29.02.2016 22:14 1,8 C 95 % 1011,5 hPa 0,0 l/m 18,3 km/h (3 Bft) W-SW 250 0 min 0,000 mm 0,0 UV-I 0 W/m 1,1 C -6,5 C 22,5 km/h (4 Bft) 96,15 %
29.02.2016 22:15 1,8 C 95 % 1011,6 hPa 0,0 l/m 16,6 km/h (3 Bft) S-SW 211 0 min 0,000 mm 0,0 UV-I 0 W/m 1,1 C -5,7 C 25,7 km/h (4 Bft) 100,00 %
29.02.2016 22:16 1,8 C 95 % 1011,5 hPa 0,0 l/m 23,3 km/h (4 Bft) S-SW 200 0 min 0,000 mm 0,0 UV-I 0 W/m 1,1 C -8,7 C 29,0 km/h (5 Bft) 100,00 %
29.02.2016 22:17 1,8 C 95 % 1011,5 hPa 0,0 l/m 21,2 km/h (4 Bft) W-SW 250 0 min 0,000 mm 0,0 UV-I 0 W/m 1,1 C -7,8 C 30,6 km/h (5 Bft) 100,00 %
29.02.2016 22:18 1,8 C 95 % 1011,5 hPa 0,0 l/m 19,9 km/h (4 Bft) W-SW 250 0 min 0,000 mm 0,0 UV-I 0 W/m 1,1 C -7,3 C 27,4 km/h (4 Bft) 100,00 %
29.02.2016 22:19 1,8 C 95 % 1011,5 hPa 0,0 l/m 21,2 km/h (4 Bft) SW 225 0 min 0,000 mm 0,0 UV-I 0 W/m 1,1 C -7,8 C 29,0 km/h (5 Bft) 93,33 %
29.02.2016 22:20 1,7 C 95 % 1011,6 hPa 0,0 l/m 15,1 km/h (3 Bft) SW 232 0 min 0,000 mm 0,0 UV-I 0 W/m 1,0 C -5,0 C 25,7 km/h (4 Bft) 100,00 %
29.02.2016 22:21 1,8 C 95 % 1011,6 hPa 0,2 l/m 17,1 km/h (3 Bft) SW 224 0 min 0,000 mm 0,0 UV-I 0 W/m 1,1 C -5,9 C 25,7 km/h (4 Bft) 100,00 %
29.02.2016 22:22 1,7 C 95 % 1011,6 hPa 0,0 l/m 19,3 km/h (3 Bft) W-SW 248 0 min 0,000 mm 0,0 UV-I 0 W/m 1,0 C -7,1 C 25,7 km/h (4 Bft) 100,00 %
29.02.2016 22:23 1,8 C 95 % 1011,6 hPa 0,0 l/m 17,0 km/h (3 Bft) SW 223 0 min 0,000 mm 0,0 UV-I 0 W/m 1,1 C -5,9 C 20,9 km/h (4 Bft) 100,00 %
29.02.2016 22:24 1,7 C 95 % 1011,7 hPa 0,0 l/m 12,6 km/h (3 Bft) W-SW 239 0 min 0,000 mm 0,0 UV-I 0 W/m 1,0 C -3,4 C 17,7 km/h (3 Bft) 95,65 %
29.02.2016 22:25 1,7 C 95 % 1011,7 hPa 0,0 l/m 18,2 km/h (3 Bft) W-SW 248 0 min 0,000 mm 0,0 UV-I 0 W/m 1,0 C -6,6 C 24,1 km/h (4 Bft) 100,00 %
29.02.2016 22:26 1,8 C 95 % 1011,7 hPa 0,0 l/m 17,0 km/h (3 Bft) S-SW 211 0 min 0,000 mm 0,0 UV-I 0 W/m 1,1 C -5,9 C 22,5 km/h (4 Bft) 95,65 %
29.02.2016 22:27 1,8 C 95 % 1011,7 hPa 0,0 l/m 20,5 km/h (4 Bft) W 266 0 min 0,000 mm 0,0 UV-I 0 W/m 1,1 C -7,5 C 30,6 km/h (5 Bft) 100,00 %
29.02.2016 22:28 1,8 C 95 % 1011,7 hPa 0,0 l/m 17,4 km/h (3 Bft) W-SW 254 0 min 0,000 mm 0,0 UV-I 0 W/m 1,1 C -6,1 C 22,5 km/h (4 Bft) 100,00 %
29.02.2016 22:29 1,8 C 95 % 1011,7 hPa 0,0 l/m 19,7 km/h (3 Bft) W 263 0 min 0,000 mm 0,0 UV-I 0 W/m 1,1 C -7,2 C 27,4 km/h (4 Bft) 100,00 %
29.02.2016 22:30 1,8 C 95 % 1011,7 hPa 0,0 l/m 18,1 km/h (3 Bft) SW 223 0 min 0,000 mm 0,0 UV-I 0 W/m 1,1 C -6,4 C 25,7 km/h (4 Bft) 100,00 %
29.02.2016 22:31 1,8 C 95 % 1011,8 hPa 0,0 l/m 20,9 km/h (4 Bft) SW 227 0 min 0,000 mm 0,0 UV-I 0 W/m 1,1 C -7,7 C 32,2 km/h (5 Bft) 100,00 %
29.02.2016 22:32 1,8 C 95 % 1011,7 hPa 0,0 l/m 18,3 km/h (3 Bft) SW 217 0 min 0,000 mm 0,0 UV-I 0 W/m 1,1 C -6,5 C 25,7 km/h (4 Bft) 100,00 %
29.02.2016 22:33 1,8 C 95 % 1011,8 hPa 0,0 l/m 16,1 km/h (3 Bft) SW 234 0 min 0,000 mm 0,0 UV-I 0 W/m 1,1 C -5,4 C 20,9 km/h (4 Bft) 100,00 %
29.02.2016 22:34 1,8 C 95 % 1011,8 hPa 0,0 l/m 15,3 km/h (3 Bft) W-SW 252 0 min 0,000 mm 0,0 UV-I 0 W/m 1,1 C -5,0 C 22,5 km/h (4 Bft) 100,00 %
29.02.2016 22:35 1,8 C 95 % 1011,8 hPa 0,0 l/m 17,7 km/h (3 Bft) W-SW 239 0 min 0,000 mm 0,0 UV-I 0 W/m 1,1 C -6,2 C 24,1 km/h (4 Bft) 100,00 %
29.02.2016 22:36 1,8 C 95 % 1011,8 hPa 0,0 l/m 16,7 km/h (3 Bft) W-SW 258 0 min 0,000 mm 0,0 UV-I 0 W/m 1,1 C -5,7 C 22,5 km/h (4 Bft) 100,00 %
29.02.2016 22:37 1,8 C 95 % 1011,8 hPa 0,0 l/m 18,2 km/h (3 Bft) W-SW 251 0 min 0,000 mm 0,0 UV-I 0 W/m 1,1 C -6,5 C 25,7 km/h (4 Bft) 100,00 %
29.02.2016 22:38 1,8 C 95 % 1011,9 hPa 0,0 l/m 16,0 km/h (3 Bft) W-SW 252 0 min 0,000 mm 0,0 UV-I 0 W/m 1,1 C -5,4 C 22,5 km/h (4 Bft) 100,00 %
29.02.2016 22:39 1,8 C 95 % 1011,9 hPa 0,0 l/m 16,1 km/h (3 Bft) W 273 0 min 0,000 mm 0,0 UV-I 0 W/m 1,1 C -5,4 C 20,9 km/h (4 Bft) 100,00 %
29.02.2016 22:40 1,8 C 95 % 1011,9 hPa 0,0 l/m 17,4 km/h (3 Bft) SW 234 0 min 0,000 mm 0,0 UV-I 0 W/m 1,1 C -6,1 C 22,5 km/h (4 Bft) 100,00 %
29.02.2016 22:41 1,8 C 95 % 1011,9 hPa 0,0 l/m 17,8 km/h (3 Bft) W 261 0 min 0,000 mm 0,0 UV-I 0 W/m 1,1 C -6,3 C 27,4 km/h (4 Bft) 100,00 %
29.02.2016 22:42 1,8 C 95 % 1011,9 hPa 0,2 l/m 24,1 km/h (4 Bft) W 274 0 min 0,000 mm 0,0 UV-I 0 W/m 1,1 C -9,0 C 37,0 km/h (5 Bft) 100,00 %
29.02.2016 22:43 1,8 C 95 % 1011,9 hPa 0,0 l/m 18,3 km/h (3 Bft) SW 234 0 min 0,000 mm 0,0 UV-I 0 W/m 1,1 C -6,5 C 22,5 km/h (4 Bft) 100,00 %
29.02.2016 22:44 1,8 C 95 % 1011,9 hPa 0,0 l/m 16,0 km/h (3 Bft) W-SW 237 0 min 0,000 mm 0,0 UV-I 0 W/m 1,1 C -5,4 C 24,1 km/h (4 Bft) 100,00 %
29.02.2016 22:45 1,9 C 95 % 1011,9 hPa 0,0 l/m 17,0 km/h (3 Bft) W 263 0 min 0,000 mm 0,0 UV-I 0 W/m 1,2 C -5,8 C 20,9 km/h (4 Bft) 100,00 %
29.02.2016 22:46 1,9 C 95 % 1012,0 hPa 0,0 l/m 19,3 km/h (3 Bft) S-SW 212 0 min 0,000 mm 0,0 UV-I 0 W/m 1,2 C -6,9 C 29,0 km/h (5 Bft) 100,00 %
29.02.2016 22:47 1,9 C 95 % 1012,0 hPa 0,0 l/m 22,7 km/h (4 Bft) W-SW 255 0 min 0,000 mm 0,0 UV-I 0 W/m 1,2 C -8,3 C 30,6 km/h (5 Bft) 100,00 %
29.02.2016 22:48 1,9 C 95 % 1012,0 hPa 0,0 l/m 19,1 km/h (3 Bft) S-SW 213 0 min 0,000 mm 0,0 UV-I 0 W/m 1,2 C -6,8 C 30,6 km/h (5 Bft) 100,00 %
29.02.2016 22:49 1,9 C 95 % 1012,0 hPa 0,0 l/m 16,6 km/h (3 Bft) SW 225 0 min 0,000 mm 0,0 UV-I 0 W/m 1,2 C -5,6 C 24,1 km/h (4 Bft) 100,00 %
29.02.2016 22:50 1,9 C 95 % 1012,0 hPa 0,0 l/m 17,8 km/h (3 Bft) SW 233 0 min 0,000 mm 0,0 UV-I 0 W/m 1,2 C -6,2 C 25,7 km/h (4 Bft) 100,00 %
29.02.2016 22:51 1,9 C 95 % 1012,0 hPa 0,0 l/m 19,4 km/h (3 Bft) W-SW 244 0 min 0,000 mm 0,0 UV-I 0 W/m 1,2 C -6,9 C 25,7 km/h (4 Bft) 100,00 %
29.02.2016 22:52 1,9 C 95 % 1012,1 hPa 0,0 l/m 18,8 km/h (3 Bft) W-SW 242 0 min 0,000 mm 0,0 UV-I 0 W/m 1,2 C -6,6 C 24,1 km/h (4 Bft) 100,00 %
29.02.2016 22:53 1,9 C 95 % 1012,1 hPa 0,0 l/m 19,1 km/h (3 Bft) W-SW 257 0 min 0,000 mm 0,0 UV-I 0 W/m 1,2 C -6,8 C 27,4 km/h (4 Bft) 100,00 %
29.02.2016 22:54 1,9 C 95 % 1012,1 hPa 0,0 l/m 13,8 km/h (3 Bft) SW 227 0 min 0,000 mm 0,0 UV-I 0 W/m 1,2 C -4,0 C 22,5 km/h (4 Bft) 100,00 %
29.02.2016 22:55 1,9 C 95 % 1012,1 hPa 0,0 l/m 19,9 km/h (4 Bft) S-SW 205 0 min 0,000 mm 0,0 UV-I 0 W/m 1,2 C -7,1 C 32,2 km/h (5 Bft) 100,00 %
29.02.2016 22:56 1,9 C 95 % 1012,2 hPa 0,0 l/m 16,7 km/h (3 Bft) W-SW 250 0 min 0,000 mm 0,0 UV-I 0 W/m 1,2 C -5,6 C 22,5 km/h (4 Bft) 100,00 %
29.02.2016 22:57 1,9 C 95 % 1012,2 hPa 0,0 l/m 16,4 km/h (3 Bft) W-SW 248 0 min 0,000 mm 0,0 UV-I 0 W/m 1,2 C -5,4 C 22,5 km/h (4 Bft) 95,83 %
29.02.2016 22:58 1,9 C 95 % 1012,2 hPa 0,0 l/m 19,7 km/h (3 Bft) SW 227 0 min 0,000 mm 0,0 UV-I 0 W/m 1,2 C -7,0 C 25,7 km/h (4 Bft) 95,65 %
29.02.2016 22:59 1,9 C 95 % 1012,2 hPa 0,0 l/m 20,9 km/h (4 Bft) W-SW 241 0 min 0,000 mm 0,0 UV-I 0 W/m 1,2 C -7,6 C 32,2 km/h (5 Bft) 100,00 %
29.02.2016 23:00 1,9 C 95 % 1012,2 hPa 0,0 l/m 15,9 km/h (3 Bft) W-SW 251 0 min 0,000 mm 0,0 UV-I 0 W/m 1,2 C -5,2 C 20,9 km/h (4 Bft) 100,00 %
29.02.2016 23:01 1,9 C 95 % 1012,2 hPa 0,0 l/m 20,7 km/h (4 Bft) W-SW 257 0 min 0,000 mm 0,0 UV-I 0 W/m 1,2 C -7,5 C 32,2 km/h (5 Bft) 100,00 %
29.02.2016 23:02 1,9 C 95 % 1012,2 hPa 0,0 l/m 20,8 km/h (4 Bft) W 265 0 min 0,000 mm 0,0 UV-I 0 W/m 1,2 C -7,5 C 25,7 km/h (4 Bft) 100,00 %
29.02.2016 23:03 2,0 C 95 % 1012,2 hPa 0,2 l/m 19,5 km/h (3 Bft) W-SW 256 0 min 0,000 mm 0,0 UV-I 0 W/m 1,3 C -6,8 C 32,2 km/h (5 Bft) 100,00 %
29.02.2016 23:04 2,0 C 95 % 1012,2 hPa 0,0 l/m 22,0 km/h (4 Bft) SW 236 0 min 0,000 mm 0,0 UV-I 0 W/m 1,3 C -7,9 C 29,0 km/h (5 Bft) 100,00 %
29.02.2016 23:05 2,0 C 95 % 1012,2 hPa 0,0 l/m 20,1 km/h (4 Bft) W-SW 251 0 min 0,000 mm 0,0 UV-I 0 W/m 1,3 C -7,1 C 27,4 km/h (4 Bft) 100,00 %
29.02.2016 23:06 2,0 C 95 % 1012,2 hPa 0,0 l/m 16,9 km/h (3 Bft) W-SW 240 0 min 0,000 mm 0,0 UV-I 0 W/m 1,3 C -5,6 C 22,5 km/h (4 Bft) 100,00 %
29.02.2016 23:07 2,0 C 95 % 1012,3 hPa 0,0 l/m 18,0 km/h (3 Bft) W-SW 248 0 min 0,000 mm 0,0 UV-I 0 W/m 1,3 C -6,1 C 25,7 km/h (4 Bft) 100,00 %
29.02.2016 23:08 2,0 C 95 % 1012,3 hPa 0,0 l/m 17,9 km/h (3 Bft) SW 232 0 min 0,000 mm 0,0 UV-I 0 W/m 1,3 C -6,1 C 22,5 km/h (4 Bft) 93,10 %
29.02.2016 23:09 2,0 C 95 % 1012,2 hPa 0,0 l/m 19,3 km/h (3 Bft) W-SW 244 0 min 0,000 mm 0,0 UV-I 0 W/m 1,3 C -6,7 C 24,1 km/h (4 Bft) 95,83 %
29.02.2016 23:10 2,0 C 95 % 1012,3 hPa 0,0 l/m 14,4 km/h (3 Bft) W 273 0 min 0,000 mm 0,0 UV-I 0 W/m 1,3 C -4,2 C 17,7 km/h (3 Bft) 100,00 %
29.02.2016 23:11 2,0 C 95 % 1012,2 hPa 0,0 l/m 14,7 km/h (3 Bft) W 272 0 min 0,000 mm 0,0 UV-I 0 W/m 1,3 C -4,4 C 19,3 km/h (3 Bft) 100,00 %
29.02.2016 23:12 2,1 C 95 % 1012,2 hPa 0,0 l/m 18,0 km/h (3 Bft) W-SW 243 0 min 0,000 mm 0,0 UV-I 0 W/m 1,4 C -6,0 C 25,7 km/h (4 Bft) 100,00 %
29.02.2016 23:13 2,1 C 95 % 1012,3 hPa 0,0 l/m 17,7 km/h (3 Bft) W-SW 256 0 min 0,000 mm 0,0 UV-I 0 W/m 1,4 C -5,9 C 22,5 km/h (4 Bft) 100,00 %
29.02.2016 23:14 2,1 C 95 % 1012,3 hPa 0,0 l/m 20,7 km/h (4 Bft) SW 234 0 min 0,000 mm 0,0 UV-I 0 W/m 1,4 C -7,2 C 29,0 km/h (5 Bft) 100,00 %
29.02.2016 23:15 2,0 C 95 % 1012,3 hPa 0,0 l/m 20,2 km/h (4 Bft) SW 234 0 min 0,000 mm 0,0 UV-I 0 W/m 1,3 C -7,1 C 25,7 km/h (4 Bft) 100,00 %
29.02.2016 23:16 2,1 C 94 % 1012,4 hPa 0,0 l/m 17,2 km/h (3 Bft) W-SW 246 0 min 0,000 mm 0,0 UV-I 0 W/m 1,2 C -5,6 C 20,9 km/h (4 Bft) 100,00 %
29.02.2016 23:17 2,1 C 94 % 1012,4 hPa 0,0 l/m 16,6 km/h (3 Bft) SW 234 0 min 0,000 mm 0,0 UV-I 0 W/m 1,2 C -5,3 C 20,9 km/h (4 Bft) 100,00 %
29.02.2016 23:18 2,1 C 94 % 1012,4 hPa 0,0 l/m 12,2 km/h (2 Bft) W 269 0 min 0,000 mm 0,0 UV-I 0 W/m 1,2 C -2,7 C 14,5 km/h (3 Bft) 96,67 %
29.02.2016 23:19 2,1 C 94 % 1012,4 hPa 0,0 l/m 16,3 km/h (3 Bft) W-SW 246 0 min 0,000 mm 0,0 UV-I 0 W/m 1,2 C -5,1 C 22,5 km/h (4 Bft) 100,00 %
29.02.2016 23:20 2,1 C 94 % 1012,4 hPa 0,0 l/m 16,2 km/h (3 Bft) W-SW 238 0 min 0,000 mm 0,0 UV-I 0 W/m 1,2 C -5,1 C 24,1 km/h (4 Bft) 100,00 %
29.02.2016 23:21 2,1 C 94 % 1012,4 hPa 0,0 l/m 18,5 km/h (3 Bft) W 261 0 min 0,000 mm 0,0 UV-I 0 W/m 1,2 C -6,2 C 29,0 km/h (5 Bft) 100,00 %
29.02.2016 23:22 2,1 C 94 % 1012,4 hPa 0,0 l/m 14,3 km/h (3 Bft) W-SW 237 0 min 0,000 mm 0,0 UV-I 0 W/m 1,2 C -4,0 C 20,9 km/h (4 Bft) 100,00 %
29.02.2016 23:23 2,1 C 94 % 1012,4 hPa 0,0 l/m 17,3 km/h (3 Bft) SW 227 0 min 0,000 mm 0,0 UV-I 0 W/m 1,2 C -5,7 C 25,7 km/h (4 Bft) 92,86 %
29.02.2016 23:24 2,1 C 94 % 1012,4 hPa 0,0 l/m 17,7 km/h (3 Bft) SW 227 0 min 0,000 mm 0,0 UV-I 0 W/m 1,2 C -5,9 C 25,7 km/h (4 Bft) 100,00 %
29.02.2016 23:25 2,1 C 94 % 1012,4 hPa 0,0 l/m 15,9 km/h (3 Bft) SW 236 0 min 0,000 mm 0,0 UV-I 0 W/m 1,2 C -4,9 C 19,3 km/h (3 Bft) 95,65 %
29.02.2016 23:26 2,1 C 94 % 1012,5 hPa 0,0 l/m 16,2 km/h (3 Bft) SW 232 0 min 0,000 mm 0,0 UV-I 0 W/m 1,2 C -5,1 C 20,9 km/h (4 Bft) 96,30 %
29.02.2016 23:27 2,1 C 94 % 1012,5 hPa 0,0 l/m 14,5 km/h (3 Bft) W 269 0 min 0,000 mm 0,0 UV-I 0 W/m 1,2 C -4,2 C 17,7 km/h (3 Bft) 96,15 %
29.02.2016 23:28 2,1 C 94 % 1012,5 hPa 0,0 l/m 15,0 km/h (3 Bft) W-SW 252 0 min 0,000 mm 0,0 UV-I 0 W/m 1,2 C -4,4 C 20,9 km/h (4 Bft) 95,83 %
29.02.2016 23:29 2,1 C 94 % 1012,5 hPa 0,0 l/m 17,5 km/h (3 Bft) W 271 0 min 0,000 mm 0,0 UV-I 0 W/m 1,2 C -5,8 C 24,1 km/h (4 Bft) 100,00 %
29.02.2016 23:30 2,1 C 94 % 1012,5 hPa 0,0 l/m 15,2 km/h (3 Bft) W 261 0 min 0,000 mm 0,0 UV-I 0 W/m 1,2 C -4,5 C 19,3 km/h (3 Bft) 96,15 %
29.02.2016 23:31 2,1 C 94 % 1012,5 hPa 0,0 l/m 16,8 km/h (3 Bft) W-SW 252 0 min 0,000 mm 0,0 UV-I 0 W/m 1,2 C -5,4 C 22,5 km/h (4 Bft) 100,00 %
29.02.2016 23:32 2,1 C 94 % 1012,5 hPa 0,0 l/m 11,8 km/h (2 Bft) W-SW 239 0 min 0,000 mm 0,0 UV-I 0 W/m 1,2 C -2,4 C 14,5 km/h (3 Bft) 93,33 %
29.02.2016 23:33 2,1 C 94 % 1012,5 hPa 0,2 l/m 15,6 km/h (3 Bft) SW 227 0 min 0,000 mm 0,0 UV-I 0 W/m 1,2 C -4,8 C 22,5 km/h (4 Bft) 100,00 %
29.02.2016 23:34 2,1 C 94 % 1012,5 hPa 0,0 l/m 15,7 km/h (3 Bft) W-SW 244 0 min 0,000 mm 0,0 UV-I 0 W/m 1,2 C -4,8 C 22,5 km/h (4 Bft) 95,65 %
29.02.2016 23:35 2,1 C 94 % 1012,5 hPa 0,0 l/m 17,4 km/h (3 Bft) SW 224 0 min 0,000 mm 0,0 UV-I 0 W/m 1,2 C -5,7 C 27,4 km/h (4 Bft) 100,00 %
29.02.2016 23:36 2,1 C 94 % 1012,5 hPa 0,0 l/m 17,7 km/h (3 Bft) W-SW 246 0 min 0,000 mm 0,0 UV-I 0 W/m 1,2 C -5,9 C 24,1 km/h (4 Bft) 96,55 %
29.02.2016 23:37 2,1 C 94 % 1012,5 hPa 0,0 l/m 16,2 km/h (3 Bft) SW 220 0 min 0,000 mm 0,0 UV-I 0 W/m 1,2 C -5,1 C 22,5 km/h (4 Bft) 96,30 %
29.02.2016 23:38 2,1 C 94 % 1012,6 hPa 0,0 l/m 14,8 km/h (3 Bft) W-SW 242 0 min 0,000 mm 0,0 UV-I 0 W/m 1,2 C -4,3 C 19,3 km/h (3 Bft) 92,31 %
29.02.2016 23:39 2,1 C 94 % 1012,6 hPa 0,0 l/m 16,4 km/h (3 Bft) W-SW 244 0 min 0,000 mm 0,0 UV-I 0 W/m 1,2 C -5,2 C 20,9 km/h (4 Bft) 95,83 %
29.02.2016 23:40 2,1 C 94 % 1012,6 hPa 0,0 l/m 16,4 km/h (3 Bft) W-SW 250 0 min 0,000 mm 0,0 UV-I 0 W/m 1,2 C -5,2 C 24,1 km/h (4 Bft) 100,00 %
29.02.2016 23:41 2,1 C 94 % 1012,6 hPa 0,0 l/m 17,5 km/h (3 Bft) W-SW 257 0 min 0,000 mm 0,0 UV-I 0 W/m 1,2 C -5,8 C 22,5 km/h (4 Bft) 96,30 %
29.02.2016 23:42 2,1 C 94 % 1012,6 hPa 0,0 l/m 14,2 km/h (3 Bft) SW 229 0 min 0,000 mm 0,0 UV-I 0 W/m 1,2 C -4,0 C 20,9 km/h (4 Bft) 100,00 %
29.02.2016 23:43 2,1 C 94 % 1012,6 hPa 0,0 l/m 14,8 km/h (3 Bft) W-SW 249 0 min 0,000 mm 0,0 UV-I 0 W/m 1,2 C -4,3 C 20,9 km/h (4 Bft) 91,67 %
29.02.2016 23:44 2,1 C 94 % 1012,6 hPa 0,0 l/m 17,5 km/h (3 Bft) W-SW 248 0 min 0,000 mm 0,0 UV-I 0 W/m 1,2 C -5,8 C 22,5 km/h (4 Bft) 100,00 %
29.02.2016 23:45 2,1 C 94 % 1012,6 hPa 0,0 l/m 16,8 km/h (3 Bft) SW 215 0 min 0,000 mm 0,0 UV-I 0 W/m 1,2 C -5,4 C 20,9 km/h (4 Bft) 96,67 %
29.02.2016 23:46 2,1 C 94 % 1012,6 hPa 0,0 l/m 19,3 km/h (3 Bft) W-SW 242 0 min 0,000 mm 0,0 UV-I 0 W/m 1,2 C -6,6 C 24,1 km/h (4 Bft) 95,65 %
29.02.2016 23:47 2,1 C 94 % 1012,6 hPa 0,0 l/m 13,1 km/h (3 Bft) W-SW 253 0 min 0,000 mm 0,0 UV-I 0 W/m 1,2 C -3,3 C 17,7 km/h (3 Bft) 100,00 %
29.02.2016 23:48 2,1 C 94 % 1012,6 hPa 0,0 l/m 13,8 km/h (3 Bft) W-SW 245 0 min 0,000 mm 0,0 UV-I 0 W/m 1,2 C -3,7 C 19,3 km/h (3 Bft) 98,59 %
29.02.2016 23:49 2,1 C 94 % 1012,6 hPa 0,0 l/m 15,9 km/h (3 Bft) SW 232 0 min 0,000 mm 0,0 UV-I 0 W/m 1,2 C -4,9 C 22,5 km/h (4 Bft) 95,12 %
29.02.2016 23:50 2,1 C 94 % 1012,6 hPa 0,0 l/m 15,7 km/h (3 Bft) W-SW 244 0 min 0,000 mm 0,0 UV-I 0 W/m 1,2 C -4,8 C 20,9 km/h (4 Bft) 96,15 %
29.02.2016 23:51 2,1 C 94 % 1012,6 hPa 0,0 l/m 14,4 km/h (3 Bft) S 180 0 min 0,000 mm 0,0 UV-I 0 W/m 1,2 C -4,1 C 19,3 km/h (3 Bft) 96,30 %
29.02.2016 23:52 2,1 C 94 % 1012,6 hPa 0,0 l/m 18,2 km/h (3 Bft) W 267 0 min 0,000 mm 0,0 UV-I 0 W/m 1,2 C -6,1 C 24,1 km/h (4 Bft) 100,00 %
29.02.2016 23:53 2,1 C 94 % 1012,6 hPa 0,0 l/m 14,6 km/h (3 Bft) W 269 0 min 0,000 mm 0,0 UV-I 0 W/m 1,2 C -4,2 C 19,3 km/h (3 Bft) 100,00 %
29.02.2016 23:54 2,1 C 94 % 1012,6 hPa 0,0 l/m 14,2 km/h (3 Bft) SW 227 0 min 0,000 mm 0,0 UV-I 0 W/m 1,2 C -4,0 C 19,3 km/h (3 Bft) 95,83 %
29.02.2016 23:55 2,1 C 94 % 1012,6 hPa 0,0 l/m 17,3 km/h (3 Bft) W-SW 248 0 min 0,000 mm 0,0 UV-I 0 W/m 1,2 C -5,7 C 22,5 km/h (4 Bft) 96,15 %
29.02.2016 23:56 2,1 C 94 % 1012,6 hPa 0,0 l/m 17,7 km/h (3 Bft) W-SW 247 0 min 0,000 mm 0,0 UV-I 0 W/m 1,2 C -5,9 C 22,5 km/h (4 Bft) 100,00 %
29.02.2016 23:57 2,1 C 94 % 1012,6 hPa 0,0 l/m 18,2 km/h (3 Bft) W 265 0 min 0,000 mm 0,0 UV-I 0 W/m 1,2 C -6,1 C 29,0 km/h (5 Bft) 92,86 %
29.02.2016 23:58 2,1 C 94 % 1012,6 hPa 0,0 l/m 14,8 km/h (3 Bft) SW 231 0 min 0,000 mm 0,0 UV-I 0 W/m 1,2 C -4,3 C 25,7 km/h (4 Bft) 100,00 %
29.02.2016 23:59 2,1 C 94 % 1012,6 hPa 0,0 l/m 19,1 km/h (3 Bft) W-SW 253 0 min 0,000 mm 0,0 UV-I 0 W/m 1,2 C -6,5 C 25,7 km/h (4 Bft) 95,65 %
_ Min-Zeit 00:14 13:14 15:35 - 00:00 - - - - - - 00:14 22:08 00:00 02:51
Minimum _ 1,1 C 88 % 1005,6 hPa - 0,0 km/h (0 Bft) - - - - - - 0,2 C -9,1 C 0,0 km/h (0 Bft) 82,61 %
_ Max-Zeit 15:56 00:27 23:38 10:14 08:05 - - 00:00 14:00 00:00 14:11 16:15 18:14 06:22 00:00
Maximum _ 7,2 C 96 % 1012,6 hPa 0,2 l/m 43,6 km/h
O (6 Bft)
- - 0 min 0,051 mm 0,0 UV-I 85 W/m 5,5 C 6,8 C 56,3 km/h
O (7 Bft)
100,00 %
Durchschnitt _ 5,2 C 91 % 1008,2 hPa #12,2 l/m 21,0 km/h (4 Bft) O-NO - #0 min. #0,483 mm 0,0 UV-I 36 W/m 4,0 C -2,7 C 28,3 km/h (4 Bft) 98,52 %